[[{"header":{"parameterUnit":"m.s-1","parameterCategory":1,"la1":30.6,"la2":28.766,"lo1":-90.7593,"lo2":-88.6598,"dx":0.0162,"dy":0.0183,"nx":116,"ny":114,"refTime":"2023-02-21T18:00:00:Z","depth":0,"parameterNumber":2,"parameterNumberName":"U-component_of_WINDS"},"data":[0.0,0.0,0.0,0.0,0.0,0.0,0.0,0.0,0.0,0.0,0.0,0.0,0.0,0.0,0.0,0.0,0.0,0.0,0.0,0.0,0.0,0.0,0.0,0.0,0.0,0.0,0.0,0.0,0.0,0.0,0.0,0.0,0.0,0.0,0.0,0.0,0.0,0.0,0.0,0.0,0.0,0.0,0.0,0.0,0.0,0.0,0.0,0.0,0.0,0.0,0.0,0.0,0.0,0.0,0.0,0.0,0.0,0.0,0.0,0.0,0.0,0.0,0.0,0.0,0.0,0.0,0.0,0.0,0.0,0.0,0.0,0.0,0.0,0.0,0.0,0.0,0.0,0.0,0.0,0.0,0.0,0.0,0.0,0.0,0.0,0.0,0.0,0.0,0.0,0.0,0.0,0.0,0.0,0.0,0.0,0.0,0.0,0.0,0.0,0.0,0.0,0.0,0.0,0.0,0.0,0.0,0.0,0.0,0.0,0.0,0.0,0.0,0.0,0.0,0.0,0.0,0.0,0.0,0.0,0.0,0.0,0.0,0.0,0.0,0.0,0.0,0.0,0.0,0.0,0.0,0.0,0.0,0.0,0.0,0.0,0.0,0.0,0.0,0.0,0.0,0.0,0.0,0.0,0.0,0.0,0.0,0.0,0.0,0.0,0.0,0.0,0.0,0.0,0.0,0.0,0.0,0.0,0.0,0.0,0.0,0.0,0.0,0.0,0.0,0.0,0.0,0.0,0.0,0.0,0.0,0.0,0.0,0.0,0.0,0.0,0.0,0.0,0.0,0.0,0.0,0.0,0.0,0.0,0.0,0.0,0.0,0.0,0.0,0.0,0.0,0.0,0.0,0.0,0.0,0.0,0.0,0.0,0.0,0.0,0.0,0.0,0.0,0.0,0.0,0.0,0.0,0.0,0.0,0.0,0.0,0.0,0.0,0.0,0.0,0.0,0.0,0.0,0.0,0.0,0.0,0.0,0.0,0.0,0.0,0.0,0.0,0.0,0.0,0.0,0.0,0.0,0.0,0.0,0.0,0.0,0.0,0.0,0.0,0.0,0.0,0.0,0.0,0.0,0.0,0.0,0.0,0.0,0.0,0.0,0.0,0.0,0.0,0.0,0.0,0.0,0.0,0.0,0.0,0.0,0.0,0.0,0.0,0.0,0.0,0.0,0.0,0.0,0.0,0.0,0.0,0.0,0.0,0.0,0.0,0.0,0.0,0.0,0.0,0.0,0.0,0.0,0.0,0.0,0.0,0.0,0.0,0.0,0.0,0.0,0.0,0.0,0.0,0.0,0.0,0.0,0.0,0.0,0.0,0.0,0.0,0.0,0.0,0.0,0.0,0.0,0.0,0.0,0.0,0.0,0.0,0.0,0.0,0.0,0.0,0.0,0.0,0.0,0.0,0.0,0.0,0.0,0.0,0.0,0.0,0.0,0.0,0.0,0.0,0.0,0.0,0.0,0.0,0.0,0.0,0.0,0.0,0.0,0.0,0.0,0.0,0.0,0.0,0.0,0.0,0.0,0.0,0.0,0.0,0.0,0.0,0.0,0.0,0.0,0.0,0.0,0.0,0.0,0.0,0.0,0.0,0.0,0.0,0.0,0.0,0.0,0.0,0.0,0.0,0.0,0.0,0.0,0.0,0.0,0.0,0.0,0.0,0.0,0.0,0.0,0.0,0.0,0.0,0.0,0.0,0.0,0.0,0.0,0.0,0.0,0.0,0.0,0.0,0.0,0.0,0.0,0.0,0.0,0.0,0.0,0.0,0.0,0.0,0.0,0.0,0.0,0.0,0.0,0.0,0.0,0.0,0.0,0.0,0.0,0.0,0.0,0.0,0.0,0.0,0.0,0.0,0.0,0.0,0.0,0.0,0.0,0.0,0.0,0.0,0.0,0.0,0.0,0.0,0.0,0.0,0.0,0.0,0.0,0.0,0.0,0.0,0.0,0.0,0.0,0.0,0.0,0.0,0.0,0.0,0.0,0.0,0.0,0.0,0.0,0.0,0.0,0.0,0.0,0.0,0.0,0.0,0.0,0.0,0.0,0.0,0.0,0.0,0.0,0.0,0.0,0.0,0.0,0.0,0.0,0.0,0.0,0.0,0.0,0.0,0.0,0.0,0.0,0.0,0.0,0.0,0.0,0.0,0.0,0.0,0.0,0.0,0.0,0.0,0.0,0.0,0.0,0.0,0.0,0.0,0.0,0.0,0.0,0.0,0.0,0.0,0.0,0.0,0.0,0.0,0.0,0.0,0.0,0.0,0.0,0.0,0.0,0.0,0.0,0.0,0.0,0.0,0.0,0.0,0.0,0.0,0.0,0.0,0.0,0.0,0.0,0.0,0.0,0.0,0.0,0.0,0.0,0.0,0.0,0.0,0.0,0.0,0.0,0.0,0.0,0.0,0.0,0.0,0.0,0.0,0.0,0.0,0.0,0.0,0.0,0.0,0.0,0.0,0.0,0.0,0.0,0.0,0.0,0.0,0.0,0.0,0.0,0.0,0.0,0.0,0.0,0.0,0.0,0.0,0.0,0.0,0.0,0.0,0.0,0.0,0.0,0.0,0.0,0.0,0.0,0.0,0.0,0.0,0.0,0.0,0.0,0.0,0.0,0.0,0.0,0.0,0.0,0.0,0.0,0.0,0.0,0.0,0.0,0.0,0.0,0.0,0.0,0.0,0.0,0.0,0.0,0.0,0.0,0.0,0.0,0.0,0.0,0.0,0.0,0.0,0.0,0.0,0.0,0.0,0.0,0.0,0.0,0.0,0.0,0.0,0.0,0.0,0.0,0.0,0.0,0.0,0.0,0.0,0.0,0.0,0.0,0.0,0.0,0.0,0.0,0.0,0.0,0.0,0.0,0.0,0.0,0.0,0.0,0.0,0.0,0.0,0.0,0.0,0.0,0.0,0.0,0.0,0.0,0.0,0.0,0.0,0.0,0.0,0.0,0.0,0.0,0.0,0.0,0.0,0.0,0.0,0.0,0.0,0.0,0.0,0.0,0.0,0.0,0.0,0.0,0.0,0.0,0.0,0.0,0.0,0.0,0.0,0.0,0.0,0.0,0.0,0.0,0.0,0.0,0.0,0.0,0.0,0.0,0.0,0.0,0.0,0.0,0.0,0.0,0.0,0.0,0.0,0.0,0.0,0.0,0.0,0.0,0.0,0.0,0.0,0.0,0.0,0.0,0.0,0.0,0.0,0.0,0.0,0.0,0.0,0.0,0.0,0.0,0.0,0.0,0.0,0.0,0.0,0.0,0.0,0.0,0.0,0.0,0.0,0.0,0.0,0.0,0.0,0.0,0.0,0.0,0.0,0.0,0.0,0.0,0.0,0.0,0.0,0.0,0.0,0.0,0.0,0.0,0.0,0.0,0.0,0.0,0.0,0.0,0.0,0.0,0.0,0.0,0.0,0.0,0.0,0.0,0.0,0.0,0.0,0.0,0.0,0.0,0.0,0.0,0.0,0.0,0.0,0.0,0.0,0.0,0.0,0.0,0.0,0.0,0.0,0.0,0.0,0.0,0.0,0.0,0.0,0.0,0.0,0.0,0.0,0.0,0.0,0.0,0.0,0.0,0.0,0.0,0.0,0.0,0.0,0.0,0.0,0.0,0.0,0.0,0.0,0.0,0.0,0.0,0.0,0.0,0.0,0.0,0.0,0.0,0.0,0.0,0.0,0.0,0.0,0.0,0.0,0.0,0.0,0.0,0.0,0.0,0.0,0.0,0.0,0.0,0.0,0.0,0.0,0.0,0.0,0.0,0.0,0.0,0.0,0.0,0.0,0.0,0.0,0.0,0.0,0.0,0.0,0.0,0.0,0.0,0.0,0.0,0.0,0.0,0.0,0.0,0.0,0.0,0.0,0.0,0.0,0.0,0.0,0.0,0.0,0.0,0.0,0.0,0.0,0.0,0.0,0.0,0.0,0.0,0.0,0.0,0.0,0.0,0.0,0.0,0.0,0.0,0.0,0.0,0.0,0.0,0.0,0.0,0.0,0.0,0.0,0.0,0.0,0.0,0.0,0.0,0.0,0.0,0.0,0.0,0.0,0.0,0.0,0.0,0.0,0.0,0.0,0.0,0.0,0.0,0.0,0.0,0.0,0.0,0.0,0.0,0.0,0.0,0.0,0.0,0.0,0.0,0.0,0.0,0.0,0.0,0.0,0.0,0.0,0.0,0.0,0.0,0.0,0.0,0.0,0.0,0.0,0.0,0.0,0.0,0.0,0.0,0.0,0.0,0.0,0.0,0.0,0.0,0.0,0.0,0.0,0.0,0.0,0.0,0.0,0.0,0.0,0.0,0.0,0.0,0.0,0.0,0.0,0.0,0.0,0.0,0.0,0.0,0.0,0.0,0.0,0.0,0.0,0.0,0.0,0.0,0.0,0.0,0.0,0.0,0.0,0.0,0.0,0.0,0.0,0.0,0.0,0.0,0.0,0.0,0.0,0.0,0.0,0.0,0.0,0.0,0.0,0.0,0.0,0.0,0.0,0.0,0.0,0.0,0.0,0.0,0.0,0.0,0.0,0.0,0.0,0.0,0.0,0.0,0.0,0.0,0.0,0.0,0.0,0.0,0.0,0.0,0.0,0.0,0.0,0.0,0.0,0.0,0.0,0.0,0.0,0.0,0.0,0.0,0.0,0.0,0.0,0.0,0.0,0.0,0.0,0.0,0.0,0.0,0.0,0.0,0.0,0.0,0.0,0.0,0.0,0.0,0.0,0.0,0.0,0.0,0.0,0.0,0.0,0.0,0.0,0.0,0.0,0.0,0.0,0.0,0.0,0.0,0.0,0.0,0.0,0.0,0.0,0.0,0.0,0.0,0.0,0.0,0.0,0.0,0.0,0.0,0.0,0.0,0.0,0.0,0.0,0.0,0.0,0.0,0.0,0.0,0.0,0.0,0.0,0.0,0.0,0.0,0.0,0.0,0.0,0.0,0.0,0.0,0.0,0.0,0.0,0.0,0.0,0.0,0.0,0.0,0.0,0.0,0.0,0.0,0.0,0.0,0.0,0.0,0.0,0.0,0.0,0.0,0.0,0.0,0.0,0.0,0.0,0.0,0.0,0.0,0.0,0.0,0.0,0.0,0.0,0.0,0.0,0.0,0.0,0.0,0.0,0.0,0.0,0.0,0.0,0.0,0.0,0.0,0.0,0.0,0.0,0.0,0.0,0.0,0.0,0.0,0.0,0.0,0.0,0.0,0.0,0.0,0.0,0.0,0.0,0.0,0.0,0.0,0.0,0.0,0.0,0.0,0.0,0.0,0.0,0.0,0.0,0.0,0.0,0.0,0.0,0.0,0.0,0.0,0.0,0.0,0.0,0.0,0.0,0.0,0.0,0.0,0.0,0.0,0.0,0.0,0.0,0.0,0.0,0.0,0.0,0.0,0.0,0.0,0.0,0.0,0.0,0.0,0.0,0.0,0.0,0.0,0.0,0.0,0.0,0.0,0.0,0.0,0.0,0.0,0.0,0.0,0.0,0.0,0.0,0.0,0.0,0.0,0.0,0.0,0.0,0.0,0.0,0.0,0.0,0.0,0.0,0.0,0.0,0.0,0.0,0.0,0.0,0.0,0.0,0.0,0.0,0.0,0.0,0.0,0.0,0.0,0.0,0.0,0.0,0.0,0.0,0.0,0.0,0.0,0.0,0.0,0.0,0.0,0.0,0.0,0.0,0.0,0.0,0.0,0.0,0.0,0.0,0.0,0.0,0.0,0.0,0.0,0.0,0.0,0.0,0.0,0.0,0.0,0.0,0.0,0.0,0.0,0.0,0.0,0.0,0.0,0.0,0.0,0.0,0.0,0.0,0.0,0.0,0.0,0.0,0.0,0.0,0.0,0.0,0.0,0.0,0.0,0.0,0.0,0.0,0.0,0.0,0.0,0.0,0.0,0.0,0.0,0.0,0.0,0.0,0.0,0.0,0.0,0.0,0.0,0.0,0.0,0.0,0.0,0.0,0.0,0.0,0.0,0.0,0.0,0.0,0.0,0.0,0.0,0.0,0.0,0.0,0.0,0.0,0.0,0.0,0.0,0.0,0.0,0.0,0.0,0.0,0.0,0.0,0.0,0.0,0.0,0.0,0.0,0.0,0.0,0.0,-9.0042,-9.1171,0.0,0.0,0.0,0.0,0.0,0.0,0.0,0.0,0.0,0.0,0.0,0.0,0.0,0.0,0.0,0.0,0.0,0.0,0.0,0.0,0.0,0.0,0.0,0.0,0.0,0.0,0.0,0.0,0.0,0.0,0.0,0.0,0.0,0.0,0.0,0.0,0.0,0.0,0.0,0.0,0.0,0.0,0.0,0.0,0.0,0.0,0.0,0.0,0.0,0.0,0.0,0.0,0.0,0.0,0.0,0.0,0.0,0.0,0.0,0.0,0.0,0.0,0.0,0.0,0.0,0.0,0.0,0.0,0.0,0.0,0.0,0.0,0.0,0.0,0.0,0.0,0.0,0.0,0.0,0.0,0.0,0.0,0.0,0.0,0.0,0.0,0.0,0.0,0.0,0.0,0.0,0.0,0.0,0.0,0.0,0.0,0.0,0.0,0.0,0.0,0.0,0.0,0.0,0.0,0.0,0.0,0.0,0.0,0.0,0.0,0.0,0.0,0.0,0.0,-8.6563,-8.7967,0.0,0.0,0.0,0.0,0.0,0.0,0.0,0.0,0.0,0.0,0.0,0.0,0.0,0.0,0.0,0.0,0.0,0.0,0.0,0.0,0.0,0.0,0.0,0.0,0.0,0.0,0.0,0.0,0.0,0.0,0.0,0.0,0.0,0.0,0.0,0.0,0.0,0.0,0.0,0.0,0.0,0.0,0.0,0.0,0.0,0.0,0.0,0.0,0.0,0.0,0.0,0.0,0.0,0.0,0.0,0.0,0.0,0.0,0.0,0.0,0.0,0.0,0.0,0.0,0.0,0.0,0.0,0.0,0.0,0.0,0.0,0.0,0.0,0.0,0.0,0.0,0.0,0.0,0.0,0.0,0.0,0.0,0.0,0.0,0.0,0.0,0.0,0.0,0.0,0.0,0.0,0.0,0.0,0.0,0.0,0.0,0.0,0.0,0.0,0.0,0.0,0.0,0.0,0.0,0.0,0.0,0.0,0.0,-8.4214,-8.3972,-8.3564,-8.314,-8.2054,-8.0723,-8.3294,-8.4538,-8.4901,-8.6428,0.0,0.0,0.0,0.0,0.0,0.0,0.0,0.0,0.0,0.0,0.0,0.0,0.0,0.0,0.0,0.0,0.0,0.0,0.0,0.0,0.0,0.0,0.0,0.0,0.0,0.0,0.0,0.0,0.0,0.0,0.0,0.0,0.0,0.0,0.0,0.0,0.0,0.0,-9.7479,-9.6424,-9.6873,-9.8568,-9.8617,0.0,0.0,0.0,0.0,0.0,0.0,0.0,0.0,0.0,0.0,0.0,0.0,0.0,0.0,0.0,0.0,0.0,0.0,0.0,0.0,0.0,0.0,0.0,0.0,0.0,0.0,0.0,0.0,0.0,0.0,0.0,0.0,0.0,0.0,0.0,0.0,0.0,0.0,0.0,0.0,0.0,0.0,0.0,-9.1414,-9.1525,0.0,0.0,0.0,0.0,0.0,0.0,0.0,0.0,0.0,0.0,0.0,0.0,0.0,-8.4246,-8.384,-8.1762,-8.0577,-8.0353,-8.0454,-7.9738,-7.8353,-7.9669,-7.9746,-7.8915,-8.0029,0.0,-8.1941,-8.2956,0.0,0.0,0.0,0.0,0.0,0.0,0.0,0.0,0.0,0.0,0.0,0.0,0.0,0.0,0.0,0.0,0.0,0.0,0.0,0.0,0.0,0.0,0.0,0.0,0.0,0.0,0.0,0.0,0.0,0.0,0.0,0.0,0.0,0.0,0.0,0.0,-9.6162,-9.5831,-9.5694,-9.5053,-9.5503,-9.6776,-9.6201,-9.7533,-10.0213,-9.9588,0.0,0.0,0.0,0.0,0.0,0.0,0.0,0.0,0.0,0.0,0.0,0.0,0.0,0.0,0.0,0.0,0.0,0.0,0.0,0.0,0.0,0.0,0.0,0.0,0.0,0.0,0.0,0.0,0.0,0.0,0.0,0.0,0.0,0.0,0.0,0.0,0.0,0.0,0.0,-9.2369,-9.1861,-9.229,-9.1661,-9.172,0.0,0.0,0.0,0.0,0.0,0.0,0.0,0.0,0.0,-8.4666,-8.2616,-8.1,-7.9992,-7.9385,-7.8808,-7.83,-7.8846,-7.8669,-7.7977,-7.8707,-7.8861,-7.8554,-7.9438,-7.9792,-7.9866,-8.1658,-8.323,-8.4556,0.0,0.0,0.0,0.0,-8.6848,-8.6952,0.0,0.0,0.0,0.0,0.0,0.0,0.0,0.0,0.0,0.0,0.0,0.0,0.0,0.0,0.0,0.0,0.0,0.0,0.0,0.0,0.0,0.0,0.0,0.0,0.0,0.0,0.0,0.0,-9.5641,-9.5032,-9.4341,-9.4403,-9.4976,-9.5882,-9.5106,-9.6295,-9.8877,-9.8616,-9.8609,0.0,0.0,0.0,0.0,0.0,0.0,0.0,0.0,0.0,0.0,0.0,0.0,0.0,0.0,0.0,0.0,0.0,0.0,0.0,0.0,0.0,0.0,0.0,0.0,0.0,0.0,0.0,0.0,0.0,0.0,0.0,0.0,0.0,0.0,0.0,0.0,0.0,0.0,-9.2163,-9.1409,-9.1917,-9.0615,-9.017,0.0,0.0,0.0,0.0,0.0,0.0,-8.5362,-8.309,-8.1769,-8.167,-8.0145,-7.8762,-7.763,-7.8207,-7.8207,-7.7592,-7.8207,-7.84,-7.8207,-7.8415,-7.84,-7.8246,-7.9092,-7.9092,-7.8669,-8.0975,-8.1955,-8.2173,-8.3663,-8.4618,-8.52,-8.5347,-8.5666,-8.5882,0.0,0.0,0.0,0.0,0.0,0.0,0.0,0.0,0.0,0.0,0.0,0.0,0.0,0.0,0.0,0.0,0.0,0.0,0.0,0.0,0.0,0.0,0.0,0.0,0.0,0.0,0.0,-9.5178,-9.3495,-9.3459,-9.4957,-9.523,-9.5789,-9.6538,-9.6486,-9.6629,-9.6915,-9.6731,-9.6674,-9.6901,0.0,0.0,0.0,0.0,0.0,0.0,0.0,0.0,0.0,0.0,0.0,0.0,0.0,0.0,0.0,0.0,0.0,0.0,0.0,0.0,0.0,0.0,0.0,0.0,0.0,0.0,0.0,0.0,0.0,0.0,0.0,0.0,0.0,0.0,0.0,0.0,0.0,0.0,0.0,-8.8197,-8.7842,0.0,0.0,0.0,0.0,-8.6619,-8.4996,-8.3586,-8.2547,-8.0877,-7.9939,-7.9939,-7.9015,-7.8515,-7.8438,-7.8477,-7.8477,-7.8438,-7.8477,-7.8092,-7.74,-7.813,-7.8092,-7.74,-7.8207,-7.8515,-7.8631,-8.0439,-8.0669,-8.0108,-8.1801,-8.3455,-8.4725,-8.3028,-8.3418,-8.4549,0.0,0.0,0.0,0.0,0.0,0.0,0.0,0.0,0.0,0.0,0.0,0.0,0.0,0.0,0.0,0.0,0.0,0.0,0.0,0.0,0.0,0.0,0.0,0.0,0.0,0.0,-9.5152,-9.5931,-9.4726,-9.4711,-9.5826,-9.5928,-9.6112,-9.642,-9.642,-9.6437,-9.6454,-9.6411,-9.6446,-9.6542,-9.6645,-9.7006,0.0,0.0,0.0,0.0,0.0,0.0,0.0,0.0,0.0,0.0,0.0,0.0,0.0,0.0,0.0,0.0,0.0,0.0,0.0,0.0,0.0,0.0,0.0,0.0,0.0,0.0,0.0,0.0,0.0,0.0,0.0,0.0,0.0,0.0,0.0,0.0,0.0,-8.9525,-8.8691,0.0,-8.7429,-8.6939,-8.5799,-8.3849,-8.2162,-8.1084,-8.0708,-7.9092,-7.8707,-7.9785,-7.8938,-7.8246,-7.7707,-7.8246,-7.8246,-7.7707,-7.8246,-7.8092,-7.7323,-7.7592,-7.7284,-7.6515,-7.7361,-7.74,-7.7015,-7.8707,-7.8938,-7.8284,-7.94,-8.0208,-8.0823,-8.133,-8.2199,-8.3176,0.0,0.0,0.0,0.0,0.0,0.0,0.0,0.0,0.0,0.0,0.0,0.0,0.0,0.0,0.0,0.0,0.0,0.0,0.0,0.0,0.0,0.0,0.0,0.0,0.0,-9.5528,-9.4951,-9.5511,-9.517,-9.5441,-9.6288,-9.6288,-9.6288,-9.6288,-9.6288,-9.6288,-9.6288,-9.6288,-9.6168,-9.5983,-9.5709,-9.612,-9.6743,0.0,0.0,0.0,0.0,0.0,0.0,0.0,0.0,0.0,0.0,0.0,0.0,0.0,0.0,0.0,0.0,0.0,0.0,0.0,0.0,0.0,0.0,0.0,0.0,0.0,0.0,0.0,0.0,0.0,0.0,0.0,0.0,0.0,0.0,-9.034,-8.9474,-8.9423,-8.8374,-8.74,-8.6826,-8.5769,-8.4421,-8.2803,-8.0907,-7.9823,-7.9823,-7.8477,-7.8207,-7.9323,-7.9092,-7.8669,-7.813,-7.8938,-7.9092,-7.8592,-7.8823,-7.8669,-7.813,-7.7553,-7.713,-7.6823,-7.6861,-7.6707,-7.6515,-7.7323,-7.7323,-7.6976,-7.8054,-7.8477,-7.8707,-8.0477,-8.1439,-8.1977,0.0,0.0,0.0,0.0,0.0,0.0,0.0,0.0,0.0,0.0,0.0,0.0,0.0,0.0,0.0,0.0,0.0,0.0,0.0,0.0,0.0,0.0,0.0,0.0,0.0,-9.4352,-9.3876,-9.3749,-9.4595,-9.548,-9.6288,-9.6288,-9.6288,-9.6288,-9.6288,-9.6326,-9.6326,-9.6326,-9.5826,-9.5152,-9.6012,-9.6459,-9.6599,0.0,0.0,0.0,0.0,0.0,0.0,0.0,0.0,0.0,0.0,0.0,0.0,0.0,0.0,0.0,0.0,0.0,0.0,0.0,0.0,0.0,0.0,0.0,0.0,0.0,0.0,0.0,0.0,0.0,0.0,0.0,0.0,0.0,-8.9606,-8.8494,-8.7731,-8.7542,-8.6692,-8.6086,-8.6077,-8.4472,-8.3495,-8.3555,-8.1246,-7.9862,-7.9862,-7.9015,-7.8554,-7.8592,-7.94,-7.9823,-7.9823,-8.0669,-8.1093,-8.1054,-8.0246,-7.9823,-7.9746,-7.8092,-7.7746,-7.8361,-7.6707,-7.6476,-7.7169,-7.6361,-7.6015,-7.6169,-7.7784,-7.8438,-7.8669,-8.0362,-8.1016,-8.1016,0.0,0.0,0.0,0.0,0.0,0.0,0.0,0.0,0.0,0.0,0.0,0.0,0.0,0.0,0.0,0.0,0.0,0.0,0.0,0.0,0.0,0.0,0.0,0.0,0.0,0.0,0.0,0.0,0.0,0.0,0.0,0.0,0.0,0.0,0.0,-9.6634,-9.7134,-9.6557,-9.6519,-9.6711,-9.5786,-9.5833,-9.6448,0.0,0.0,0.0,0.0,0.0,0.0,0.0,0.0,0.0,0.0,0.0,0.0,0.0,0.0,0.0,0.0,0.0,0.0,0.0,0.0,0.0,0.0,0.0,0.0,0.0,0.0,0.0,0.0,0.0,0.0,0.0,-8.8872,-8.961,-8.9304,-8.9384,-8.92,-8.8591,-8.8177,-8.7462,-8.6209,-8.5099,-8.3984,-8.2747,-8.1477,-8.0746,-8.0746,-7.9939,-7.9746,-8.0362,-8.0631,-8.0439,-7.9823,-8.0669,-8.0785,-8.0169,-8.0554,-8.04,-7.9746,-7.8669,-7.7977,-7.7553,-7.6476,-7.613,-7.6322,-7.6092,-7.6015,-7.6053,-7.6515,-7.7053,-7.7669,-7.8169,-7.8707,-7.9208,0.0,0.0,0.0,0.0,0.0,0.0,0.0,0.0,0.0,0.0,0.0,0.0,0.0,0.0,0.0,0.0,0.0,0.0,0.0,0.0,0.0,0.0,0.0,0.0,0.0,0.0,0.0,0.0,0.0,0.0,0.0,0.0,0.0,0.0,0.0,0.0,0.0,0.0,0.0,-9.7403,-9.6057,-9.6109,-9.6905,-9.6018,-9.6294,-9.6947,-9.5292,-9.5331,-9.5831,-9.3794,0.0,0.0,0.0,0.0,0.0,0.0,0.0,0.0,0.0,0.0,0.0,0.0,0.0,0.0,0.0,0.0,0.0,0.0,0.0,0.0,0.0,0.0,0.0,0.0,-8.8601,-8.9945,-9.0163,-9.0196,-9.0001,-8.9542,-8.9511,-8.8971,-8.7616,-8.6616,-8.5526,-8.4175,-8.3202,-8.2516,-8.217,-8.167,-8.1631,-8.2131,-8.1785,-8.1362,-8.0862,-8.1016,-8.0862,-8.0362,-8.0862,-8.0823,-8.0323,-7.9438,-7.8977,-7.8823,-7.7592,-7.7246,-7.7553,-7.6823,-7.6553,0.0,0.0,0.0,0.0,0.0,-7.7284,-7.7938,0.0,0.0,0.0,0.0,0.0,0.0,0.0,0.0,0.0,0.0,0.0,0.0,0.0,0.0,0.0,0.0,0.0,0.0,0.0,0.0,0.0,0.0,0.0,0.0,0.0,0.0,0.0,0.0,0.0,0.0,0.0,0.0,0.0,0.0,0.0,0.0,0.0,0.0,0.0,0.0,0.0,0.0,-9.757,-9.68,-9.7045,-9.7594,-9.604,-9.557,-9.5563,-9.5,0.0,0.0,0.0,0.0,0.0,0.0,0.0,0.0,0.0,0.0,0.0,0.0,0.0,0.0,0.0,0.0,0.0,0.0,0.0,0.0,0.0,0.0,0.0,0.0,-8.9099,-9.1052,-9.1808,-9.1369,-9.0916,-9.0778,-9.083,-9.0617,-8.9908,-8.8738,-8.7665,-8.6853,-8.5733,-8.468,-8.3785,-8.3632,0.0,0.0,0.0,-8.2401,-8.2285,-8.1593,-8.1246,-8.1246,-8.1131,-8.1208,-8.1362,-8.0285,-8.0285,-8.1016,-7.9246,-7.8938,-7.9554,-7.8054,-7.7361,-7.7207,-7.6322,-7.6015,-7.6015,-7.6015,-7.6476,-7.7053,0.0,0.0,0.0,0.0,0.0,0.0,0.0,0.0,0.0,0.0,0.0,0.0,0.0,0.0,0.0,0.0,0.0,0.0,0.0,0.0,0.0,0.0,0.0,0.0,0.0,0.0,0.0,0.0,0.0,0.0,0.0,0.0,0.0,0.0,0.0,0.0,0.0,0.0,0.0,0.0,0.0,0.0,-9.7518,-9.7364,-9.7402,-9.7421,-9.6476,-9.6515,-9.6926,-9.585,-9.5979,-9.6523,-9.6242,0.0,0.0,0.0,0.0,0.0,0.0,0.0,0.0,0.0,0.0,0.0,0.0,0.0,0.0,0.0,0.0,0.0,0.0,0.0,0.0,-8.8149,-9.0228,-9.236,-9.3764,-9.4559,-9.4673,-9.3794,-9.3082,-9.2641,-9.2485,-9.1011,-8.9605,-8.8595,-8.7062,-8.5727,-8.4686,-8.3978,-8.3593,-8.3593,-8.3439,-8.3016,-8.2324,-8.2131,-8.2054,-8.2054,0.0,0.0,-8.3016,-8.0823,-8.0285,-8.1016,-7.9246,-7.8592,-7.8707,-7.84,-7.79,-7.7207,-7.6322,-7.6015,-7.6015,-7.6015,-7.6092,-7.6245,0.0,0.0,0.0,0.0,0.0,0.0,0.0,0.0,0.0,0.0,0.0,0.0,0.0,0.0,0.0,0.0,0.0,0.0,0.0,0.0,0.0,0.0,0.0,0.0,0.0,0.0,0.0,0.0,0.0,0.0,0.0,0.0,0.0,0.0,0.0,0.0,0.0,0.0,0.0,0.0,0.0,0.0,-9.8711,-9.7827,-9.7788,-9.8096,-9.7711,-9.7827,-9.8089,-9.7759,-9.7946,-9.8298,-9.8348,-9.8085,-9.7382,0.0,0.0,0.0,0.0,0.0,0.0,0.0,0.0,0.0,0.0,0.0,0.0,0.0,0.0,-8.9172,-8.8742,0.0,-8.9449,-8.9657,-9.1826,-9.3915,-9.5135,-9.6123,-9.6373,-9.5401,-9.5036,-9.4684,-9.4255,-9.2908,-9.1658,-9.0703,-8.8861,-8.732,-8.6356,-8.5375,-8.4863,-8.4863,-8.4478,-8.4055,-8.3593,-8.317,-8.2939,-8.2939,-8.2554,-8.2785,-8.3516,-8.1823,-8.1285,-8.1631,-8.0785,-8.0169,-7.9785,-7.9323,-7.8669,-7.7861,-7.74,-7.7015,-7.6707,-7.7092,-7.7246,-7.7169,0.0,0.0,0.0,0.0,0.0,0.0,0.0,0.0,0.0,0.0,0.0,0.0,0.0,0.0,0.0,0.0,0.0,0.0,0.0,0.0,0.0,0.0,0.0,0.0,0.0,0.0,0.0,0.0,0.0,0.0,0.0,0.0,0.0,0.0,0.0,0.0,0.0,0.0,0.0,0.0,0.0,0.0,-10.0212,-9.8596,-9.8442,-9.9058,-9.9058,-9.8827,-9.8667,-9.9279,-9.9347,-9.9233,-9.9968,-9.9725,-9.8788,-9.6756,-9.4991,0.0,0.0,0.0,0.0,0.0,0.0,0.0,0.0,0.0,-8.9025,-8.9107,-8.9449,-8.9726,-8.9726,-9.0273,-9.0974,-9.1712,-9.381,-9.5606,-9.6312,-9.7327,-9.7636,-9.6777,-9.6709,-9.6445,-9.5742,-9.4706,-9.365,-9.262,-9.0725,-8.9077,-8.7783,-8.6868,-8.6329,-8.6094,-8.5478,-8.5055,-8.4901,-8.4209,-8.3939,-8.4093,-8.3747,-8.3862,-8.4286,-8.3093,-8.2631,-8.2785,-8.2631,-8.2093,-8.1285,-8.0592,-7.9669,-7.8746,-7.8938,-7.8515,-7.7823,-7.8323,-7.8477,-7.8361,0.0,0.0,0.0,0.0,0.0,0.0,0.0,0.0,0.0,0.0,0.0,0.0,0.0,0.0,0.0,0.0,0.0,0.0,0.0,0.0,0.0,0.0,0.0,0.0,0.0,0.0,0.0,0.0,0.0,0.0,0.0,0.0,0.0,0.0,0.0,0.0,0.0,0.0,0.0,0.0,0.0,0.0,-10.1096,-10.0212,-9.9865,-9.9942,-9.9942,-9.8942,-9.7804,-9.8878,-9.8357,-9.7602,-9.9377,-9.9888,-9.9201,-9.6207,0.0,-9.3454,-8.9519,-8.8215,-8.7779,-8.6876,-8.7836,-8.8649,0.0,0.0,-9.1754,-9.113,-9.2226,-9.332,-9.332,-9.3398,-9.375,-9.4608,-9.621,-9.7421,-9.7499,-9.8944,-9.9647,-9.8788,-9.8007,-9.7539,-9.7422,-9.6679,-9.542,-9.3599,-9.2515,-9.0695,-8.7846,-8.7591,-8.7069,-8.6149,-8.6017,-8.5632,-8.4901,-8.4786,-8.5132,-8.5786,-8.4324,-8.4786,-8.6901,-8.4516,-8.3862,-8.4555,-8.3785,-8.2939,-8.217,-8.2054,-8.1093,-7.9746,-8.0516,-8.0285,-7.9438,-7.8746,-7.8477,-7.8361,0.0,0.0,0.0,0.0,0.0,0.0,0.0,0.0,0.0,0.0,0.0,0.0,0.0,0.0,0.0,0.0,0.0,0.0,0.0,0.0,0.0,0.0,0.0,0.0,0.0,0.0,0.0,0.0,0.0,0.0,0.0,0.0,0.0,0.0,0.0,0.0,0.0,0.0,0.0,0.0,0.0,0.0,-10.202,-10.1096,-10.1096,-10.1385,-10.0498,-9.9109,0.0,0.0,-9.8244,-9.7341,-9.9678,-9.9878,-9.8812,-9.6929,-9.5173,0.0,-8.9701,-8.7926,-8.7167,0.0,-8.8427,-8.8983,-8.8894,-9.0441,-9.202,-9.2482,-9.3171,-9.3886,-9.4531,-9.5469,-9.6211,-9.6601,-9.8086,-9.9219,-9.9219,-9.9844,-9.9961,-9.9101,-9.8672,-9.8476,-9.8476,-9.7265,-9.6171,-9.534,-9.343,-9.1754,-9.0446,-8.9144,-8.8017,-8.7055,-8.7417,-8.7209,-8.6363,-8.6863,-8.7286,-8.7594,-8.6901,-8.7132,-8.8094,-8.6017,-8.5016,-8.4863,-8.3978,-8.367,-8.3747,-8.2708,-8.19,-8.1246,-8.1131,-8.09,-8.0516,-8.0131,-8.0015,-7.9823,0.0,0.0,0.0,0.0,0.0,0.0,0.0,0.0,0.0,0.0,0.0,0.0,0.0,0.0,0.0,0.0,0.0,0.0,0.0,0.0,0.0,0.0,0.0,0.0,0.0,0.0,0.0,0.0,0.0,0.0,0.0,0.0,0.0,0.0,0.0,0.0,0.0,0.0,0.0,0.0,0.0,0.0,-10.3097,-10.1789,-10.1905,-10.2386,-10.0609,-9.8948,0.0,0.0,-9.7402,-9.6582,-9.8545,-9.8584,-9.76,-9.6025,-9.4003,-9.1879,-8.9694,0.0,0.0,-8.9244,-8.987,-9.0381,-9.0867,-9.2031,-9.327,-9.4283,-9.4875,-9.5516,-9.6354,-9.7537,-9.8515,-9.875,-9.9844,-10.0703,-10.0703,-10.0703,-10.0312,-9.9453,-9.914,-9.8984,-9.8984,-9.7695,-9.6758,-9.6523,-9.4398,-9.288,-9.2346,-9.0496,-8.9031,-8.8093,-8.8491,-8.8402,-8.7748,-8.8363,-8.8786,-8.9017,-8.8843,-8.8881,-8.8979,-8.7248,-8.6132,-8.5555,-8.467,-8.4516,-8.4786,-8.3285,-8.2516,-8.2208,-8.14,-8.1093,-8.1093,-8.1093,-8.0939,-8.0516,0.0,0.0,0.0,0.0,0.0,0.0,0.0,0.0,0.0,0.0,0.0,0.0,0.0,0.0,0.0,0.0,0.0,0.0,0.0,0.0,0.0,0.0,0.0,0.0,0.0,0.0,0.0,0.0,0.0,0.0,0.0,0.0,0.0,0.0,0.0,0.0,0.0,0.0,0.0,0.0,0.0,0.0,-10.4789,-10.2289,-10.1904,-10.2514,-9.9879,0.0,0.0,0.0,-9.5179,-9.4723,-9.4903,-9.5426,0.0,-9.2284,-9.0437,0.0,0.0,0.0,-9.2233,-9.1424,-9.2589,-9.3734,-9.2896,-9.4851,-9.6828,-9.6886,-9.8389,-9.9705,-9.9748,-9.998,-10.0508,-10.1289,-10.1484,-10.1601,-10.1601,-10.1601,-10.1211,-10.039,-9.9492,-9.8984,0.0,-9.8203,-9.7344,-9.6562,-9.5625,-9.4289,-9.2389,-9.1183,-9.0052,-8.8984,-8.8799,-8.8671,-8.8671,-8.8671,-8.9094,-8.9863,-8.9286,-8.9311,-8.9825,-8.8132,-8.7363,-8.7286,-8.6401,-8.5593,-8.4824,-8.3939,-8.3054,-8.2208,-8.14,-8.1093,-8.1093,-8.1093,-8.0554,-7.9708,0.0,0.0,0.0,0.0,0.0,0.0,0.0,0.0,0.0,0.0,0.0,0.0,0.0,0.0,0.0,0.0,0.0,0.0,0.0,0.0,0.0,0.0,0.0,0.0,0.0,0.0,0.0,0.0,0.0,0.0,0.0,0.0,0.0,0.0,0.0,0.0,0.0,0.0,0.0,0.0,0.0,0.0,-10.481,-10.1807,-10.1514,-10.2202,0.0,0.0,0.0,0.0,0.0,0.0,-9.388,0.0,0.0,-9.1186,0.0,0.0,0.0,0.0,-9.3431,-9.3705,-9.5084,-9.6288,-9.5979,-9.7099,-9.8238,-9.8401,-9.7275,-9.6323,-9.6466,-9.7174,-9.8007,-9.8866,-10.1406,-10.3515,-10.4101,-10.4219,-10.3398,-10.1406,-10.0898,0.0,0.0,0.0,0.0,-9.7304,-9.5976,-9.4921,-9.425,-9.2615,-9.1176,-9.0101,-9.0366,-9.0234,-8.9517,-9.0056,-9.0479,-9.0748,-9.0554,-9.035,-9.0122,-8.9382,-8.844,-8.7363,-8.7094,-8.6478,-8.5593,-8.417,-8.3439,-8.3016,-8.1631,-8.1093,-8.1093,-8.1093,-8.0554,-7.9669,0.0,0.0,0.0,0.0,0.0,0.0,0.0,0.0,0.0,0.0,0.0,0.0,0.0,0.0,0.0,0.0,0.0,0.0,0.0,0.0,0.0,0.0,0.0,0.0,0.0,0.0,0.0,0.0,0.0,0.0,0.0,0.0,0.0,0.0,0.0,0.0,0.0,0.0,0.0,0.0,0.0,0.0,-10.5216,-10.1722,-10.0899,0.0,0.0,0.0,0.0,0.0,0.0,0.0,0.0,0.0,0.0,0.0,0.0,0.0,0.0,-9.4348,-9.5322,-9.6152,-9.7403,-9.8442,-9.8442,-9.9327,-10.0114,-9.9972,-9.769,-9.5742,-9.557,-9.5287,-9.5623,-9.742,-9.9804,-10.2304,-10.4687,-10.4219,-10.3203,-10.2187,-10.1484,-10.039,0.0,0.0,0.0,-9.7304,-9.6289,-9.539,-9.4765,-9.3403,-9.2222,-9.1183,-9.1395,-9.116,-9.0481,-9.0933,-9.1286,-9.1427,-9.1369,-9.1156,-9.0834,-9.0219,-8.9325,-8.8248,-8.7671,-8.7094,-8.644,-8.4747,-8.3862,-8.3439,-8.2054,-8.1362,-8.1093,-8.1093,-8.0554,-7.9669,0.0,0.0,0.0,0.0,0.0,0.0,0.0,0.0,0.0,0.0,0.0,0.0,0.0,0.0,0.0,0.0,0.0,0.0,0.0,0.0,0.0,0.0,0.0,0.0,0.0,0.0,0.0,0.0,0.0,0.0,0.0,0.0,0.0,0.0,0.0,0.0,0.0,0.0,0.0,0.0,0.0,0.0,-10.6004,-10.1903,0.0,0.0,0.0,0.0,0.0,0.0,0.0,0.0,0.0,0.0,0.0,0.0,0.0,-9.4238,-9.5186,-9.6569,-9.7942,-9.8788,-9.9635,-10.0289,-10.0212,-10.1481,-10.2289,-10.1404,-9.944,-9.7635,0.0,0.0,-9.375,-9.7263,-9.7382,-9.8789,-10.3789,-10.2383,-10.1289,-10.289,-10.1484,-10.0117,-9.9101,-9.8945,0.0,-9.6601,0.0,-9.5742,-9.4062,-9.3679,-9.3119,-9.2208,-9.1762,-9.1515,-9.1475,-9.1329,-9.1441,-9.1893,-9.1638,-9.1649,-9.1867,-9.0557,-8.9923,-8.9825,-8.8171,-8.744,-8.7286,-8.5593,-8.4401,-8.3555,-8.267,-8.1823,-8.117,-8.1124,-8.0585,-7.9738,0.0,0.0,0.0,0.0,0.0,0.0,0.0,0.0,0.0,0.0,0.0,0.0,0.0,0.0,0.0,0.0,0.0,0.0,0.0,0.0,0.0,0.0,0.0,0.0,0.0,0.0,0.0,0.0,0.0,0.0,0.0,0.0,0.0,0.0,0.0,0.0,0.0,0.0,0.0,0.0,0.0,0.0,-10.3619,0.0,0.0,0.0,0.0,0.0,0.0,0.0,0.0,0.0,0.0,0.0,-9.3059,0.0,0.0,-9.6288,-9.8284,-10.0019,-10.1404,-10.1597,-10.2289,-10.2789,-10.2097,-10.2289,-10.2212,-10.0712,-9.6704,-9.3764,0.0,0.0,0.0,-9.8865,-10.2109,0.0,-10.8515,-10.7812,0.0,-10.5,-10.3281,-10.1406,-9.9219,-9.8398,0.0,0.0,-9.6484,-9.6015,-9.4922,-9.4177,-9.3238,-9.2012,-9.1849,-9.1653,-9.1264,-9.1392,-9.1684,-9.2128,-9.17,-9.1649,-9.1867,-9.1175,-9.0517,-8.9863,-8.8825,-8.7979,-8.7286,-8.5593,-8.4786,-8.4439,-8.2901,-8.217,-8.1932,-8.149,-8.1169,-8.082,0.0,0.0,0.0,0.0,0.0,0.0,0.0,0.0,0.0,0.0,0.0,0.0,0.0,0.0,0.0,0.0,0.0,0.0,0.0,0.0,0.0,0.0,0.0,0.0,0.0,0.0,0.0,0.0,0.0,0.0,0.0,0.0,0.0,0.0,0.0,0.0,0.0,0.0,0.0,0.0,0.0,0.0,0.0,0.0,0.0,0.0,0.0,0.0,0.0,0.0,0.0,-9.6143,-9.5177,-9.5902,-9.711,-9.6938,0.0,-9.8977,-10.0693,-10.1904,-10.2712,-10.3097,-10.3482,-10.3386,-10.15,-10.1285,-10.0698,-9.7639,-9.3714,0.0,-9.2446,-9.1694,0.0,0.0,0.0,0.0,-10.8906,-10.8398,-10.7187,0.0,-10.4492,0.0,-9.9804,-9.914,-9.8359,0.0,-9.7031,-9.6484,-9.5273,-9.5117,-9.4472,-9.3192,-9.3055,-9.2649,-9.1933,-9.2496,-9.2762,-9.2763,-9.2503,-9.2393,-9.245,-9.1668,-9.1011,-9.0441,0.0,-8.8748,-8.7863,-8.6555,-8.5555,-8.4747,-8.3401,-8.2631,-8.2217,-8.1633,-8.1407,-8.1181,0.0,0.0,0.0,0.0,0.0,0.0,0.0,0.0,0.0,0.0,0.0,0.0,0.0,0.0,0.0,0.0,0.0,0.0,0.0,0.0,0.0,0.0,0.0,0.0,0.0,0.0,0.0,0.0,0.0,0.0,0.0,0.0,0.0,0.0,0.0,0.0,0.0,0.0,0.0,0.0,0.0,0.0,0.0,0.0,0.0,0.0,0.0,0.0,0.0,0.0,-9.9542,-9.9642,-9.9509,-10.098,-10.2405,-10.0398,-10.0787,-10.2212,-10.302,-10.3289,-10.3482,-10.4212,-10.4212,-10.3175,-9.9761,-9.9635,-9.8753,-9.3556,0.0,-8.9682,-9.0513,-8.9749,-9.1047,-9.7405,0.0,-10.2811,-10.8008,-10.7109,-10.6211,-10.6797,-10.5195,-10.3008,-10.0508,-10.0117,-9.9336,-9.7812,-9.7695,-9.7031,-9.5469,-9.6094,-9.5965,-9.4768,-9.4512,-9.3946,-9.3013,-9.3979,-9.4205,-9.3724,-9.3673,-9.3515,-9.3168,-9.2142,-9.1499,-9.1171,-9.0287,-8.944,-8.8632,-8.7748,-8.6401,-8.4824,-8.3939,-8.3054,-8.2232,-8.1644,-8.1436,-8.1247,0.0,0.0,0.0,0.0,0.0,0.0,0.0,0.0,0.0,0.0,0.0,0.0,0.0,0.0,0.0,0.0,0.0,0.0,0.0,0.0,0.0,0.0,0.0,0.0,0.0,0.0,0.0,0.0,0.0,0.0,0.0,0.0,0.0,0.0,0.0,0.0,0.0,0.0,0.0,0.0,0.0,0.0,0.0,0.0,0.0,0.0,0.0,0.0,0.0,0.0,-10.1511,-10.2925,-10.2174,-10.2809,-10.3674,-10.3983,-10.4694,-10.5713,-10.6597,-10.679,-10.6905,-10.6982,-10.5982,-10.3906,-9.9915,-9.9172,0.0,0.0,-8.9108,-8.9235,-9.1198,-9.0982,-9.3447,-10.2304,-10.3995,-10.6099,-11.1484,-11.0195,-10.8398,0.0,-10.5,-10.2383,-10.0508,-9.8984,0.0,0.0,-9.7695,-9.7265,-9.6328,-9.6406,-9.5871,-9.4512,-9.4252,-9.4156,-9.4096,-9.4524,-9.4782,-9.4919,-9.4682,-9.41,-9.3207,-9.2763,-9.2054,-9.1171,-9.0287,0.0,-8.8632,-8.7748,-8.6401,-8.4824,-8.3939,-8.3054,-8.2263,-8.1804,-8.167,-8.1563,0.0,0.0,0.0,0.0,0.0,0.0,0.0,0.0,0.0,0.0,-10.3298,0.0,0.0,0.0,0.0,0.0,0.0,0.0,0.0,0.0,0.0,0.0,0.0,0.0,0.0,0.0,0.0,0.0,0.0,0.0,0.0,0.0,0.0,0.0,0.0,0.0,0.0,0.0,0.0,0.0,0.0,0.0,0.0,0.0,0.0,0.0,0.0,0.0,0.0,0.0,-10.2825,-10.4598,-10.3694,-10.4484,-10.5887,-10.5909,-10.6409,-10.729,-10.8098,-10.829,-10.829,-10.829,-10.6713,-10.3811,-9.8972,0.0,0.0,0.0,-8.6322,-8.662,-8.8934,-8.9228,0.0,-9.7967,-9.9924,0.0,0.0,-10.6992,0.0,-10.7187,-10.5117,-10.2695,-10.0508,-9.914,-9.8203,-9.7734,-9.7695,-9.7539,-9.7148,-9.6872,-9.6434,-9.5776,-9.5529,-9.5285,-9.5096,-9.5777,-9.6055,-9.5859,-9.5734,-9.5261,-9.4492,-9.3472,-9.2586,-9.1825,-9.0941,-8.9863,-8.8671,-8.8248,-8.7055,-8.544,-8.4593,-8.4081,-8.3707,-8.2718,-8.2447,-8.2401,0.0,0.0,0.0,0.0,0.0,0.0,0.0,0.0,-10.1589,-10.3104,-10.3492,-10.3609,-10.3609,-10.392,0.0,0.0,0.0,0.0,0.0,0.0,0.0,0.0,0.0,0.0,0.0,0.0,0.0,0.0,0.0,0.0,0.0,0.0,0.0,0.0,0.0,0.0,0.0,0.0,0.0,0.0,0.0,0.0,0.0,0.0,0.0,0.0,0.0,0.0,0.0,0.0,-10.3304,-10.4597,-10.3602,-10.5118,-10.72,-10.6699,-10.7085,-10.8006,-10.8927,-10.9213,-10.9213,-10.9213,-10.729,-10.3906,-9.8113,-9.5689,0.0,0.0,-8.4007,-8.4324,-8.5937,-8.6705,-8.8453,0.0,-9.4511,0.0,0.0,0.0,0.0,0.0,-10.5,0.0,-10.0508,-9.9336,0.0,-9.7734,-9.7695,-9.7695,-9.7652,-9.7214,-9.6984,-9.6934,-9.6769,-9.647,-9.5991,-9.6976,-9.724,-9.6758,-9.6758,-9.64,-9.5659,-9.4336,-9.3294,-9.2441,-9.1814,-9.0593,-8.9013,-8.882,-8.7741,-8.6084,-8.526,-8.4951,-8.4785,-8.3749,-8.3309,-8.3139,0.0,0.0,0.0,0.0,0.0,0.0,0.0,0.0,-10.1317,-10.2288,-10.3104,-10.3609,-10.3609,-10.5007,0.0,0.0,0.0,0.0,0.0,0.0,0.0,0.0,0.0,0.0,0.0,0.0,0.0,0.0,0.0,0.0,0.0,0.0,0.0,0.0,0.0,0.0,0.0,0.0,0.0,0.0,0.0,0.0,0.0,0.0,0.0,0.0,0.0,0.0,0.0,0.0,0.0,-10.2105,-10.1177,-10.3195,-10.5911,-10.6387,0.0,0.0,-10.9699,-11.0098,-11.0098,-11.0098,-10.8213,-10.46,-9.8268,0.0,0.0,-8.4097,-8.3545,-8.443,-8.3548,-8.473,-8.7292,0.0,0.0,-9.5048,0.0,0.0,0.0,0.0,0.0,0.0,-10.0508,-9.8789,-9.7773,-9.7695,-9.7695,-9.7611,-9.7429,-9.7145,-9.6903,-9.6656,-9.686,-9.6945,-9.6895,-9.7412,-9.7656,-9.7578,-9.7578,-9.6947,-9.5698,-9.5542,-9.438,-9.2497,-9.2619,-9.1694,0.0,-8.9307,-8.7965,-8.6378,-8.5513,-8.4686,-8.4056,-8.4338,-8.3978,-8.3295,0.0,0.0,0.0,0.0,0.0,0.0,0.0,0.0,-10.1006,-10.2793,-10.2909,-10.2987,-10.3492,-10.4697,0.0,0.0,0.0,0.0,0.0,0.0,0.0,0.0,0.0,0.0,0.0,0.0,-11.3282,-11.4603,-11.4914,0.0,0.0,0.0,0.0,0.0,0.0,0.0,0.0,0.0,0.0,0.0,0.0,0.0,0.0,0.0,0.0,0.0,0.0,0.0,0.0,0.0,0.0,0.0,-9.9126,-9.9475,0.0,0.0,-10.5307,-10.6912,-10.9507,-11.0598,-11.0983,-11.0983,-10.8713,-10.4985,-9.9643,0.0,0.0,-8.5815,-8.3816,-8.3227,-8.3259,-8.298,-8.3698,0.0,0.0,0.0,0.0,0.0,0.0,0.0,-10.1601,0.0,0.0,0.0,-9.7695,-9.7695,-9.7695,-9.7557,-9.716,-9.7065,-9.6893,-9.6602,-9.6871,-9.7012,-9.7012,-9.7457,-9.7695,-9.7695,-9.7695,-9.7259,-9.6467,-9.5932,-9.5173,-9.4203,-9.3228,-9.221,0.0,-9.0343,-8.9294,-8.8167,-8.7302,-8.6813,-8.648,-8.5629,-8.5189,-8.4912,0.0,0.0,0.0,0.0,0.0,0.0,-10.0617,-10.0501,-10.1006,-10.3298,-10.3104,-10.2909,-10.3492,0.0,0.0,0.0,0.0,0.0,0.0,0.0,0.0,0.0,0.0,0.0,0.0,0.0,-11.3399,-11.5108,-11.5108,-11.5897,0.0,0.0,-11.7489,-11.7084,0.0,0.0,0.0,0.0,0.0,0.0,0.0,0.0,0.0,0.0,0.0,0.0,0.0,0.0,0.0,0.0,0.0,0.0,0.0,0.0,0.0,0.0,-10.3387,-10.5405,-10.8891,-11.0598,-11.1522,-11.1522,-10.8816,-10.5013,0.0,0.0,0.0,-8.7038,-8.4405,-8.2944,-8.2991,-8.2,-8.148,0.0,0.0,-8.6066,0.0,0.0,0.0,0.0,0.0,-9.7773,-9.7539,-9.7617,-9.7695,-9.7695,-9.7695,-9.7516,-9.713,-9.6815,-9.6621,-9.6602,-9.6871,-9.7048,-9.7115,-9.7508,-9.7695,-9.7695,-9.7652,-9.7386,-9.6973,-9.6273,-9.5771,-9.5324,-9.4175,-9.3151,0.0,-9.1442,-9.0624,-8.9806,-8.8902,-8.8506,-8.824,-8.7098,-8.6471,-8.6015,0.0,0.0,0.0,0.0,0.0,0.0,0.0,0.0,-10.1589,0.0,0.0,0.0,0.0,0.0,0.0,0.0,0.0,0.0,0.0,0.0,0.0,0.0,0.0,0.0,0.0,0.0,-11.3399,-11.5108,-11.5108,-11.6001,-11.7711,-11.7711,-11.7206,-11.639,0.0,0.0,0.0,0.0,0.0,0.0,0.0,0.0,0.0,0.0,0.0,0.0,0.0,0.0,0.0,0.0,0.0,0.0,0.0,0.0,0.0,0.0,-10.1803,-10.4018,-10.7892,-11.0214,-11.1522,-11.1522,-10.851,-10.4489,0.0,0.0,0.0,-8.6956,-8.5244,-8.4122,-8.2337,-8.2005,-8.1734,-8.0968,0.0,0.0,0.0,0.0,0.0,0.0,0.0,-9.4883,-9.4023,-9.6211,-9.7695,-9.7695,-9.7695,0.0,-9.7416,-9.632,-9.5999,-9.6563,-9.6871,-9.7123,-9.7407,-9.7607,-9.7695,-9.7695,-9.7497,-9.7259,-9.7003,-9.672,-9.6176,-9.5415,-9.5599,-9.4832,0.0,-9.2611,-9.1757,-9.0894,-9.0035,-8.9177,-8.8408,-8.8588,-8.7617,-8.6211,0.0,0.0,0.0,0.0,0.0,0.0,0.0,0.0,0.0,0.0,0.0,0.0,0.0,0.0,0.0,0.0,0.0,0.0,0.0,0.0,0.0,0.0,0.0,0.0,0.0,0.0,-11.3399,-11.5108,-11.4486,-11.5108,-11.6817,-11.618,-11.5675,-11.5496,-11.4588,0.0,0.0,0.0,0.0,0.0,0.0,0.0,0.0,0.0,0.0,0.0,0.0,0.0,0.0,0.0,0.0,0.0,0.0,0.0,0.0,0.0,0.0,0.0,-10.24,-10.3992,-10.4918,-10.4918,-10.3491,-10.1182,-9.7062,0.0,0.0,-8.6839,-8.5278,-8.449,-8.3787,-8.3628,-8.412,-8.5579,0.0,0.0,0.0,0.0,0.0,-9.4297,-9.5898,-9.6797,0.0,0.0,-9.7695,-9.7695,-9.7695,-9.7609,-9.7416,-9.6865,-9.6663,-9.6893,-9.6391,-9.6538,-9.7407,-9.7607,-9.7695,-9.7695,-9.7652,-9.7386,-9.7012,-9.7099,-9.6901,-9.6476,-9.6125,-9.5816,-9.5421,-9.3976,-9.3234,-9.2843,-9.1359,-9.0617,-9.0306,-8.9765,-8.8867,-8.7812,0.0,0.0,0.0,0.0,0.0,0.0,0.0,0.0,0.0,0.0,0.0,0.0,0.0,0.0,0.0,0.0,0.0,0.0,0.0,0.0,0.0,0.0,0.0,0.0,-11.2583,-11.2311,-11.2894,-11.4603,-11.3787,-11.4098,-11.5419,-11.5223,-11.5107,-11.5108,-11.4097,-11.3903,0.0,0.0,0.0,0.0,0.0,0.0,-10.3997,0.0,0.0,0.0,0.0,0.0,0.0,0.0,0.0,0.0,0.0,0.0,0.0,0.0,0.0,0.0,0.0,-10.1416,-10.1919,-10.219,-10.0805,0.0,0.0,0.0,-9.042,-8.7116,-8.5765,-8.512,-8.4971,-8.465,-8.4913,-8.6502,0.0,0.0,0.0,0.0,0.0,-9.3709,0.0,0.0,0.0,-9.7344,-9.7695,-9.7695,-9.7695,-9.7653,-9.7505,-9.6965,-9.6862,-9.7238,-9.6562,-9.6614,-9.7503,-9.7652,-9.7695,-9.7695,-9.7516,-9.7288,-9.7012,-9.7074,-9.7065,-9.6982,-9.6719,-9.6565,0.0,-9.4961,-9.4219,-9.375,-9.2344,-9.1601,-9.1172,-9.0312,-8.9453,-8.8594,0.0,0.0,0.0,0.0,0.0,0.0,0.0,0.0,0.0,0.0,0.0,0.0,0.0,0.0,0.0,0.0,0.0,0.0,0.0,0.0,0.0,0.0,0.0,0.0,-11.2583,-11.1806,-11.2194,-11.3787,-11.2894,-11.2894,-11.3709,-11.4279,-11.4719,-11.4797,-11.4007,-11.4085,0.0,0.0,0.0,0.0,0.0,0.0,0.0,0.0,0.0,0.0,0.0,0.0,0.0,0.0,0.0,0.0,0.0,0.0,0.0,0.0,0.0,0.0,0.0,0.0,0.0,0.0,0.0,0.0,0.0,0.0,0.0,-8.7672,-8.6616,-8.6005,-8.5987,-8.5244,-8.4695,-8.4894,-8.8035,0.0,0.0,-9.0807,0.0,0.0,-9.2422,0.0,-9.5156,-9.6758,-9.7695,-9.7695,-9.7695,-9.7695,-9.7695,-9.6724,-9.668,-9.7656,-9.7277,-9.7226,-9.7695,-9.7695,-9.7695,-9.7695,-9.7226,-9.703,-9.7003,-9.6757,-9.678,0.0,-9.7283,-9.7079,0.0,-9.5547,-9.4687,-9.3828,-9.2929,-9.2109,-9.1289,-9.039,-8.9531,-8.8672,0.0,0.0,0.0,0.0,0.0,0.0,0.0,0.0,0.0,0.0,0.0,0.0,0.0,0.0,0.0,0.0,0.0,0.0,0.0,0.0,0.0,0.0,0.0,0.0,-11.2583,-11.2388,-11.2816,-11.3787,-11.1689,-11.1417,-11.2816,-11.1016,-11.0899,-11.2194,-11.1909,-11.2309,0.0,0.0,0.0,0.0,0.0,0.0,0.0,0.0,0.0,0.0,-10.0617,-9.9724,0.0,0.0,0.0,0.0,0.0,0.0,0.0,0.0,-9.3625,0.0,0.0,0.0,0.0,0.0,0.0,0.0,0.0,-8.9984,-8.9491,-8.7672,-8.711,-8.7131,-8.7746,-8.7136,-8.7159,-8.9019,-9.0478,-9.1053,-9.0165,-9.2158,-9.4089,-9.5156,-9.6015,-9.6406,-9.6211,-9.7109,-9.7695,-9.7695,-9.7695,-9.7695,-9.7695,-9.7307,-9.7262,-9.7695,-9.744,-9.7437,-9.7695,-9.7695,-9.7695,-9.7695,-9.7437,-9.7213,-9.7012,-9.7138,-9.713,-9.7039,-9.7448,-9.7185,-9.6445,-9.5547,-9.4687,-9.3828,-9.2929,-9.2461,-9.2187,-9.1328,-9.0429,-8.957,0.0,0.0,0.0,0.0,0.0,0.0,0.0,0.0,0.0,0.0,0.0,0.0,0.0,0.0,0.0,0.0,0.0,0.0,0.0,0.0,0.0,0.0,0.0,-11.1689,-11.2583,-11.2194,-11.2583,-11.3787,-11.0796,-11.0291,-11.2,-10.9708,-10.9786,-11.1883,-11.2581,-11.2708,-11.232,-11.0876,-10.9892,-10.899,-10.6392,0.0,0.0,0.0,0.0,0.0,-10.0695,-9.9802,0.0,-9.817,-9.7315,-9.6616,0.0,0.0,0.0,0.0,-9.4091,-9.3236,0.0,0.0,0.0,0.0,0.0,0.0,-8.899,0.0,-8.9023,-8.7646,-8.7329,-8.7438,-8.7873,-8.7862,-8.81,-8.9047,-9.071,0.0,0.0,0.0,-9.4413,-9.5742,-9.664,-9.7109,0.0,-9.7422,-9.7695,-9.7695,-9.7695,-9.7695,-9.7695,-9.7606,-9.7604,-9.7695,-9.7606,-9.7606,-9.7695,-9.7695,-9.7695,-9.7695,-9.7373,-9.722,-9.7167,-9.722,-9.722,-9.722,-9.7559,-9.7226,-9.6445,-9.5547,-9.4687,-9.3828,-9.2929,-9.2617,-9.25,-9.1601,-9.0742,-8.9883,0.0,0.0,0.0,0.0,0.0,0.0,0.0,0.0,0.0,0.0,0.0,0.0,0.0,0.0,0.0,0.0,0.0,0.0,0.0,0.0,0.0,0.0,0.0,-11.1689,-11.2583,-11.1612,-11.1883,-11.3399,-11.0096,-10.9397,-11.1106,-10.9281,-10.9902,-11.2505,-11.39,-11.3795,-11.2292,-11.1211,-11.0009,-10.8578,-10.6691,0.0,0.0,0.0,0.0,0.0,0.0,0.0,0.0,-9.7848,-9.6721,-9.5956,-9.6216,0.0,0.0,0.0,0.0,0.0,-9.1294,0.0,0.0,-9.1514,-9.0507,-8.9232,-8.8578,0.0,-8.8117,-8.7539,-8.7342,-8.7418,-8.7672,-8.8175,-8.8381,-8.7967,-9.0309,-9.2622,-9.3929,-9.4209,-9.4569,-9.5312,-9.6172,0.0,-9.7461,-9.7617,-9.7695,-9.7695,-9.7695,-9.7695,-9.7695,-9.7695,-9.7695,-9.7695,-9.7695,-9.7695,-9.7695,-9.7695,-9.7695,-9.7695,-9.7214,-9.713,-9.7407,-9.7115,-9.7138,-9.7416,0.0,0.0,-9.625,-9.5508,-9.4609,-9.3633,-9.289,-9.2617,-9.25,-9.1601,-9.0742,-8.9844,0.0,0.0,0.0,0.0,0.0,0.0,0.0,0.0,0.0,0.0,0.0,0.0,0.0,0.0,0.0,0.0,0.0,0.0,0.0,0.0,0.0,0.0,-11.1416,-11.1689,-11.2583,-11.099,-11.0718,-11.1689,-10.8892,-10.8504,-11.0213,-10.8387,-10.9009,-11.1495,-11.2386,-11.2602,-11.2219,-11.0515,-10.9585,-10.9189,-10.6812,0.0,0.0,0.0,0.0,0.0,0.0,0.0,0.0,-9.8073,-9.7192,-9.6139,-9.7569,0.0,0.0,0.0,0.0,0.0,-9.1449,-9.0849,-9.0594,-8.9354,-8.8335,-8.7599,-8.7577,-8.7022,-8.6668,-8.7296,-8.7375,-8.7843,-8.9322,-8.9088,-8.9127,-9.0488,-9.1716,-9.3509,-9.641,-9.6391,-9.6133,-9.6289,0.0,-9.7304,-9.6758,-9.7304,-9.7695,-9.7695,-9.7695,-9.7695,-9.7695,-9.7695,-9.7695,-9.7695,-9.7695,-9.7695,-9.7695,-9.7695,-9.7695,-9.7695,-9.7214,-9.713,-9.7407,-9.7115,-9.7138,-9.7416,0.0,-9.6836,-9.539,-9.5273,-9.4258,-9.2773,-9.2656,-9.2617,-9.25,-9.1601,-9.0742,-8.9765,0.0,0.0,0.0,0.0,0.0,0.0,0.0,0.0,0.0,0.0,0.0,0.0,0.0,0.0,0.0,0.0,0.0,0.0,0.0,0.0,0.0,-11.1309,-11.0896,-11.1209,-11.2491,-11.1275,-11.1301,-11.2699,-11.0096,-10.9514,-11.0718,-10.9902,-11.011,-11.1313,-11.2486,-11.2505,-11.1491,-11.0213,-10.9097,-10.8106,0.0,0.0,0.0,0.0,0.0,0.0,0.0,0.0,0.0,0.0,-9.6866,-9.6733,-9.7514,0.0,0.0,0.0,0.0,0.0,-9.1488,-9.0499,-9.0111,-8.9921,-8.8933,-8.8111,-8.8661,-8.8136,-8.7748,-8.8583,-8.8418,-8.8331,-8.9086,-9.0096,-9.1538,-9.3696,-9.4016,-9.4531,-9.6001,-9.5973,-9.5976,-9.6445,0.0,-9.707,-9.7148,-9.7461,-9.7695,-9.7695,-9.7695,-9.7695,-9.7695,-9.7695,-9.7695,-9.7695,-9.7695,-9.7695,-9.7695,-9.7695,-9.7653,-9.755,-9.7338,-9.7265,-9.7407,-9.7265,-9.7348,-9.7561,0.0,-9.6758,-9.5195,-9.5195,-9.4179,-9.2617,-9.2617,-9.2617,-9.2422,-9.1094,-9.0351,-8.9804,0.0,0.0,0.0,0.0,0.0,0.0,0.0,0.0,0.0,0.0,0.0,0.0,0.0,0.0,0.0,0.0,0.0,0.0,0.0,0.0,-11.0792,-11.0986,-11.0415,-11.0717,-11.2087,-11.1184,-11.1495,-11.3204,-11.1301,-11.0601,-11.1301,-11.1106,-11.112,-11.1286,-11.2302,-11.2103,-11.091,-10.9787,-10.8609,-10.7415,0.0,0.0,0.0,0.0,0.0,0.0,0.0,0.0,0.0,0.0,0.0,0.0,0.0,0.0,0.0,0.0,-9.5994,-9.414,-9.1488,-9.0314,-9.0029,-9.0896,-8.9844,-8.9058,-9.0806,-9.0357,-8.9888,-9.0928,-9.0328,-8.9651,-8.9794,-9.1507,-9.3615,-9.5735,-9.5778,-9.5584,-9.5742,-9.5781,-9.6015,-9.6719,-9.6797,-9.7031,-9.7656,-9.7695,-9.7695,-9.7695,-9.7695,-9.7695,-9.7695,-9.7695,-9.7695,-9.7695,-9.7695,-9.7695,-9.7695,-9.7695,-9.7611,-9.7487,-9.742,-9.7425,-9.7487,-9.742,-9.7503,-9.7695,-9.7695,-9.6758,-9.5195,-9.5195,-9.4179,-9.2617,-9.2617,-9.2617,-9.2383,-9.0625,-9.0117,-9.0117,0.0,0.0,0.0,0.0,0.0,0.0,0.0,0.0,0.0,0.0,0.0,0.0,0.0,0.0,0.0,0.0,0.0,0.0,0.0,0.0,-10.9293,-11.0096,-11.008,-11.0483,-11.1311,-10.9708,-10.9708,-11.1495,-11.1301,-11.1184,-11.1301,-11.0485,-11.0524,-11.1288,-11.0484,-11.0493,-11.0886,-10.9206,-10.8392,-10.8095,-10.7282,0.0,0.0,0.0,0.0,0.0,0.0,0.0,0.0,0.0,0.0,0.0,0.0,0.0,0.0,0.0,-9.5994,-9.414,-9.1488,-9.078,-9.0843,-9.1067,-8.9805,-8.9606,-9.3786,-9.3462,-9.2798,-9.4403,-9.3456,-9.2549,-9.3291,-9.3612,-9.4126,-9.5026,-9.5895,-9.6679,-9.7422,-9.7539,-9.7539,-9.7617,-9.7617,-9.7656,-9.7695,-9.7695,-9.7695,-9.7695,-9.7695,-9.7695,-9.7695,-9.7695,-9.7695,-9.7695,-9.7695,-9.7695,-9.7695,-9.7695,-9.7695,-9.7695,-9.7493,-9.7497,-9.7655,-9.7493,-9.7503,-9.7695,-9.7695,-9.6758,-9.5195,-9.5195,-9.4179,-9.2617,-9.2617,-9.2617,-9.2383,-9.0625,-9.0508,-9.0859,0.0,0.0,0.0,0.0,0.0,0.0,0.0,0.0,0.0,0.0,0.0,0.0,0.0,0.0,0.0,0.0,0.0,0.0,0.0,0.0,-10.8802,-10.91,-10.9204,-10.9488,-11.0309,-10.9799,-11.0601,-11.2894,-11.1806,-11.1612,-11.2117,-11.0096,-10.9916,-11.1196,-11.0315,-10.9201,-10.788,-10.8291,-10.7525,-10.6092,-10.6192,-10.5989,0.0,0.0,0.0,0.0,0.0,0.0,0.0,0.0,-9.9731,0.0,0.0,0.0,0.0,0.0,-9.5606,-9.414,-9.1488,-9.0412,-9.0444,-9.2206,-9.1774,-9.1932,-9.5818,-9.5807,-9.53,-9.6471,-9.6196,-9.5528,-9.4747,-9.4204,-9.4325,-9.5696,-9.7108,-9.7969,-9.7734,-9.7695,-9.7695,-9.7695,-9.7695,-9.7695,-9.7695,-9.7695,-9.7695,-9.7695,-9.7695,-9.7695,-9.7695,-9.7695,-9.7695,-9.7695,-9.7695,-9.7695,-9.7695,-9.7695,-9.7695,-9.7695,-9.7611,-9.7559,-9.7505,-9.7559,-9.7612,-9.7695,-9.7695,-9.707,-9.5976,-9.5429,-9.4492,-9.3359,-9.2812,-9.2617,-9.2461,-9.125,-9.1015,-9.1172,0.0,0.0,0.0,0.0,0.0,0.0,0.0,0.0,0.0,0.0,0.0,0.0,0.0,0.0,0.0,0.0,0.0,0.0,0.0,0.0,-10.8306,-10.8592,-10.8606,-10.9005,-10.98,-10.9888,-11.1107,-11.3398,-11.2,-11.1586,-11.2117,-10.9514,-10.8906,-10.998,-10.9087,-10.7611,-10.5709,-10.6505,-10.5715,-10.3998,-10.4682,-10.5008,0.0,0.0,0.0,0.0,0.0,0.0,0.0,0.0,-10.0415,0.0,0.0,0.0,0.0,0.0,0.0,-9.4169,-9.1838,-9.0606,-9.0405,-9.2323,-9.2845,-9.3826,-9.7654,-9.8079,-9.7963,-9.9095,-9.8899,-9.7998,-9.6239,-9.5264,-9.5071,-9.6207,-9.7616,-9.8398,-9.7773,-9.7695,-9.7695,-9.7695,-9.7695,-9.7695,-9.7695,-9.7695,-9.7695,-9.7695,-9.7695,-9.7695,-9.7695,-9.7695,-9.7695,-9.7695,-9.7695,-9.7695,-9.7695,-9.7695,-9.7695,-9.7695,-9.7695,-9.7612,-9.75,-9.7652,-9.7695,-9.7695,-9.7695,-9.7226,-9.6445,-9.5859,-9.4922,-9.3828,-9.2929,-9.2617,-9.25,-9.1601,-9.1484,-9.164,0.0,0.0,0.0,0.0,0.0,0.0,0.0,0.0,0.0,0.0,0.0,0.0,0.0,0.0,0.0,0.0,0.0,0.0,0.0,0.0,-10.7501,-10.8482,-10.8482,-10.8908,-10.9815,-10.9925,-11.069,-11.2398,-11.1583,-11.1196,-11.1184,-10.862,-10.7416,-10.7416,-10.66,-10.5708,-10.4713,-10.3898,-10.3005,-10.2203,-10.3106,-10.3311,-10.3389,0.0,0.0,0.0,0.0,0.0,0.0,0.0,-10.1696,-10.0994,0.0,0.0,0.0,0.0,-9.7354,-9.4324,-9.2537,-9.1525,-9.0944,-9.1071,-9.2502,-9.4954,-9.9335,-10.0312,-10.0781,-10.25,-10.1483,-9.9761,-9.8035,-9.6985,-9.6402,-9.6402,-9.7148,-9.7695,-9.7695,-9.7695,-9.7695,-9.7695,-9.7695,-9.7695,-9.7695,-9.7695,-9.7695,-9.7695,-9.7695,-9.7695,-9.7695,-9.7695,-9.7695,-9.7695,-9.7695,-9.7695,-9.7695,-9.7695,-9.7695,-9.7695,-9.7695,-9.7695,-9.7695,-9.7695,-9.7695,-9.7695,-9.7695,-9.7226,-9.6484,-9.6484,-9.5469,-9.3789,-9.2929,-9.2617,-9.25,-9.164,-9.1875,-9.2344,0.0,0.0,0.0,0.0,0.0,0.0,0.0,0.0,0.0,0.0,0.0,0.0,0.0,0.0,0.0,0.0,0.0,0.0,0.0,0.0,0.0,0.0,0.0,0.0,0.0,0.0,-11.039,-11.1624,-11.0796,-11.0382,-11.0291,-10.8309,-10.7416,-10.7416,-10.66,-10.4995,-10.3107,-10.3417,-10.24,-10.0592,-10.2109,-10.2594,-10.27,0.0,0.0,0.0,0.0,0.0,0.0,0.0,0.0,0.0,0.0,0.0,0.0,0.0,-9.5956,-9.4052,-9.1061,-9.1469,-9.2742,-9.2846,-9.4672,-9.729,-10.0508,-10.0703,-10.0781,-10.25,-10.1483,-9.9762,-9.8003,-9.7495,-9.691,-9.5738,-9.7265,-9.8594,-9.8594,-9.8594,-9.8594,-9.8594,-9.8086,-9.7695,-9.7695,-9.7695,-9.7695,-9.7695,-9.7695,-9.7695,-9.7695,-9.7695,-9.7695,-9.7695,-9.7695,-9.7695,-9.7695,-9.7695,-9.7695,-9.7695,-9.7695,-9.7695,-9.7695,-9.7695,-9.7695,-9.7695,-9.7695,-9.7226,-9.6406,-9.5195,-9.4023,-9.2969,-9.2695,-9.2617,-9.2578,-9.2304,-9.2383,-9.2539,0.0,0.0,0.0,0.0,0.0,0.0,0.0,0.0,0.0,0.0,-10.2189,-10.2198,0.0,0.0,0.0,0.0,0.0,0.0,0.0,0.0,0.0,0.0,0.0,0.0,0.0,-10.9183,-10.9582,0.0,0.0,-10.9592,-10.9903,-10.8219,-10.7183,-10.6911,-10.6095,-10.4191,-10.1783,-10.2,-10.0786,-9.8985,-10.0715,-10.1603,-10.2015,0.0,0.0,0.0,0.0,0.0,0.0,0.0,0.0,0.0,0.0,0.0,0.0,-9.6888,-9.6039,-9.5056,-9.2735,-9.3787,-9.542,-9.523,-9.6693,-9.8746,-10.1093,-10.1992,-10.2695,-10.3711,-10.2812,-10.1405,-9.9999,-9.9218,-9.8397,-9.7381,-9.8515,-9.9491,-9.9361,-9.9138,-9.8944,-9.8854,-9.8161,-9.7695,-9.7695,-9.8008,-9.8203,-9.8203,-9.8203,-9.8203,-9.8203,-9.789,-9.7695,-9.7695,-9.7695,-9.7695,-9.7695,-9.7695,-9.7695,-9.7695,-9.7695,-9.7695,-9.7695,-9.7695,-9.7695,-9.7695,-9.7344,-9.6758,-9.5898,-9.4492,-9.3594,-9.3086,-9.2734,-9.2617,-9.2617,-9.2617,-9.2617,-9.2617,0.0,0.0,0.0,0.0,0.0,0.0,0.0,0.0,0.0,0.0,-10.2392,-10.1889,0.0,0.0,0.0,0.0,0.0,0.0,0.0,0.0,0.0,0.0,0.0,0.0,0.0,0.0,0.0,0.0,0.0,-10.8891,-10.9603,-10.8194,-10.7015,-10.6212,-10.5396,-10.3609,-10.1095,-10.02,-9.8943,-9.7643,-9.9338,-10.0514,-10.1393,-10.3886,0.0,0.0,0.0,0.0,0.0,0.0,0.0,0.0,0.0,0.0,-9.7393,-9.716,-9.7067,-9.6875,-9.6174,-9.7379,-9.8708,-9.8097,-9.8827,-10.0115,-10.1484,-10.3789,-10.5508,-10.5312,-10.4804,-10.3984,-10.3008,-10.1601,-10.0508,-10.0312,-10.039,-10.0306,-10.0113,-9.9468,-9.8974,-9.8738,-9.8104,-9.7695,-9.7695,-9.8437,-9.8867,-9.8867,-9.8867,-9.8867,-9.8867,-9.8125,-9.7695,-9.7695,-9.7695,-9.7695,-9.7695,-9.7695,-9.7695,-9.7695,-9.7695,-9.7695,-9.7695,-9.7695,-9.7656,-9.7539,-9.6719,-9.5898,-9.5,-9.414,-9.3789,-9.3711,-9.289,-9.2617,-9.2617,-9.2617,-9.2617,-9.2617,0.0,0.0,0.0,0.0,0.0,0.0,0.0,0.0,0.0,0.0,0.0,0.0,0.0,0.0,0.0,0.0,0.0,0.0,0.0,0.0,0.0,0.0,0.0,0.0,0.0,0.0,0.0,0.0,0.0,-10.7608,-10.7895,-10.818,-10.7599,-10.6212,-10.6017,-10.4502,-10.1911,-10.0501,-9.9358,-9.8518,-9.9676,-10.031,-10.0698,-10.3197,-10.4684,0.0,0.0,0.0,0.0,0.0,0.0,0.0,-10.12,-10.019,-9.883,-9.6771,-9.7028,-9.7496,-9.5599,-9.826,-10.1412,-10.0815,-10.2885,-10.4804,-10.3906,-10.5117,-10.5898,-10.3906,-10.4414,-10.4492,-10.2304,-10.2109,-10.1914,-10.0508,-10.0898,-10.1205,-10.1011,-10.02,-9.9701,-9.9631,-9.8327,-9.7547,-9.7695,-9.7851,-9.7969,-9.7969,-9.7969,-9.7969,-9.7969,-9.7812,-9.7695,-9.7695,-9.7695,-9.7695,-9.7695,-9.7695,-9.7695,0.0,-9.7695,-9.7695,-9.7695,-9.7695,-9.7344,-9.6719,-9.5859,-9.5,-9.4101,-9.3242,-9.289,-9.2851,-9.2656,-9.2617,-9.2617,-9.2617,-9.2617,-9.2617,0.0,0.0,0.0,0.0,0.0,0.0,0.0,0.0,0.0,0.0,0.0,0.0,0.0,0.0,0.0,0.0,0.0,0.0,0.0,0.0,0.0,0.0,0.0,0.0,0.0,0.0,0.0,0.0,0.0,-10.68,-10.7298,-10.7792,-10.7417,-10.6212,-10.5784,-10.4619,-10.2805,-10.0816,-9.9751,-9.9361,-9.996,-10.0191,-10.0389,-10.2484,-10.3596,-10.409,-10.4795,0.0,0.0,0.0,0.0,0.0,0.0,0.0,-9.9297,-9.6655,-9.6989,-9.8065,0.0,0.0,-10.251,-10.271,-10.4217,-10.5312,-10.4414,-10.4609,-10.4609,-10.3711,-10.4219,-10.4297,-10.2617,-10.2617,-10.2617,-10.1719,-10.1789,-10.1902,-10.1685,-10.0494,-9.9754,-9.9708,-9.8341,-9.749,-9.7695,-9.8086,-9.832,-9.832,-9.832,-9.832,-9.832,-9.7929,-9.7695,-9.7695,-9.7695,-9.7695,-9.7695,-9.7695,-9.7695,-9.7695,-9.7304,-9.6914,-9.6523,-9.6953,-9.6679,-9.582,-9.4961,-9.4062,-9.3242,-9.2773,-9.2617,-9.2617,-9.2617,-9.2617,-9.2617,-9.2617,-9.2617,-9.2617,0.0,0.0,0.0,0.0,0.0,0.0,0.0,0.0,0.0,0.0,0.0,0.0,0.0,0.0,0.0,0.0,0.0,0.0,0.0,0.0,0.0,0.0,0.0,0.0,0.0,0.0,0.0,0.0,-10.6317,-10.6083,-10.6815,-10.7184,-10.7015,-10.6406,-10.5512,-10.4592,-10.3488,-10.0995,-10.0119,-10.0187,-10.0195,-10.0304,-10.0581,-10.2102,-10.2608,-10.2699,-10.3505,-10.3785,-10.3804,-10.3819,0.0,0.0,0.0,0.0,-9.9269,-9.6655,-9.6989,0.0,0.0,0.0,-10.3478,-10.4212,-10.4609,0.0,-10.4297,-10.3789,-10.3515,-10.3906,-10.3984,-10.3789,-10.3008,-10.289,-10.289,-10.289,-10.2702,-10.2392,-10.1914,-10.0514,-9.9492,-9.9328,-9.8141,-9.7433,-9.7695,-9.8359,-9.8789,-9.8789,-9.8789,-9.8789,-9.8789,-9.8086,-9.7695,-9.7695,-9.7695,-9.7695,-9.7695,-9.7695,-9.7695,-9.7695,-9.6875,-9.6054,-9.5234,-9.5781,-9.5664,-9.4922,-9.4219,-9.3398,-9.2617,-9.2617,-9.2617,-9.2617,-9.2773,-9.2734,-9.2656,-9.2929,-9.2851,-9.2617,0.0,0.0,0.0,0.0,0.0,0.0,0.0,0.0,0.0,0.0,-10.2392,-10.2199,0.0,0.0,0.0,0.0,0.0,0.0,0.0,0.0,0.0,0.0,0.0,0.0,0.0,0.0,0.0,0.0,-10.661,-10.5599,-10.5109,-10.6588,-10.7288,-10.7183,-10.6406,-10.5187,-10.3516,-10.1009,-10.0485,-10.1182,-10.0496,-10.0692,-10.1401,-10.2416,-10.2812,-10.289,-10.3594,-10.3886,-10.3889,-10.3895,-10.3295,0.0,0.0,0.0,-9.9285,-9.6666,0.0,0.0,0.0,0.0,-10.6714,0.0,-10.6406,-10.6914,0.0,0.0,-10.4804,0.0,-10.3086,-10.3008,-10.289,-10.289,-10.289,-10.289,-10.2702,-10.2119,-10.1106,-10.0,-9.906,-9.853,-9.7623,-9.7207,-9.7655,-9.7812,-9.7851,-9.7851,-9.7851,-9.7851,-9.7851,-9.7773,-9.7695,-9.7695,-9.7695,-9.7695,-9.7695,-9.7695,-9.7695,-9.7695,-9.6875,-9.6054,-9.5195,-9.4531,-9.4179,-9.4062,-9.3945,-9.3398,-9.2617,-9.2617,-9.2617,-9.2695,-9.3437,-9.3242,-9.2773,-9.4297,-9.3906,-9.2695,0.0,0.0,0.0,0.0,0.0,0.0,0.0,0.0,0.0,0.0,0.0,-10.2895,0.0,0.0,0.0,0.0,0.0,0.0,0.0,0.0,0.0,0.0,0.0,0.0,0.0,0.0,0.0,0.0,-10.6006,-10.4993,-10.4721,-10.5619,-10.5721,-10.5202,-10.4421,-10.39,-10.3488,-10.1083,-10.0893,-10.2004,-10.0803,-10.0485,-10.0805,-10.0691,-10.0582,-10.0701,-10.1513,-10.2488,-10.3315,-10.3209,-10.3318,-10.3119,-10.1695,0.0,0.0,0.0,0.0,0.0,-9.9397,-10.3193,-10.6618,0.0,-10.6406,-10.6211,-10.4609,0.0,-10.4414,-10.3203,-10.289,-10.289,-10.289,-10.289,-10.2889,-10.271,-10.2493,-10.192,-10.0788,-9.9691,-9.881,-9.8354,-9.7518,-9.7181,-9.7655,-9.7695,-9.7695,-9.7695,-9.7695,-9.7695,-9.7695,-9.7695,-9.7695,-9.7695,-9.7695,-9.7695,-9.7695,-9.7695,-9.7226,-9.6289,-9.5937,-9.5078,-9.375,-9.3867,-9.3906,-9.3867,-9.3398,-9.2969,-9.2617,-9.2617,-9.2617,-9.2695,-9.3554,-9.3672,-9.3437,-9.4179,-9.4297,-9.4023,0.0,0.0,0.0,0.0,0.0,0.0,0.0,0.0,0.0,0.0,0.0,0.0,0.0,0.0,0.0,0.0,0.0,0.0,0.0,0.0,0.0,0.0,0.0,0.0,0.0,0.0,0.0,-10.6995,-10.5007,-10.4397,-10.4993,-10.4506,-10.4102,-10.3881,-10.3084,-10.311,-10.3491,-10.068,-10.0598,-10.2216,-10.0095,-9.9431,-9.9552,-9.8846,-9.8465,-9.8429,-9.9492,-10.0897,-10.2218,-10.2303,-10.3006,-10.3398,-10.1814,-10.1085,0.0,0.0,0.0,0.0,0.0,0.0,0.0,0.0,0.0,0.0,0.0,0.0,-10.3984,0.0,-10.289,-10.289,-10.289,-10.289,-10.2807,-10.2499,-10.2304,-10.1589,-10.0402,-9.9364,-9.8604,-9.8033,-9.7401,-9.7181,-9.7655,-9.7695,-9.7695,-9.7695,-9.7695,-9.7695,-9.7695,-9.7695,-9.7695,-9.7695,-9.7695,-9.7695,-9.7695,-9.75,-9.6562,-9.4883,-9.4883,-9.4062,-9.2617,-9.3281,-9.3554,-9.3515,-9.289,-9.2617,-9.2617,-9.2617,-9.2734,-9.3008,-9.3633,-9.4023,-9.4219,-9.4219,-9.4648,-9.5117,0.0,0.0,0.0,0.0,0.0,0.0,0.0,0.0,0.0,0.0,0.0,0.0,-10.5487,-10.4906,-10.5487,-10.7885,0.0,0.0,0.0,0.0,0.0,0.0,0.0,0.0,0.0,0.0,-10.7885,-10.6995,-10.3684,-10.341,-10.5807,-10.3406,-10.3198,-10.4813,-10.3989,-10.3695,-10.351,-9.938,-9.9169,-10.1285,-9.7932,-9.7089,-9.7831,-9.7795,-9.7249,-9.6741,-9.8463,-9.9634,-10.0489,-10.1316,-10.2087,-10.2692,-10.1719,-10.081,-9.9641,0.0,0.0,0.0,0.0,0.0,0.0,0.0,0.0,0.0,0.0,0.0,0.0,0.0,-10.289,-10.289,-10.289,-10.289,-10.2807,-10.2499,-10.2304,-10.1395,-9.951,-9.8979,-9.8373,-9.7217,-9.7012,-9.7181,-9.7655,-9.7695,-9.7695,-9.7695,-9.7695,-9.7695,-9.7695,-9.7695,-9.7695,-9.7695,-9.7695,-9.7695,-9.7695,-9.6953,-9.5703,-9.3984,-9.3984,-9.3476,-9.2617,-9.2656,-9.2656,-9.2656,-9.2617,-9.2617,-9.2617,-9.2617,-9.3086,-9.3828,-9.3867,-9.4414,-9.5117,-9.5117,-9.5156,-9.5195,0.0,0.0,0.0,0.0,0.0,0.0,0.0,0.0,0.0,0.0,0.0,0.0,0.0,-10.5574,-10.5807,-10.6588,-10.7685,0.0,0.0,0.0,0.0,0.0,0.0,0.0,0.0,-10.8388,-10.7614,-10.6183,-10.3398,-10.249,-10.341,-10.1983,-10.1684,-10.2416,-10.2194,-10.24,-10.2815,-9.9712,-9.9292,-10.0503,-9.8166,-9.7401,-9.7636,-9.7064,-9.7028,-9.7382,-9.8562,-9.9926,-10.1206,-10.1518,-10.211,-10.2585,-10.1106,-10.0387,-9.9485,-9.6315,-9.5621,0.0,0.0,0.0,0.0,0.0,0.0,0.0,0.0,0.0,0.0,0.0,0.0,0.0,0.0,0.0,0.0,0.0,0.0,-10.16,-10.0011,-9.9208,-9.8566,-9.7917,-9.7362,-9.7181,-9.7655,-9.7695,-9.7653,-9.7505,-9.7611,-9.7653,-9.7505,-9.7612,-9.7695,-9.7695,-9.7695,-9.7461,-9.6914,-9.6094,-9.5078,-9.3906,-9.332,-9.289,-9.2617,-9.2617,-9.2617,-9.2617,-9.2617,-9.2617,-9.2617,-9.2617,-9.2773,-9.3164,-9.4297,-9.4922,-9.5273,-9.582,-9.6367,-9.6719,0.0,0.0,0.0,0.0,0.0,0.0,0.0,0.0,0.0,-10.9004,0.0,0.0,0.0,0.0,-10.6511,-10.6712,-10.7911,-10.8824,-10.9078,0.0,0.0,0.0,0.0,0.0,0.0,-10.7691,-10.6918,-10.5719,-10.2593,-10.1593,-10.2397,-10.109,-10.0805,-10.1394,-10.1009,-10.1283,-10.1981,-9.9494,-9.8827,-9.9203,-9.7184,-9.6386,-9.6308,-9.5424,-9.5824,-9.6883,-9.7477,-9.8607,-9.9887,-10.02,-10.05,-10.0485,-9.9705,-9.9153,-9.8396,-9.609,-9.5522,-9.5863,-9.6912,0.0,0.0,0.0,0.0,0.0,0.0,0.0,0.0,0.0,0.0,0.0,0.0,0.0,0.0,0.0,0.0,0.0,0.0,0.0,0.0,0.0,0.0,0.0,0.0,0.0,0.0,0.0,0.0,0.0,-9.7503,-9.7611,-9.7695,-9.7695,-9.7695,-9.7304,-9.6523,-9.5625,-9.4765,-9.3906,-9.332,-9.3047,-9.3047,-9.3359,-9.3476,-9.3476,-9.3476,-9.3125,-9.2617,-9.2617,-9.2929,-9.3554,-9.4414,-9.5273,-9.6054,-9.6054,-9.6758,-9.7578,0.0,0.0,0.0,0.0,0.0,0.0,0.0,0.0,-10.8305,-10.84,0.0,0.0,0.0,0.0,0.0,-10.8377,-10.9214,-10.9275,-10.8501,-11.0024,0.0,0.0,0.0,0.0,-10.831,-10.6608,-10.5719,-10.5719,-10.1425,-10.0697,-10.3095,-10.07,-10.0496,-10.2094,-10.0504,-10.0416,-10.1098,-9.865,-9.7617,-9.744,-9.4825,-9.381,-9.3732,-9.2876,-9.3628,-9.5126,-9.5165,-9.5712,-9.6529,-9.7427,-9.7142,-9.6582,-9.744,-9.71,-9.6409,-9.6409,-9.5795,-9.5296,0.0,0.0,0.0,0.0,0.0,0.0,0.0,0.0,0.0,0.0,0.0,0.0,0.0,0.0,0.0,0.0,0.0,0.0,0.0,0.0,0.0,0.0,0.0,0.0,0.0,0.0,0.0,0.0,-9.7734,-9.7734,-9.7695,-9.7695,-9.7695,-9.7695,-9.7695,-9.7304,-9.6484,-9.5625,-9.4765,-9.3906,-9.3906,-9.3906,-9.3945,-9.4804,-9.5195,-9.5156,-9.5195,-9.4258,-9.2695,-9.2695,-9.3672,-9.5117,-9.4297,-9.5508,-9.7461,-9.5859,-9.6289,-9.7578,0.0,0.0,0.0,0.0,0.0,0.0,0.0,-10.9801,-10.8903,0.0,0.0,0.0,-10.4697,-10.57,-10.7195,-10.909,-10.9988,-11.0382,-11.0201,-11.1095,-11.0709,-10.8388,-10.9703,-10.9509,-10.7382,-10.6879,-10.5989,-10.479,-10.1696,-10.0318,0.0,0.0,-9.8013,-9.852,-9.8209,-9.8286,-9.8614,-9.7913,-9.7265,-9.6582,-9.4591,-9.4168,-9.4649,-9.384,-9.4159,-9.5257,-9.6519,-9.6712,-9.6624,-9.8113,-9.8065,-9.7379,-9.76,-9.7093,-9.6393,-9.6393,-9.5772,-9.5424,-9.6947,0.0,0.0,0.0,0.0,0.0,0.0,0.0,0.0,0.0,0.0,0.0,0.0,0.0,0.0,0.0,0.0,0.0,0.0,0.0,0.0,0.0,0.0,0.0,0.0,0.0,0.0,0.0,-9.8547,-9.8316,-9.7532,-9.7611,-9.7695,-9.7695,-9.7695,-9.6992,-9.5586,-9.5312,-9.4765,-9.3906,-9.3906,-9.3906,-9.3945,-9.4804,-9.4844,-9.4297,-9.4922,-9.4922,-9.4492,-9.4492,-9.4765,-9.5234,-9.5625,-9.6211,-9.6836,-9.6953,-9.7304,-9.7656,0.0,0.0,0.0,0.0,0.0,0.0,0.0,-10.9397,-10.8008,0.0,0.0,0.0,-10.6079,-10.6794,-10.818,-11.0086,-11.0724,-11.091,-11.0902,-11.1279,-11.0604,-10.8398,-10.9282,-10.8988,-10.7098,-10.6711,-10.5789,-10.4403,-10.1812,-10.0187,-9.9259,0.0,-9.6849,-9.6627,-9.6797,-9.6926,-9.7057,-9.6714,-9.6284,-9.5723,-9.4356,-9.4093,-9.4462,-9.3649,-9.4517,-9.6282,-9.6912,-9.6833,-9.6554,-9.7573,-9.733,-9.6565,-9.6198,-9.623,-9.6464,-9.6855,-9.6582,-9.6425,-9.7401,-9.705,-9.6741,-9.8118,0.0,0.0,-9.8099,-10.0217,-10.1982,0.0,0.0,0.0,0.0,0.0,0.0,0.0,0.0,0.0,0.0,0.0,0.0,0.0,0.0,0.0,0.0,-10.0508,-9.9998,-9.9427,-9.9487,-9.9098,-9.8136,-9.7848,-9.7695,-9.7695,-9.7695,-9.707,-9.5742,-9.5742,-9.5312,-9.4453,-9.4804,-9.4961,-9.5,-9.5859,-9.5976,-9.5508,-9.6015,-9.625,-9.625,-9.625,-9.6054,-9.5781,-9.6289,-9.6719,-9.707,-9.7539,-9.7695,-9.7695,0.0,0.0,0.0,0.0,0.0,0.0,0.0,-10.8386,-10.6716,0.0,-10.6812,-10.7109,-10.8887,-10.9102,-10.9795,-11.1184,-11.1297,-11.1085,-11.1007,-11.0996,-11.0198,-10.8493,-10.8491,-10.8104,-10.7099,-10.6285,-10.531,-10.4303,-10.1789,-10.0086,-9.9143,-9.7598,-9.6461,-9.5772,0.0,0.0,-9.5965,-9.5351,-9.5179,-9.518,-9.4282,-9.4139,-9.427,-9.3371,-9.4868,-9.7341,-9.6755,-9.6403,-9.6285,-9.6363,-9.5885,-9.5084,-9.4207,-9.5059,-9.6542,-9.7323,-9.7636,-9.7714,-9.7831,-9.7206,-9.6738,-9.7636,-9.5957,0.0,-9.7031,-9.8882,-10.0613,0.0,0.0,0.0,0.0,0.0,0.0,0.0,0.0,0.0,0.0,0.0,0.0,0.0,0.0,0.0,-10.1914,-10.1093,-10.0506,-10.0389,-10.0311,-9.9921,-9.9179,-9.832,-9.7812,-9.7695,-9.7695,-9.7304,-9.6523,-9.6484,-9.6094,-9.5351,-9.6133,-9.6484,-9.6523,-9.7344,-9.7656,-9.7578,-9.7656,-9.7695,-9.7695,-9.7695,-9.7265,-9.664,-9.664,-9.707,-9.7695,-9.7695,-9.7695,-9.7695,0.0,0.0,0.0,0.0,0.0,0.0,0.0,0.0,-10.7717,-10.5986,-10.5685,-10.6786,-10.9906,-11.0214,-11.0798,-11.2312,-11.2287,-11.2021,-11.1195,-11.1011,-11.0197,-10.8622,-10.8521,-10.8094,-10.7212,-10.6282,-10.509,-10.3491,-10.1608,-9.9875,-9.8292,-9.676,-9.5604,-9.484,-9.434,-9.4138,-9.4245,-9.4843,-9.5495,-9.6058,-9.5199,-9.6112,-9.7806,-9.6243,-9.5659,-9.5856,-9.7031,-9.6561,-9.5543,-9.6168,-9.6281,-9.5995,-9.5123,-9.5577,-9.6425,-9.6582,-9.7167,-9.7831,-9.8572,-9.8104,-9.7675,-9.8533,-9.7323,0.0,-9.6546,-9.8007,-9.9349,0.0,0.0,0.0,0.0,0.0,0.0,0.0,0.0,0.0,0.0,0.0,0.0,0.0,0.0,0.0,-10.3711,-10.271,-10.1809,-10.1106,-10.0403,-10.0007,-10.0,-9.9219,-9.8437,-9.7734,-9.7695,-9.7304,-9.6523,-9.6484,-9.6406,-9.625,-9.6406,-9.6484,-9.6523,-9.7344,-9.7344,-9.6758,-9.7422,-9.7695,-9.7695,-9.7695,-9.7617,-9.7461,-9.7461,-9.7578,-9.7695,-9.7695,-9.7695,-9.7695,0.0,0.0,0.0,0.0,0.0,0.0,0.0,0.0,-10.7694,-10.7294,-10.7693,-10.8513,-10.9695,-11.0584,-11.1182,-11.1507,-11.1814,-11.1899,-11.1403,-11.0904,-10.98,-10.8088,-10.7604,0.0,-10.6704,-10.6188,-10.5303,-10.3908,-10.2209,-10.049,-9.8699,-9.6746,-9.5433,-9.4638,-9.3961,-9.3676,-9.375,-9.3779,-9.5053,-9.6959,-9.6102,-9.7053,-9.8825,-9.7066,-9.6677,-9.7148,-9.7539,-9.7148,-9.6444,-9.6403,-9.6675,-9.6904,-9.6029,-9.6367,-9.7064,-9.7054,-9.7362,-9.7792,-9.8221,-9.8026,-9.7792,-9.8221,-9.705,0.0,0.0,-9.7415,-9.8484,0.0,0.0,0.0,0.0,0.0,0.0,0.0,0.0,0.0,0.0,0.0,0.0,0.0,0.0,0.0,-10.4219,-10.3207,-10.2519,-10.2519,-10.1305,-10.0887,-10.1601,-9.9961,-9.8789,-9.8359,-9.7929,-9.7304,-9.6523,-9.6914,-9.6914,-9.6484,-9.6914,-9.7109,-9.7109,-9.7539,-9.7461,-9.7109,-9.7539,-9.7969,-9.8359,-9.8359,-9.8594,-9.8906,-9.8047,-9.7695,-9.7695,-9.7695,-9.7969,-9.8281,-10.6299,0.0,0.0,0.0,0.0,0.0,0.0,0.0,-10.75,-10.8906,-10.9804,-11.0115,-10.9315,-11.0598,-11.1091,-11.0217,-11.072,0.0,-11.0805,-11.0082,-10.91,0.0,0.0,-10.6494,-10.6508,-10.6111,-10.5295,-10.4319,0.0,0.0,0.0,0.0,-9.5282,-9.4637,-9.3673,-9.3351,-9.3549,-9.3327,-9.4685,-9.6961,-9.712,-9.7678,-9.8354,-9.6949,-9.7186,-9.8203,-9.7851,-9.7578,-9.7304,-9.6443,-9.6754,-9.7337,-9.662,-9.7,-9.7701,-9.7685,-9.7561,-9.744,-9.744,-9.7558,-9.7714,-9.7714,-9.6777,-9.5996,0.0,0.0,0.0,0.0,0.0,0.0,0.0,0.0,0.0,0.0,0.0,0.0,0.0,0.0,0.0,0.0,0.0,0.0,0.0,-10.3307,-10.2983,-10.3887,-10.271,-10.2312,-10.3281,-10.0898,-9.9414,-9.9258,-9.8242,-9.7383,-9.6758,-9.7383,-9.7383,-9.6758,-9.7383,-9.7695,-9.7695,-9.7695,-9.7695,-9.7695,-9.789,-9.8359,-9.9023,-9.9179,-9.9687,-10.0195,-9.875,-9.8203,-9.8203,-9.8203,-9.8633,-9.914,-10.4497,-10.4519,0.0,0.0,0.0,0.0,0.0,0.0,0.0,-10.8086,-10.8906,-10.9414,-10.9296,-11.0116,-11.0389,-10.949,-10.9388,-10.9086,-10.8387,-10.8089,-10.7899,0.0,0.0,-10.7508,-10.7511,-10.6022,-10.4685,-10.3783,0.0,0.0,0.0,0.0,0.0,-9.452,-9.2432,-9.191,-9.2808,-9.5018,-9.528,-9.4579,-9.834,-9.8579,-9.6668,-9.6479,-9.6091,-9.5818,-9.7187,-9.7187,-9.6403,-9.5622,-9.5891,-9.651,-9.643,-9.7008,-9.7701,-9.7701,-9.7142,-9.6542,-9.6542,-9.7128,-9.7714,-9.7714,-9.8143,-9.8377,-9.7714,0.0,-9.7952,-9.881,0.0,0.0,0.0,0.0,0.0,0.0,0.0,0.0,0.0,0.0,0.0,0.0,0.0,0.0,0.0,-10.3697,-10.3705,-10.4502,-10.4415,-10.4584,-10.5195,-10.2695,-10.1015,-10.0195,-9.8554,-9.7656,-9.7578,-9.7656,-9.7656,-9.7578,-9.7656,-9.7695,-9.7695,-9.7695,-9.7695,-9.7734,-9.8515,-9.8906,-9.9062,-9.9844,-10.0195,-10.0312,-10.0117,-10.0,-10.0,-10.0,-10.0117,-10.0117,-10.4095,-10.3708,-10.3521,0.0,0.0,0.0,0.0,0.0,0.0,-10.8789,-11.0,-11.039,-10.9414,-11.0508,-11.039,-10.8008,-10.8708,-10.8704,-10.7298,-10.7214,-10.6899,-10.6395,0.0,-10.6294,-10.6314,-10.5513,-10.4806,0.0,-10.1712,0.0,0.0,0.0,0.0,-9.4734,-9.2837,-9.3006,-9.4827,-9.5912,-9.6576,-9.6934,-9.8266,-9.7838,-9.651,-9.7534,-9.8005,-9.8241,-9.8945,-9.832,-9.7341,-9.8514,-9.8474,-9.8157,-9.968,-9.9361,-9.8453,-9.8448,-9.7106,-9.5645,-9.5645,-9.666,-9.7597,-9.7089,-9.7597,-9.8143,-9.7792,-9.7323,-9.7206,-9.8065,0.0,0.0,0.0,0.0,0.0,0.0,-9.839,0.0,0.0,0.0,0.0,0.0,0.0,0.0,0.0,0.0,0.0,0.0,-10.4094,-10.4908,-10.5195,-10.2886,-10.1406,-10.1094,-9.8867,-9.7695,-9.7695,-9.7695,-9.7695,-9.7695,-9.7695,-9.7695,-9.7695,-9.7695,-9.7969,-9.8476,-9.8828,-9.957,-10.0508,-10.0898,-10.1406,-10.1797,-10.1797,-10.1211,-10.0312,-10.0312,-10.0586,-10.1015,-10.3508,-10.2887,-10.2708,-10.4805,0.0,0.0,0.0,0.0,-10.9687,-10.8984,-11.0312,-11.0703,-10.9414,-11.0195,-10.9804,-10.7304,-10.8008,-10.8086,-10.6797,-10.6913,-10.6715,-10.5814,-10.5702,-10.5585,-10.5311,-10.4709,-10.4486,0.0,0.0,0.0,0.0,0.0,0.0,0.0,-9.3008,-9.3347,-9.5355,-9.5826,-9.6771,-9.7952,-9.8032,-9.7801,-9.7568,-9.8354,-9.9335,-10.0312,-10.0312,-9.9335,-9.8317,-9.996,-9.9999,-9.9684,-10.1597,-10.1009,-9.9676,-9.9434,-9.7821,-9.6169,-9.6169,-9.6752,-9.7291,-9.7135,-9.7249,-9.7323,-9.7323,-9.7401,-9.7636,-9.826,-9.908,0.0,0.0,0.0,0.0,0.0,0.0,0.0,0.0,0.0,0.0,0.0,0.0,0.0,0.0,0.0,0.0,-10.1781,-10.3214,-10.44,-10.5217,-10.3391,-10.2109,-10.1601,-9.9531,-9.8281,-9.8047,-9.8281,-9.8398,-9.8398,-9.8164,-9.8164,-9.8398,-9.7929,-9.832,-9.9375,-9.9375,-10.0195,-10.1601,-10.1914,-10.25,-10.3281,-10.3281,-10.2617,-10.1719,-10.1211,-10.1406,-10.1914,-10.2285,-10.241,-10.3091,-10.5693,-10.4901,0.0,0.0,0.0,-10.8086,-10.8008,-10.8789,-10.9414,-10.9297,-10.8593,-10.8086,-10.8008,-10.7187,-10.6797,-10.6719,-10.75,-10.7615,-10.6704,-10.6704,-10.6202,-10.5309,-10.3708,-10.3194,0.0,0.0,0.0,0.0,0.0,0.0,0.0,-9.2343,-9.1742,-9.2759,-9.4418,-9.5165,-9.5441,-9.7952,-9.9444,-9.9996,-9.8355,-9.8827,-10.0312,-10.0312,-9.9726,0.0,-9.8083,-9.8903,0.0,0.0,0.0,0.0,0.0,0.0,0.0,-9.8852,-9.7672,-9.6842,-9.8482,-9.7689,-9.6425,-9.6425,-9.8377,-10.0212,-10.0212,-10.0915,-10.1383,-10.1383,-10.0815,-9.9966,-9.9106,0.0,0.0,0.0,0.0,0.0,0.0,0.0,0.0,0.0,0.0,0.0,-10.0987,-10.2114,-10.3417,-10.539,-10.4609,-10.3281,-10.1719,-10.0703,-9.9804,-9.8984,-9.9804,-10.0195,-10.0195,-9.9375,-9.9414,-10.0195,-9.8476,-9.8633,-10.0312,-10.0312,-10.0781,-10.1719,-10.25,-10.3398,-10.4219,-10.4219,-10.4609,-10.5117,-10.3398,-10.2812,-10.289,-10.2386,-10.2605,-10.2694,-10.3011,-10.3509,-10.43,-10.5312,-10.6015,-10.6093,-10.5586,-10.6719,-10.7383,-10.6797,-10.8008,-10.8398,-10.7187,-10.7383,-10.7304,-10.6719,-10.6991,-10.7301,-10.7493,-10.8114,-10.7718,-10.6307,-10.6209,-10.5387,-10.4007,-10.1895,0.0,0.0,0.0,0.0,0.0,0.0,-9.3387,-9.4259,-9.485,-9.6776,-9.9483,-10.0384,-10.0893,-10.1091,-10.0505,-10.1014,-10.1992,-10.1992,-10.1093,0.0,-10.0897,-10.0819,-10.0583,-10.2304,-10.1483,-9.9918,-10.0192,-9.8469,-9.6548,0.0,0.0,-9.5826,-9.6998,-9.64,-9.5527,-9.5527,-9.7128,-9.8928,-10.0113,-10.0887,-10.1898,-10.3005,-10.2101,0.0,0.0,0.0,0.0,0.0,0.0,0.0,0.0,0.0,0.0,0.0,0.0,0.0,-9.7793,-9.9649,-10.1582,-10.3392,-10.2301,-10.2109,-10.3281,-10.1406,-10.0195,-9.9844,-10.0195,-10.0312,-10.0312,-10.0,-10.0,-10.0312,-9.9687,-10.0117,-10.1211,-10.1211,-10.1719,-10.25,-10.2812,-10.3086,-10.3398,-10.3984,-10.4414,-10.4609,-10.3984,-10.3789,-10.3789,-10.2519,-10.2509,-10.2484,-10.2788,-10.3488,-10.4085,-10.4492,-10.5312,-10.5703,-10.5195,-10.6601,-10.7383,-10.6914,-10.8008,-10.8515,-10.7695,-10.789,-10.7812,-10.7187,-10.7694,-10.7888,-10.7613,-10.839,-10.7913,-10.5787,-10.6009,-10.5195,-10.3515,-10.1789,-10.0587,0.0,0.0,0.0,0.0,0.0,-9.3649,-9.4181,-9.4181,-9.6852,-10.1283,-10.281,-10.2498,0.0,0.0,-10.2303,-10.2109,0.0,-10.2187,-10.1405,-10.25,-10.2187,-10.1483,-10.3203,-10.2187,-10.0389,-10.0701,-9.9372,-9.8002,-9.8549,-9.7606,0.0,-9.795,-9.712,0.0,-9.6797,-9.8749,-10.0783,-10.1887,-10.2501,-10.3314,-10.4808,0.0,0.0,0.0,0.0,0.0,0.0,-9.4708,0.0,0.0,0.0,0.0,0.0,0.0,-9.4994,-9.5678,-9.6702,-9.8186,0.0,0.0,-10.1405,-10.2812,-10.2383,-10.1992,-10.1719,-10.1992,-10.1992,-10.1719,-10.1406,-10.1211,-10.1211,-10.0586,-10.0898,-10.1992,-10.1719,-10.2109,-10.289,-10.3203,-10.3515,-10.3906,-10.4804,-10.5312,-10.5508,-10.4883,-10.4804,-10.5117,-10.2585,-10.218,-10.25,-10.5,-10.4804,-10.3906,-10.3086,-10.5195,-10.6719,-10.6719,-10.8086,-10.9218,-10.9218,-10.8398,-10.8203,-10.9101,-10.8398,-10.789,-10.789,-10.9492,-10.9414,-10.6911,-10.7692,-10.6905,-10.4303,-10.3483,-10.2916,-10.2617,-10.1013,0.0,0.0,0.0,0.0,0.0,-9.3327,0.0,-9.2443,-9.2482,-9.5433,-10.0496,-10.4608,-10.3905,-10.0505,-10.3007,-10.2499,-10.0505,-10.2187,-10.289,-10.289,-10.289,-10.289,-10.289,-10.289,-10.289,-10.2695,-10.1914,-10.2304,-10.289,-10.3008,-10.1093,-9.9489,-10.1208,-9.968,0.0,0.0,0.0,-10.5218,0.0,0.0,0.0,0.0,0.0,0.0,0.0,0.0,0.0,0.0,0.0,0.0,0.0,0.0,0.0,0.0,-9.1997,-9.138,-9.4595,-9.3386,0.0,0.0,0.0,-10.1014,-10.0508,-10.3711,-10.5117,-10.4414,-10.5195,-10.5117,-10.4297,-10.3398,-10.3008,-10.289,-10.1211,-10.1289,-10.289,-10.1992,-10.2109,-10.3008,-10.3789,-10.4609,-10.5508,-10.6289,-10.7187,-10.789,-10.6211,-10.6093,-10.6914,-10.281,-10.3202,-10.3711,-10.4414,-10.4297,-10.4297,-10.4804,-10.6406,-10.7383,-10.6797,-10.7109,-10.7383,-10.7383,-10.6601,-10.6484,-10.7304,-10.6601,-10.6406,-10.6992,-10.8086,-10.8711,-10.8593,-10.9492,-10.8709,-10.6084,-10.6397,-10.5106,-10.1896,-10.1501,0.0,-9.914,0.0,0.0,0.0,0.0,0.0,-9.1663,-9.2248,-9.4412,-9.7594,-9.999,-10.0304,-9.9483,0.0,-10.0896,-10.0387,-10.1484,-10.2383,-10.2812,-10.2187,-10.2383,-10.289,-10.289,-10.289,-10.289,-10.2617,-10.2695,-10.3008,-10.3711,-10.1991,-10.0387,-10.2106,-10.011,-9.7994,0.0,0.0,0.0,0.0,0.0,0.0,0.0,0.0,0.0,0.0,0.0,0.0,0.0,0.0,-9.5027,-9.5664,0.0,0.0,-9.3327,-9.1871,-9.106,-9.1282,-9.0913,0.0,0.0,0.0,0.0,-10.3008,-10.3398,-10.4687,-10.6992,-10.6601,-10.6289,-10.6015,-10.4609,-10.3906,-10.3789,-10.2695,-10.25,-10.289,-10.2695,-10.2695,-10.289,-10.3086,-10.3711,-10.4609,-10.5508,-10.7109,-10.8789,-10.7812,-10.75,-10.7812,-10.289,-10.3906,-10.4492,-10.3789,-10.5195,-10.6211,-10.5586,-10.6601,-10.75,-10.7812,-10.8203,-10.8281,-10.789,-10.7109,-10.6601,-10.6719,-10.6289,-10.6211,-10.6719,-10.75,-10.8203,-10.8711,-10.9609,-10.8984,-10.6714,-10.6793,-10.5302,-10.2116,-10.1804,0.0,-9.8863,0.0,0.0,0.0,0.0,-9.2705,-9.1936,-9.3547,-9.4844,-9.6066,-9.8973,-9.9914,0.0,-10.1013,-10.1405,-10.1483,-10.1601,-10.2187,-10.2812,-10.2304,-10.25,-10.289,-10.289,-10.3203,-10.3515,-10.3515,-10.3711,-10.4101,-10.4609,-10.371,-10.2811,-10.3788,-10.2615,-10.1285,-10.2183,-10.3082,-10.4215,0.0,-10.4798,-10.4595,0.0,0.0,0.0,0.0,0.0,0.0,-9.5277,-9.6139,-9.6412,-9.5397,-9.6172,0.0,-9.285,-9.1787,-9.0937,-9.0064,0.0,0.0,0.0,0.0,0.0,-10.2382,-10.4883,-10.7187,-10.9101,-10.8711,-10.8008,-10.7304,-10.6289,-10.5312,-10.4219,-10.3711,-10.3281,-10.289,-10.3281,-10.3281,-10.3008,-10.4101,-10.4609,-10.4883,-10.6484,-10.8008,-10.9297,-10.9609,-10.9687,-10.9804,-10.3203,-10.4492,-10.5117,-10.3515,-10.6289,-10.8086,-10.6093,-10.6719,-10.789,-10.9414,-11.0195,-11.0312,-10.9414,-10.8398,-10.75,-10.6601,-10.6406,-10.6406,-10.6406,-10.7187,-10.7695,-10.7812,-10.8711,-10.8281,-10.6598,-10.5817,-10.4483,-10.2587,-10.1884,0.0,0.0,0.0,0.0,0.0,0.0,0.0,0.0,-9.5238,-9.579,-9.548,-9.9719,-10.1012,-10.0505,-10.2187,-10.289,-10.2812,-10.1992,-10.2304,-10.289,-10.2812,-10.2812,-10.289,-10.289,-10.3515,-10.4219,-10.4297,-10.5,-10.5703,-10.5781,-10.5781,-10.5781,-10.5781,-10.5703,-10.5781,-10.6484,-10.6601,-10.6797,-10.7695,-10.6483,-10.6011,-10.8511,0.0,0.0,0.0,0.0,-9.4814,-9.5246,-9.7166,-9.7715,-9.5558,0.0,0.0,-9.421,-9.2294,-9.1054,-9.049,0.0,0.0,0.0,0.0,0.0,-10.1091,-10.7109,-11.0508,-11.0898,0.0,-11.0,-10.8281,-10.8086,-10.6719,-10.4414,-10.4414,-10.3906,-10.3086,-10.3906,-10.3789,-10.3398,-10.5508,-10.6093,-10.5898,-10.8281,-10.9414,-10.9687,-11.1289,-11.1992,-11.2109,-10.4712,-10.5809,-10.6203,-10.5195,-10.5703,-10.6484,-10.7383,-10.9492,-11.1093,-11.1406,-11.1015,-11.0312,-10.9414,-10.789,-10.6601,-10.5781,-10.5117,-10.4609,-10.4609,-10.5508,-10.6211,-10.6914,-10.7812,-10.7383,-10.5703,-10.5586,-10.4294,-10.1818,-10.1701,-10.0716,0.0,0.0,0.0,0.0,0.0,0.0,-9.3654,-9.4844,0.0,-9.5402,-9.9055,-10.0387,-10.0505,-10.2187,-10.289,-10.289,-10.2695,-10.2812,-10.2812,-10.2109,-10.2304,-10.289,-10.289,-10.3515,-10.4297,-10.5117,-10.5898,-10.6601,-10.7383,-10.7617,-10.7617,-10.7617,-10.6992,-10.6484,-10.6719,-10.6211,-10.5898,-10.6797,-10.5585,-10.4996,-10.6793,0.0,0.0,0.0,0.0,-10.0104,-10.3,-9.9006,-9.7674,-10.2805,-10.0801,-9.9541,0.0,0.0,0.0,0.0,0.0,0.0,0.0,0.0,0.0,0.0,-10.7383,0.0,0.0,0.0,-11.1211,-11.0117,-10.8711,-10.6992,-10.5312,-10.5312,-10.4804,-10.3984,-10.4101,-10.4492,-10.5,-10.4804,-10.539,-10.6719,-10.8593,-10.9687,-11.0508,-11.1484,-11.2383,-11.3008,-10.4511,-10.5413,-10.5888,-10.5585,-10.6211,-10.7109,-10.789,-10.9804,-11.1601,-11.25,-11.1406,-11.039,-11.0,-10.8398,-10.6992,-10.6211,-10.539,-10.4883,-10.4883,-10.4804,-10.5195,-10.6015,-10.6914,-10.6797,-10.5508,-10.5898,-10.4608,-10.1586,-10.2484,-10.1301,0.0,0.0,0.0,0.0,0.0,-9.4048,0.0,0.0,0.0,-9.7254,-9.894,-10.0388,-10.1718,-10.2617,-10.289,-10.289,-10.289,-10.289,-10.2812,-10.2383,-10.289,-10.3515,-10.3008,-10.3789,-10.4883,-10.4804,-10.5703,-10.6797,-10.7187,-10.7304,-10.7383,-10.789,-10.7304,-10.6797,-10.7304,-10.6719,-10.6211,-10.6601,-10.6093,-10.6014,-10.7694,-10.6989,0.0,-10.4914,-10.2297,-10.0619,-10.1285,-9.9718,-9.9558,-10.2418,-10.1707,-10.0603,0.0,0.0,0.0,0.0,0.0,0.0,0.0,0.0,0.0,0.0,0.0,0.0,0.0,0.0,0.0,-11.1289,-11.0,-10.8515,-10.6797,-10.6289,-10.5703,-10.4883,-10.5312,-10.5508,-10.5508,-10.6015,-10.6914,-10.8203,-11.0,-11.0898,-11.1406,-11.2304,-11.2617,-11.25,-10.5097,-10.5882,-10.6397,-10.6289,-10.7617,-10.8593,-10.8593,-10.9883,-11.1289,-11.25,-11.1601,-11.0703,-11.039,-10.9101,-10.789,-10.6797,-10.6015,-10.539,-10.5195,-10.4609,-10.4492,-10.5195,-10.6015,-10.6093,-10.5508,-10.6093,-10.5116,-10.241,-10.3384,-10.1692,0.0,0.0,0.0,0.0,0.0,0.0,0.0,0.0,-9.6667,-9.9059,-9.9607,-10.1093,-10.289,-10.289,-10.289,-10.289,-10.289,-10.289,-10.289,-10.289,-10.3398,-10.3789,-10.3281,-10.3984,-10.4804,-10.4297,-10.5312,-10.6484,-10.6719,-10.6797,-10.7109,-10.7617,-10.7187,-10.6914,-10.7617,-10.7109,-10.6484,-10.6914,-10.7109,-10.7695,-10.8984,-10.8515,0.0,0.0,-10.3787,-10.1912,-10.1091,-10.1716,-10.2105,-10.1989,-10.3117,0.0,-9.7945,0.0,0.0,0.0,0.0,-9.6632,-9.9882,-10.4218,-10.6483,0.0,0.0,-11.3203,-11.3203,0.0,-11.2812,-11.1914,-11.1015,-10.9687,-10.8008,-10.7304,-10.6484,-10.5781,-10.6406,-10.6289,-10.5898,-10.7617,-10.8711,-10.9492,-11.1211,-11.1914,-11.1992,-11.289,-11.2812,-11.2109,-10.8809,-10.9516,-10.9795,-10.9101,-10.9687,-11.039,-11.039,-11.1211,-11.1601,-11.0898,-11.1406,-11.1211,-10.9609,-10.9297,-10.8515,-10.6797,-10.6015,-10.5195,-10.4414,-10.4219,-10.4219,-10.4297,-10.5195,-10.5586,-10.5508,-10.5586,-10.539,-10.4995,-10.3699,-10.1189,0.0,0.0,0.0,0.0,0.0,0.0,0.0,-9.9055,-9.941,-9.9216,-10.1601,-10.2695,-10.289,-10.289,-10.289,-10.289,-10.289,-10.289,-10.289,-10.289,-10.3008,-10.3086,-10.3906,-10.3594,-10.3281,-10.3984,-10.4883,-10.5781,-10.6484,-10.7304,-10.7695,-10.6992,-10.6797,-10.6719,-10.6797,-10.6211,-10.6015,-10.7617,-10.8515,-10.9101,-10.9297,-11.0508,-11.1406,0.0,0.0,0.0,-11.1406,-10.7303,-10.4801,-10.6989,0.0,0.0,0.0,-10.0418,0.0,0.0,-9.9447,-10.2108,-10.7582,-10.9287,-11.0117,-11.0117,0.0,-11.3203,-11.3203,-11.3203,-11.2812,-11.1914,-11.1015,-10.9687,-10.8008,-10.789,-10.7383,-10.6601,-10.6719,-10.6719,-10.6719,-10.8515,-10.9218,-10.9492,-11.1211,-11.1914,-11.1992,-11.289,-11.3086,-11.3008,-10.9083,-10.9087,-10.9209,-10.9999,-10.9883,-11.0,-11.0508,-11.1289,-11.1797,-11.1406,-11.1718,-11.1406,-11.0195,-10.9609,-10.8789,-10.7617,-10.6289,-10.539,-10.5,-10.3984,-10.3398,-10.3398,-10.4297,-10.4492,-10.3984,-10.539,-10.5195,-10.3082,-10.3505,-10.1892,0.0,0.0,0.0,0.0,0.0,-9.811,-9.925,-9.9449,-9.992,-10.0702,-10.1718,-10.2383,-10.289,-10.289,-10.289,-10.289,-10.289,-10.289,-10.3008,-10.3515,-10.3984,-10.4297,-10.3594,-10.3906,-10.4297,-10.3594,-10.3984,-10.4883,-10.5781,-10.6211,-10.6719,-10.7304,-10.7109,-10.6797,-10.7383,-10.7187,-10.7187,-10.789,-10.8281,-10.8515,-10.8515,-10.9883,-11.0781,-10.9687,0.0,0.0,0.0,0.0,0.0,-10.6403,0.0,-10.2489,0.0,0.0,0.0,0.0,0.0,-9.7573,-10.191,-10.3085,0.0,-10.7382,0.0,-11.0585,-11.3203,-11.3203,-11.3008,-11.2695,-11.1797,-11.0703,-10.9492,-10.8984,-10.8593,-10.8203,-10.7695,-10.8086,-10.9101,-10.9804,-11.039,-11.1015,-11.2187,-11.2695,-11.2695,-11.3086,-11.3203,-11.3086,-11.0108,-10.9992,-10.9917,-11.1093,-11.0898,-11.0703,-11.1289,-11.1914,-11.2304,-11.2304,-11.2304,-11.1992,-11.1093,-11.0195,-10.9297,-10.8515,-10.6797,-10.5781,-10.5508,-10.4101,-10.3203,-10.289,-10.3515,-10.3594,-10.3281,-10.5312,-10.5195,-10.2693,-10.3391,0.0,0.0,0.0,0.0,0.0,-9.9205,-9.9994,-10.1013,-10.0389,-10.0898,-10.1992,-10.1992,-10.2383,-10.289,-10.289,-10.289,-10.289,-10.289,-10.3086,-10.3398,-10.3984,-10.4804,-10.5195,-10.3789,-10.3984,-10.4492,-10.3281,-10.3711,-10.4687,-10.5312,-10.5898,-10.6484,-10.7383,-10.7187,-10.6914,-10.75,-10.7617,-10.7695,-10.789,-10.8008,-10.8008,-10.8008,-10.9218,-10.9804,-10.8593,0.0,0.0,0.0,-10.871,0.0,-10.6012,-10.5307,-10.2882,-9.7518,-9.6229,0.0,0.0,0.0,0.0,0.0,0.0,0.0,0.0,0.0,0.0,0.0,-11.3203,-11.3203,-11.3203,-11.2304,-11.1406,-11.0586,-10.9414,-10.9101,-10.9297,-10.8593,-10.9218,-11.0586,-11.0898,-11.1289,-11.1992,-11.289,-11.3203,-11.3203,-11.3203,-11.3203,-11.3086,-11.3008,-11.3086,-11.3086,-11.3203,-11.3203,-11.3203,-11.3203,-11.3203,-11.3203,-11.3203,-11.3203,-11.289,-11.1992,-11.1093,-11.0195,-10.9414,-10.7695,-10.6289,-10.5586,-10.4687,-10.3789,-10.289,-10.289,-10.3281,-10.4219,-10.5117,-10.5508,-10.5508,0.0,0.0,-9.7653,0.0,-9.6671,-10.1519,-10.0699,-10.1209,-10.289,-10.289,-10.289,-10.289,-10.289,-10.289,-10.289,-10.289,-10.289,-10.289,-10.289,-10.3515,-10.4219,-10.4219,-10.4804,-10.5312,-10.4492,-10.3594,-10.289,-10.289,-10.4101,-10.5508,-10.5508,-10.6719,-10.7812,-10.6914,-10.6719,-10.6719,-10.6719,-10.6719,-10.6992,-10.7812,-10.8008,-10.8008,-10.8008,-10.8711,-10.9297,-10.9297,0.0,0.0,0.0,-11.1992,0.0,-10.7185,-11.0507,-10.9999,-10.2294,-10.0697,0.0,0.0,0.0,0.0,0.0,0.0,0.0,-10.5508,-11.0508,0.0,-11.3203,-11.3203,-11.3203,-11.3203,-11.2304,-11.1406,-11.0508,-10.8789,-10.8515,-10.9297,-10.9297,-10.9804,-11.0703,-11.1484,-11.1914,-11.1992,-11.289,-11.3203,-11.3203,-11.3203,-11.3203,-11.3203,-11.3008,-11.3203,-11.3203,-11.3203,-11.3203,-11.3203,-11.3203,-11.3203,-11.3203,-11.3203,-11.2695,-11.2187,-11.1914,-11.1093,-11.0,-10.8515,-10.6914,-10.5781,0.0,-10.4101,-10.3203,-10.289,-10.289,-10.3008,-10.3281,-10.4219,-10.4609,-10.4609,0.0,0.0,0.0,-9.8977,-9.9722,-10.0817,-10.1718,-10.2383,-10.289,-10.289,-10.289,-10.289,-10.289,-10.289,-10.289,-10.289,-10.289,-10.289,-10.289,-10.3515,-10.4219,-10.4219,-10.4804,-10.5508,-10.5195,-10.4492,-10.3906,-10.4492,-10.4609,-10.4883,-10.6015,-10.6719,-10.7187,-10.75,-10.7617,-10.7617,-10.7617,-10.7617,-10.7695,-10.789,-10.8008,-10.8008,-10.8008,-10.8711,-10.9492,-11.0117,-11.0703,0.0,-11.1406,0.0,-11.0898,-10.7107,-10.7888,-10.6911,-10.2097,-10.081,0.0,0.0,0.0,0.0,0.0,0.0,0.0,0.0,-10.6717,0.0,-11.3203,-11.3203,-11.3203,-11.3203,-11.2304,-11.1093,-10.9687,-10.9101,-10.9414,-11.0195,-11.0195,-11.1015,-11.2304,-11.1992,-11.2304,-11.2812,-11.3086,-11.3203,-11.3203,-11.3203,-11.3203,-11.3203,-11.3008,-11.3203,-11.3086,-11.2812,-11.2695,-11.2617,-11.2304,-11.2187,-11.2187,-11.2187,-11.1718,-11.1289,-11.1015,-11.039,0.0,-10.8593,-10.6914,-10.5781,-10.5508,-10.4219,-10.3203,-10.289,-10.289,-10.289,-10.289,-10.3789,0.0,-10.4219,-10.328,-10.2106,-10.0502,-10.1208,-10.1483,-10.1288,-10.2383,-10.289,-10.289,-10.289,-10.3086,-10.3398,-10.3008,-10.3086,-10.3398,-10.3008,-10.3086,-10.3398,-10.3398,-10.4101,-10.5117,-10.5117,-10.5508,-10.6015,-10.6289,-10.5586,-10.4804,-10.5312,-10.5312,-10.539,-10.6406,-10.6914,-10.7304,-10.789,-10.8008,-10.8008,-10.8008,-10.8008,-10.8008,-10.8008,-10.8008,-10.8008,-10.8008,-10.8398,-10.8984,-10.9492,-10.9883,-11.0195,-11.039,0.0,-11.0586,0.0,0.0,0.0,0.0,-10.4019,-10.2886,0.0,0.0,0.0,0.0,0.0,0.0,-10.3397,-10.7186,0.0,-11.3203,-11.3203,-11.3203,-11.3203,-11.1992,-11.0781,-10.9804,-10.9414,-11.0,-11.1093,-11.1093,-11.1914,-11.3203,-11.2617,-11.2695,-11.3203,-11.3203,-11.3203,-11.3203,-11.3203,-11.3203,-11.3203,-11.3008,-11.3203,-11.289,-11.2109,-11.1914,-11.1601,-11.0781,-11.0586,-11.0586,-11.0586,-11.0508,-11.0195,-10.9414,-10.9218,-10.9218,-10.9218,0.0,0.0,-10.5586,-10.4687,-10.3789,-10.3008,-10.289,-10.289,-10.289,-10.3711,-10.4101,-10.4219,-10.3515,-10.3086,-10.3008,-10.2187,-10.2187,-10.289,-10.289,-10.289,-10.289,-10.289,-10.3398,-10.4101,-10.3281,-10.3515,-10.4219,-10.3398,-10.3594,-10.4297,-10.4297,-10.5312,-10.6719,-10.6719,-10.6719,-10.6914,-10.7695,-10.6914,-10.5703,-10.5703,-10.6211,-10.6719,-10.6797,-10.7383,-10.8008,-10.8008,-10.8008,-10.8008,-10.8008,-10.8008,-10.8008,-10.8008,-10.8008,-10.8008,-10.8008,-10.8008,-10.8008,-10.8086,-10.8711,-10.8906,-10.8203,0.0,0.0,0.0,0.0,0.0,-11.3086,-10.9492,-10.7187,0.0,0.0,0.0,0.0,0.0,-10.2615,-10.6719,-11.1015,-11.3203,-11.3203,-11.3203,-11.3086,-11.3008,-11.1406,-11.0586,-11.0508,-10.9804,-11.039,-11.1914,-11.1992,-11.25,-11.3203,-11.3203,-11.3203,-11.3203,-11.3203,-11.3203,-11.3203,-11.3203,-11.3203,-11.3203,0.0,0.0,-11.3086,-11.289,-11.2304,-11.1797,-11.1601,-11.1015,-11.0586,-11.0586,-11.0,-10.9492,-10.9297,-10.8711,-10.8281,-10.8281,-10.7304,-10.6601,-10.6406,-10.5,-10.4101,-10.3906,-10.3281,-10.289,-10.289,-10.3086,-10.3515,-10.4219,-10.5312,-10.5117,-10.3906,-10.3711,-10.3281,-10.289,-10.289,-10.289,-10.289,-10.289,-10.3398,-10.4219,-10.3984,-10.4414,-10.5195,-10.5,-10.5,-10.5195,-10.5195,-10.5781,-10.6719,-10.6719,-10.7109,-10.7695,-10.789,-10.7695,-10.7383,-10.7383,-10.7109,-10.6797,-10.75,-10.7812,-10.8008,-10.8008,-10.8008,-10.8008,-10.8008,-10.8008,-10.8008,-10.8008,-10.8008,-10.8008,-10.8008,-10.8008,-10.8203,-10.8906,-10.8593,-10.8515,-10.8906,-10.9297,0.0,0.0,-11.1406,-11.2187,-11.3086,-11.2304,-11.1718,0.0,0.0,0.0,0.0,-10.7109,-10.6015,-10.7617,-11.1289,-11.3203,-11.3203,-11.3203,-11.25,-11.1211,-11.0781,-11.0312,-10.9609,-11.0781,-11.1484,-11.1914,-11.2617,-11.3008,-11.3203,-11.3203,-11.3203,-11.3203,-11.3203,-11.3203,-11.3203,-11.3203,-11.3203,-11.3203,-11.3203,-11.3203,-11.289,-11.2187,-11.1601,-11.1015,-11.0195,-10.9687,-10.9414,-10.9414,-10.8984,-10.8711,-10.8711,-10.8281,-10.8203,-10.8593,-10.7383,-10.6719,-10.6719,-10.5508,-10.4804,-10.4804,-10.3984,-10.3515,-10.3515,-10.3086,-10.3515,-10.4804,-10.6093,-10.6015,-10.4804,-10.4414,-10.3711,-10.289,-10.289,-10.289,-10.289,-10.3281,-10.3984,-10.4804,-10.4804,-10.5312,-10.6015,-10.5586,-10.5703,-10.6015,-10.6015,-10.6601,-10.7304,-10.7304,-10.7617,-10.8008,-10.8008,-10.8008,-10.8008,-10.8008,-10.7695,-10.7383,-10.789,-10.8008,-10.8008,-10.8008,-10.8008,-10.8008,-10.8008,-10.8008,-10.8008,-10.8008,-10.8008,-10.8008,-10.8008,-10.8008,-10.8203,-10.8593,-10.8281,-10.8203,-10.8593,-10.8711,0.0,-11.039,-11.1015,-11.1797,-11.3086,-11.3203,-11.3203,-11.3203,-11.1015,0.0,-11.3086,-11.1015,-10.9883,-11.039,-11.2187,-11.3203,-11.3203,-11.3203,-11.25,-11.1211,-11.1211,-11.0898,-11.0508,-11.1484,-11.2109,-11.25,-11.3008,-11.3203,-11.3203,-11.3203,-11.3203,-11.3203,-11.3203,-11.3203,-11.3203,-11.3203,-11.3203,-11.3203,-11.3203,-11.3086,-11.25,-11.1093,-11.0586,-10.9883,-10.8398,-10.8086,-10.8008,-10.8008,-10.8008,-10.8008,-10.8008,-10.8086,-10.8515,-10.9218,-10.8086,-10.7187,-10.7109,-10.6211,-10.5703,-10.5703,-10.4883,-10.4297,-10.4219,-10.3594,-10.4101,-10.5703,-10.6406,-10.6289,-10.5508,-10.4609,-10.3711,-10.289,-10.289,-10.289,-10.3008,-10.3789,-10.4687,-10.5508,-10.5586,-10.6211,-10.6797,-10.6093,-10.6406,-10.7109,-10.6914,-10.75,-10.8203,-10.8008,-10.8008,-10.8008,-10.8008,-10.8086,-10.8203,-10.8008,-10.8086,-10.8203,-10.8008,-10.8008,-10.8008,-10.8008,-10.8008,-10.8008,-10.8008,-10.8008,-10.8008,-10.8008,-10.8008,-10.8008,-10.8008,-10.8008,-10.8008,-10.8008,-10.7617,-10.7383,-10.789,0.0,-10.8008,-11.0195,-11.0508,-11.1211,-11.2812,-11.3086,-11.3203,-11.3203,-11.3203,-11.3203,-11.3203,-11.3203,-11.3203,-11.3203,-11.3203,-11.3203,-11.3203,-11.3086,-11.2617,-11.1914,-11.1914,-11.1914,-11.1914,-11.1992,-11.25,-11.3203,-11.3203,-11.3203,-11.3203,-11.3203,-11.3203,-11.3203,-11.3203,-11.3203,-11.3203,-11.3203,-11.3203,-11.3203,-11.3203,-11.2617,-11.1992,-11.1718,-11.0508,-10.9414,-10.9101,-10.8515,-10.8008,-10.8008,-10.8008,-10.8008,-10.8008,-10.8711,-10.9218,-10.9297,-10.9687,-10.9687,-10.8906,-10.7383,-10.6484,-10.6484,-10.5703,-10.5,-10.4219,-10.4804,-10.5586,-10.6484,-10.6601,-10.6289,-10.5508,-10.4609,-10.3711,-10.289,-10.289,-10.289,-10.3008,-10.3789,-10.4687,-10.5586,-10.6211,-10.6992,-10.7812,-10.7695,-10.8086,-10.8789,-10.8086,-10.8398,-10.8984,-10.8203,-10.8008,-10.8008,-10.8008,-10.8515,-10.8984,-10.8203,-10.8515,-10.8906,-10.8203,-10.8008,-10.8008,-10.8008,-10.8008,-10.8008,-10.8008,-10.8008,-10.8008,-10.8008,-10.8008,-10.8008,-10.8008,-10.8008,-10.8008,-10.8008,-10.5586,-10.4687,-10.7617,0.0,-10.5117,-10.8984,-11.0195,-11.1015,-11.1992,-11.2812,-11.3203,-11.3203,-11.3203,-11.3203,-11.3203,-11.3203,-11.3203,-11.3203,-11.3203,-11.3203,-11.3203,-11.25,-11.1992,-11.1914,-11.1914,-11.1914,-11.1914,-11.2695,-11.3086,-11.3203,-11.3203,-11.3203,-11.3203,-11.3203,-11.3203,-11.3203,-11.3203,-11.3203,-11.3203,-11.3203,-11.3203,-11.3203,-11.25,-11.2187,-11.1797,-11.1289,-11.0117,-10.9297,-10.9297,-10.8593,-10.8203,-10.8593,-10.8281,-10.8398,-10.9297,-10.9297,-10.9687,-11.0586,-11.0586,-11.0586,-11.0703,-10.9101,-10.8086,-10.8086,-10.6797,-10.5781,-10.4883,-10.5703,-10.6289,-10.6719,-10.6719,-10.6289,-10.5508,-10.4609,-10.3711,-10.289,-10.289,-10.3203,-10.3711,-10.4492,-10.539,-10.6211,-10.7109,-10.7617,-10.8008,-10.8008,-10.8203,-10.8515,-10.8086,-10.8281,-10.8515,-10.8086,-10.8008,-10.8086,-10.8593,-10.8984,-10.9297,-10.9414,-10.8984,-10.8515,-10.8086,-10.8008,-10.8008,-10.8008,-10.8008,-10.8008,-10.8008,-10.8008,-10.8008,-10.8008,-10.8008,-10.8008,-10.8008,-10.8008,-10.8008,-10.8008,-10.6719,0.0,0.0,-10.6601,-10.6601,-10.8984,-11.0117,-11.0898,-11.1797,-11.2695,-11.3203,-11.3203,-11.3203,-11.3203,-11.3203,-11.3203,-11.3203,-11.3203,-11.2695,-11.2695,-11.3203,-11.2304,-11.2109,-11.2617,-11.2617,-11.2617,-11.2617,-11.3008,-11.3203,-11.3203,-11.3203,-11.3203,-11.3203,-11.3203,-11.3203,-11.3203,-11.3203,-11.3203,-11.3203,-11.3203,-11.3203,-11.3203,-11.1601,-11.1406,-11.1093,-11.039,-10.9609,-10.8984,-10.8984,-10.8398,-10.8281,-10.9218,-10.8515,-10.8711,-11.039,-11.0,-11.0195,-11.1797,-11.1484,-11.1484,-11.2187,-11.0781,-10.9687,-10.9297,-10.7617,-10.6484,-10.6093,-10.6484,-10.6797,-10.6992,-10.6797,-10.6406,-10.5781,-10.4883,-10.4101,-10.3515,-10.3281,-10.3711,-10.4492,-10.5195,-10.6015,-10.6797,-10.7617,-10.8008,-10.8008,-10.8008,-10.8086,-10.8281,-10.8086,-10.8086,-10.8281,-10.8086,-10.8086,-10.8398,-10.9101,-10.9609,-11.0,-11.0508,-10.9687,-10.8593,-10.8593,-10.8593,-10.8593,-10.8398,-10.8281,-10.8203,-10.8008,-10.8008,-10.789,-10.7695,-10.789,-10.789,-10.7695,-10.789,-10.8008,-10.8008,0.0,0.0,0.0,-10.7304,-10.7383,-10.9101,-11.0117,-11.0898,-11.1797,-11.2695,-11.3203,-11.3203,-11.3203,-11.3203,-11.3203,-11.3203,-11.3203,-11.3203,-11.2383,-11.2304,-11.3203,-11.2304,-11.2304,-11.3203,-11.3203,-11.3203,-11.3203,-11.3203,-11.3203,-11.3203,-11.3203,-11.3203,-11.3203,-11.3203,-11.3203,-11.3203,-11.3203,-11.3203,-11.3203,-11.3203,-11.3203,-11.3203,-11.0703,-11.0,-10.9492,-10.9414,-10.8711,-10.8086,-10.8086,-10.8008,-10.8281,-10.9218,-10.8515,-10.8711,-11.039,-11.0508,-11.0898,-11.1797,-11.2617,-11.3008,-11.3086,-11.2187,-11.1015,-10.9414,-10.7617,-10.7109,-10.7812,-10.7109,-10.7109,-10.789,-10.7109,-10.6719,-10.6601,-10.5781,-10.539,-10.5312,-10.4492,-10.4609,-10.539,-10.5508,-10.6015,-10.6797,-10.7617,-10.8008,-10.8008,-10.8008,-10.8515,-10.9101,-10.8281,-10.8515,-10.9101,-10.8281,-10.8515,-10.9218,-10.9297,-11.039,-11.1601,-11.0781,-11.0508,-11.039,-11.039,-11.039,-11.0195,-10.9414,-10.9218,-10.8984,-10.8203,-10.8008,-10.7812,-10.6992,-10.7383,-10.7812,-10.6914,-10.75,-10.8008,-10.8008,0.0,0.0,-10.7617,-10.5312,-10.4804,-10.8789,-11.0117,-11.0898,-11.1797,-11.2695,-11.3203,-11.3203,-11.3203,-11.3203,-11.3203,-11.3203,-11.3203,-11.3203,-11.2383,-11.2304,-11.3203,-11.2304,-11.2304,-11.3203,-11.3203,-11.3203,-11.3203,-11.3203,-11.3203,-11.3203,-11.3203,-11.3203,-11.3203,-11.3203,-11.3203,-11.3203,-11.3203,-11.3203,-11.3203,-11.3203,-11.3203,-11.3203,-10.9804,-10.9492,-10.9297,-10.9297,-10.8593,-10.8203,-10.8711,-10.8789,-10.8906,-10.9297,-10.8984,-10.9297,-11.0508,-11.0586,-11.1015,-11.1797,-11.2695,-11.3203,-11.3203,-11.2383,-11.1406,-11.0195,-10.9492,-10.8984,-10.8789,-10.8515,-10.8203,-10.8008,-10.7109,-10.6719,-10.6719,-10.5898,-10.5508,-10.5508,-10.5195,-10.5508,-10.6211,-10.6211,-10.6719,-10.75,-10.789,-10.8008,-10.8008,-10.8008,-10.8203,-10.8515,-10.8086,-10.8203,-10.8515,-10.8711,-10.8984,-10.9492,-11.0586,-11.1406,-11.1914,-11.2187,-11.2187,-11.2187,-11.2187,-11.1015,-10.9687,-10.9414,-10.8906,-10.8398,-10.8086,-10.8008,-10.789,-10.7617,-10.7812,-10.789,-10.7617,-10.7812,-10.8008,-10.8008,0.0,-10.6484,-10.7812,-10.6914,-10.6914,-10.8984,-11.0117,-11.0898,-11.1797,-11.2695,-11.3203,-11.3203,-11.3203,-11.3203,-11.3203,-11.3203,-11.3203,-11.3203,-11.2383,-11.2304,-11.3203,-11.2304,-11.2304,-11.3203,-11.3203,-11.3203,-11.3203,-11.3203,-11.3203,-11.3203,-11.3203,-11.3203,-11.3203,-11.3203,-11.3203,-11.3203,-11.3203,-11.3203,-11.3203,-11.3203,-11.3203,-11.3203,-10.8906,-10.8906,-10.8906,-10.8906,-10.8593,-10.8593,-10.9218,-10.9492,-10.9804,-11.0117,-10.9883,-11.0117,-11.1289,-11.1211,-11.1406,-11.2187,-11.289,-11.3203,-11.3203,-11.2617,-11.1797,-11.0586,-11.0312,-10.9883,-10.9297,-10.8984,-10.8593,-10.8008,-10.7383,-10.7109,-10.7109,-10.6484,-10.6289,-10.6289,-10.6015,-10.6289,-10.7109,-10.6797,-10.7187,-10.8008,-10.8008,-10.8008,-10.8008,-10.8008,-10.8008,-10.8008,-10.8281,-10.8398,-10.8515,-10.9414,-10.9883,-11.0312,-11.1484,-11.2109,-11.2383,-11.3008,-11.3203,-11.3203,-11.3203,-11.1718,-11.0117,-10.9804,-10.9297,-10.8711,-10.8515,-10.8398,-10.8281,-10.8086,-10.8203,-10.8203,-10.7695,-10.7812,-10.8086,-10.8398,-10.8398,-10.8515,-10.8789,-10.8789,-10.9101,-11.0,-11.0586,-11.1406,-11.2187,-11.2812,-11.3203,-11.3203,-11.3203,-11.3203,-11.3203,-11.3203,-11.3203,-11.3203,-11.2617,-11.2617,-11.3203,-11.2304,-11.2304,-11.3203,-11.3203,-11.3203,-11.3203,-11.3203,-11.3203,-11.3203,-11.3203,-11.3203,-11.3203,-11.3203,-11.3203,-11.3203,-11.3203,-11.3203,-11.3203,-11.3203,-11.3203,-11.3203,-10.8008,-10.8008,-10.8008,-10.8008,-10.8711,-10.9297,-10.9297,-11.0117,-11.0898,-11.1797,-11.1093,-11.1289,-11.3008,-11.2383,-11.2187,-11.3086,-11.3203,-11.3203,-11.3203,-11.3203,-11.2383,-11.0703,-10.9804,-10.9297,-10.9297,-10.8515,-10.8008,-10.8008,-10.8008,-10.8008,-10.8008,-10.8008,-10.8008,-10.8008,-10.7109,-10.7187,-10.789,-10.7109,-10.7187,-10.8008,-10.8008,-10.8008,-10.8008,-10.8008,-10.8008,-10.8086,-10.8984,-10.9297,-10.9414,-11.0312,-11.1211,-11.1914,-11.1914,-11.25,-11.3203,-11.3203,-11.3203,-11.3203,-11.3203,-11.2617,-11.1718,-11.0781,-11.0586,-11.039,-10.9492,-10.9297,-10.9101,-10.8203,-10.8711,-10.8789,-10.6992,-10.7383,-10.8281,-10.9218,-10.9297,-10.9609,-11.0508,-11.0586,-11.0898,-11.1797,-11.1914,-11.2187,-11.3086,-11.3203,-11.3203,-11.3203,-11.3203,-11.3203,-11.3203,-11.3203,-11.3203,-11.3203,-11.3203,-11.3203,-11.3203,-11.2304,-11.2304,-11.3203,-11.3203,-11.3203,-11.3203,-11.3203,-11.3203,-11.3203,-11.3203,-11.3203,-11.3203,-11.3203,-11.3203,-11.3203,-11.3203,-11.3203,-11.3203,-11.3203,-11.3203,-11.3203,-10.8008,-10.8008,-10.8203,-10.8789,-10.9101,-10.9492,-11.0117,-11.1015,-11.1211,-11.0195,-11.0898,-11.1211,-11.0508,-11.1289,-11.1992,-11.2304,-11.2812,-11.3203,-11.3203,-11.3203,-11.3008,-11.2383,-11.1601,-11.0781,-11.0195,-10.9414,-10.8593,-10.8008,-10.8008,-10.8008,-10.8008,-10.8008,-10.8008,-10.8008,-10.7695,-10.7812,-10.8008,-10.7695,-10.7812,-10.8008,-10.8008,-10.8008,-10.8086,-10.8711,-10.8906,-10.8984,-10.9883,-11.0195,-11.0312,-11.1211,-11.1718,-11.1992,-11.2617,-11.3008,-11.3203,-11.3203,-11.3203,-11.3203,-11.3203,-11.3008,-11.25,-11.1015,-11.0586,-11.039,-10.9492,-10.9804,-11.0117,-10.9883,-10.9492,-10.9297,-10.9414,-10.8593,-10.8515,-11.0,-10.9687,-10.9609,-11.0508,-11.0586,-11.0898,-11.1797,-11.1914,-11.2187,-11.3086,-11.3203,-11.3203,-11.3203,-11.3203,-11.3203,-11.3203,-11.3203,-11.3203,-11.3203,-11.3203,-11.3203,-11.3203,-11.289,-11.289,-11.3203,-11.3203,-11.3203,-11.3203,-11.3203,-11.3203,-11.3203,-11.3203,-11.3203,-11.3203,-11.3203,-11.3203,-11.3203,-11.3203,-11.3203,-11.3203,-11.3203,-11.3203,-11.3203,-10.8008,-10.8281,-10.8711,-10.9218,-10.9609,-11.0117,-11.1015,-11.1601,-11.1484,-11.0508,-11.1484,-11.1797,-11.0,-11.1406,-11.2304,-11.1914,-11.2695,-11.3203,-11.3203,-11.3203,-11.3203,-11.3203,-11.2383,-11.1484,-11.0586,-10.9687,-10.8906,-10.8008,-10.8008,-10.8008,-10.8008,-10.8008,-10.8008,-10.8008,-10.8008,-10.8008,-10.8008,-10.8008,-10.8008,-10.8008,-10.8398,-10.8515,-10.8593,-10.9492,-10.9804,-10.9883,-11.0781,-11.1093,-11.1211,-11.2109,-11.2383,-11.25,-11.3008,-11.3203,-11.3203,-11.3203,-11.3008,-11.2695,-11.2695,-11.2383,-11.1797,-11.039,-11.0586,-11.1015,-11.039,-11.0703,-11.1093,-11.1093,-11.039,-10.9883,-11.0117,-10.9218,-10.8984,-11.039,-11.039,-11.0586,-11.1484,-11.1601,-11.1797,-11.2383,-11.2383,-11.2617,-11.3086,-11.3203,-11.3203,-11.3203,-11.3203,-11.3203,-11.3203,-11.3203,-11.3203,-11.3203,-11.3203,-11.3203,-11.3203,-11.3203,-11.3203,-11.3203,-11.3203,-11.3203,-11.3203,-11.3203,-11.3203,-11.3203,-11.3203,-11.3203,-11.3203,-11.3203,-11.3203,-11.3203,-11.3203,-11.3203,-11.3203,-11.3203,-11.3203,-11.3203,-10.8203,-10.8906,-10.9414,-10.9492,-11.0195,-11.1015,-11.1914,-11.1992,-11.1992,-11.1914,-11.2695,-11.2617,-11.0898,-11.2187,-11.289,-11.2109,-11.2695,-11.3203,-11.3203,-11.3203,-11.3203,-11.3203,-11.2383,-11.1601,-11.0703,-10.9883,-10.8984,-10.8203,-10.8203,-10.8086,-10.8086,-10.8008,-10.8008,-10.8008,-10.8008,-10.8008,-10.8008,-10.8086,-10.8086,-10.8203,-10.9101,-10.9414,-10.9492,-11.039,-11.0703,-11.0781,-11.1718,-11.1992,-11.2109,-11.289,-11.3203,-11.3203,-11.3203,-11.3203,-11.3203,-11.3203,-11.2617,-11.1992,-11.1992,-11.1406,-11.0586,-10.9804,-11.0781,-11.1992,-11.1797,-11.1914,-11.1992,-11.1992,-11.1289,-11.0508,-10.9804,-10.9492,-10.9687,-11.0703,-11.1406,-11.2187,-11.3086,-11.3203,-11.3203,-11.3203,-11.3203,-11.3203,-11.3203,-11.3203,-11.3203,-11.3203,-11.3203,-11.3203,-11.3203,-11.3203,-11.3203,-11.3203,-11.3203,-11.3203,-11.3203,-11.3203,-11.3203,-11.3203,-11.3203,-11.3203,-11.3203,-11.3203,-11.3203,-11.3203,-11.3203,-11.3203,-11.3203,-11.3203,-11.3203,-11.3203,-11.3203,-11.3203,-11.3203,-11.3203,-11.3203,-11.3203,-10.9883,-11.0195,-11.0508,-11.1211,-11.1484,-11.1914,-11.2812,-11.289,-11.2695,-11.1992,-11.2695,-11.2812,-11.1718,-11.2617,-11.3086,-11.289,-11.3086,-11.3203,-11.3203,-11.3203,-11.3203,-11.3203,-11.3008,-11.25,-11.1601,-11.0781,-11.0195,-11.0,-10.9414,-10.8984,-10.8984,-10.8281,-10.8008,-10.8008,-10.8008,-10.8008,-10.8008,-10.8711,-10.8984,-10.9101,-11.0,-11.0312,-11.039,-11.1289,-11.1601,-11.1718,-11.2617,-11.289,-11.289,-11.3086,-11.3203,-11.3203,-11.3203,-11.3203,-11.3203,-11.3203,-11.3086,-11.289,-11.289,-11.2812,-11.2383,-11.1601,-11.2109,-11.2617,-11.1211,-11.1914,-11.289,-11.289,-11.2187,-11.1797,-11.2304,-11.1211,-11.0781,-11.2383,-11.2187,-11.2187,-11.3086,-11.3203,-11.3203,-11.3203,-11.3203,-11.3203,-11.3203,-11.3203,-11.3203,-11.3203,-11.3203,-11.3203,-11.3203,-11.3203,-11.3203,-11.3203,-11.3203,-11.3203,-11.3203,-11.3203,-11.3203,-11.3203,-11.3203,-11.3203,-11.3203,-11.3203,-11.3203,-11.3203,-11.3203,-11.3203,-11.3203,-11.3203,-11.3203,-11.3203,-11.3203,-11.3203,-11.3203,-11.3203,-11.3203,-11.3203,-11.0508,-11.0898,-11.1406,-11.1797,-11.1914,-11.2187,-11.3086,-11.2812,-11.2383,-11.1992,-11.2695,-11.2695,-11.1406,-11.2383,-11.3203,-11.3203,-11.3203,-11.3203,-11.3203,-11.3203,-11.3203,-11.3203,-11.3203,-11.3008,-11.25,-11.2109,-11.1406,-11.0586,-11.0117,-10.9883,-10.9883,-10.8984,-10.8789,-10.9218,-10.8789,-10.8906,-10.9297,-10.9687,-10.9883,-11.0,-11.0898,-11.1211,-11.1289,-11.2187,-11.25,-11.2617,-11.3008,-11.3203,-11.3203,-11.3203,-11.3203,-11.3203,-11.3203,-11.3203,-11.3203,-11.3203,-11.289,-11.2617,-11.2617,-11.2304,-11.1914,-11.1406,-11.1914,-11.2304,-11.1406,-11.2187,-11.3203,-11.3203,-11.25,-11.1992,-11.25,-11.1797,-11.1484,-11.2383,-11.25,-11.2695,-11.3086,-11.3203,-11.3398,-11.3789,-11.3515,-11.3203,-11.3203,-11.3203,-11.3203,-11.3203,-11.3203,-11.3203,-11.3203,-11.3203,-11.3203,-11.3203,-11.3203,-11.3203,-11.3203,-11.3203,-11.3203,-11.3203,-11.3203,-11.3203,-11.3203,-11.3203,-11.3203,-11.3203,-11.3203,-11.3203,-11.3203,-11.3203,-11.3203,-11.3203,-11.3203,-11.3203,-11.3203,-11.3203,-11.3203,-11.3203,-11.1015,-11.1601,-11.2109,-11.2109,-11.2109,-11.2383,-11.3086,-11.2617,-11.2109,-11.2109,-11.2812,-11.2617,-11.1211,-11.2304,-11.3203,-11.3203,-11.3203,-11.3203,-11.3203,-11.3203,-11.3203,-11.3203,-11.3203,-11.3203,-11.3203,-11.3203,-11.25,-11.1015,-11.0898,-11.0781,-11.0781,-10.9883,-10.9883,-11.0586,-10.9804,-10.9883,-11.0586,-11.0781,-11.0781,-11.0898,-11.1797,-11.2109,-11.2187,-11.289,-11.3203,-11.3203,-11.3203,-11.3203,-11.3203,-11.3203,-11.3203,-11.3203,-11.3203,-11.3203,-11.3203,-11.3203,-11.2695,-11.2109,-11.2109,-11.1601,-11.1015,-11.0898,-11.1484,-11.2109,-11.1914,-11.2617,-11.3203,-11.3203,-11.2617,-11.2109,-11.2109,-11.2109,-11.2109,-11.2109,-11.2695,-11.3203,-11.3203,-11.3203,-11.3515,-11.4218,-11.3593,-11.3203,-11.3203,-11.3281,-11.3398,-11.3203,-11.3281,-11.3398,-11.3203,-11.3203,-11.3203,-11.3203,-11.3203,-11.3203,-11.3203,-11.3281,-11.3281,-11.3203,-11.3398,-11.3281,-11.3203,-11.3203,-11.3203,-11.3203,-11.3203,-11.3203,-11.3203,-11.3203,-11.3203,-11.3203,-11.3203,-11.3203,-11.3203,-11.3203,-11.3203,-11.3203,-11.2695,-11.289,-11.3008,-11.3008,-11.3008,-11.3086,-11.3203,-11.3086,-11.3008,-11.3008,-11.3086,-11.3086,-11.289,-11.3086,-11.3203,-11.3203,-11.3203,-11.3203,-11.3203,-11.3203,-11.3203,-11.3203,-11.3203,-11.3203,-11.3203,-11.3203,-11.3086,-11.2812,-11.2109,-11.1718,-11.1718,-11.0781,-11.0508,-11.0586,-11.0508,-11.0508,-11.0586,-11.1406,-11.1718,-11.1797,-11.2695,-11.3008,-11.3008,-11.3203,-11.3203,-11.3203,-11.3203,-11.3203,-11.3203,-11.3203,-11.3203,-11.3203,-11.3203,-11.3203,-11.3203,-11.3203,-11.3086,-11.3008,-11.3008,-11.289,-11.2695,-11.1914,-11.2383,-11.2812,-11.2109,-11.2617,-11.3203,-11.3203,-11.3086,-11.3008,-11.3008,-11.3008,-11.3008,-11.3008,-11.3086,-11.3203,-11.3203,-11.3203,-11.3203,-11.3398,-11.3281,-11.3203,-11.3203,-11.3906,-11.3984,-11.3281,-11.3906,-11.3984,-11.3203,-11.3203,-11.3203,-11.3203,-11.3203,-11.3203,-11.3203,-11.3906,-11.3906,-11.3203,-11.3984,-11.3906,-11.3203,-11.3203,-11.3203,-11.3203,-11.3203,-11.3203,-11.3203,-11.3203,-11.3203,-11.3203,-11.3203,-11.3203,-11.3203,-11.3203,-11.3203,-11.3203,-11.3086,-11.3203,-11.3203,-11.3203,-11.3203,-11.3203,-11.3203,-11.3203,-11.3203,-11.3203,-11.3203,-11.3203,-11.3203,-11.3203,-11.3203,-11.3203,-11.3203,-11.3203,-11.3203,-11.3203,-11.3203,-11.3203,-11.3203,-11.3203,-11.3203,-11.3203,-11.3203,-11.3203,-11.2812,-11.2617,-11.2617,-11.1718,-11.1601,-11.1992,-11.1484,-11.1601,-11.2109,-11.25,-11.2617,-11.2695,-11.3008,-11.3203,-11.3203,-11.3203,-11.3203,-11.3203,-11.3203,-11.3203,-11.3203,-11.3203,-11.3203,-11.3203,-11.3203,-11.3203,-11.3203,-11.3203,-11.3203,-11.3203,-11.3203,-11.3203,-11.3086,-11.2695,-11.289,-11.3086,-11.2695,-11.289,-11.3203,-11.3203,-11.3203,-11.3203,-11.3203,-11.3203,-11.3203,-11.3203,-11.3203,-11.3203,-11.3203,-11.3203,-11.3398,-11.3906,-11.4414,-11.4687,-11.4687,-11.5,-11.5117,-11.4609,-11.4492,-11.4297,-11.3906,-11.3515,-11.3203,-11.3203,-11.3203,-11.3398,-11.3906,-11.3789,-11.3789,-11.3906,-11.3789,-11.3593,-11.3203,-11.3203,-11.3203,-11.3203,-11.3203,-11.3203,-11.3203,-11.3203,-11.3203,-11.3203,-11.3203,-11.3203,-11.3203,-11.3203,-11.3203,-11.3203]},{"header":{"parameterUnit":"m.s-1","parameterCategory":1,"la1":30.6,"la2":28.766,"lo1":-90.7593,"lo2":-88.6598,"dx":0.0162,"dy":0.0183,"nx":116,"ny":114,"refTime":"2023-02-21T18:00:00:Z","depth":0,"parameterNumber":3,"parameterNumberName":"V-component_of_WINDS"},"data":[0.0,0.0,0.0,0.0,0.0,0.0,0.0,0.0,0.0,0.0,0.0,0.0,0.0,0.0,0.0,0.0,0.0,0.0,0.0,0.0,0.0,0.0,0.0,0.0,0.0,0.0,0.0,0.0,0.0,0.0,0.0,0.0,0.0,0.0,0.0,0.0,0.0,0.0,0.0,0.0,0.0,0.0,0.0,0.0,0.0,0.0,0.0,0.0,0.0,0.0,0.0,0.0,0.0,0.0,0.0,0.0,0.0,0.0,0.0,0.0,0.0,0.0,0.0,0.0,0.0,0.0,0.0,0.0,0.0,0.0,0.0,0.0,0.0,0.0,0.0,0.0,0.0,0.0,0.0,0.0,0.0,0.0,0.0,0.0,0.0,0.0,0.0,0.0,0.0,0.0,0.0,0.0,0.0,0.0,0.0,0.0,0.0,0.0,0.0,0.0,0.0,0.0,0.0,0.0,0.0,0.0,0.0,0.0,0.0,0.0,0.0,0.0,0.0,0.0,0.0,0.0,0.0,0.0,0.0,0.0,0.0,0.0,0.0,0.0,0.0,0.0,0.0,0.0,0.0,0.0,0.0,0.0,0.0,0.0,0.0,0.0,0.0,0.0,0.0,0.0,0.0,0.0,0.0,0.0,0.0,0.0,0.0,0.0,0.0,0.0,0.0,0.0,0.0,0.0,0.0,0.0,0.0,0.0,0.0,0.0,0.0,0.0,0.0,0.0,0.0,0.0,0.0,0.0,0.0,0.0,0.0,0.0,0.0,0.0,0.0,0.0,0.0,0.0,0.0,0.0,0.0,0.0,0.0,0.0,0.0,0.0,0.0,0.0,0.0,0.0,0.0,0.0,0.0,0.0,0.0,0.0,0.0,0.0,0.0,0.0,0.0,0.0,0.0,0.0,0.0,0.0,0.0,0.0,0.0,0.0,0.0,0.0,0.0,0.0,0.0,0.0,0.0,0.0,0.0,0.0,0.0,0.0,0.0,0.0,0.0,0.0,0.0,0.0,0.0,0.0,0.0,0.0,0.0,0.0,0.0,0.0,0.0,0.0,0.0,0.0,0.0,0.0,0.0,0.0,0.0,0.0,0.0,0.0,0.0,0.0,0.0,0.0,0.0,0.0,0.0,0.0,0.0,0.0,0.0,0.0,0.0,0.0,0.0,0.0,0.0,0.0,0.0,0.0,0.0,0.0,0.0,0.0,0.0,0.0,0.0,0.0,0.0,0.0,0.0,0.0,0.0,0.0,0.0,0.0,0.0,0.0,0.0,0.0,0.0,0.0,0.0,0.0,0.0,0.0,0.0,0.0,0.0,0.0,0.0,0.0,0.0,0.0,0.0,0.0,0.0,0.0,0.0,0.0,0.0,0.0,0.0,0.0,0.0,0.0,0.0,0.0,0.0,0.0,0.0,0.0,0.0,0.0,0.0,0.0,0.0,0.0,0.0,0.0,0.0,0.0,0.0,0.0,0.0,0.0,0.0,0.0,0.0,0.0,0.0,0.0,0.0,0.0,0.0,0.0,0.0,0.0,0.0,0.0,0.0,0.0,0.0,0.0,0.0,0.0,0.0,0.0,0.0,0.0,0.0,0.0,0.0,0.0,0.0,0.0,0.0,0.0,0.0,0.0,0.0,0.0,0.0,0.0,0.0,0.0,0.0,0.0,0.0,0.0,0.0,0.0,0.0,0.0,0.0,0.0,0.0,0.0,0.0,0.0,0.0,0.0,0.0,0.0,0.0,0.0,0.0,0.0,0.0,0.0,0.0,0.0,0.0,0.0,0.0,0.0,0.0,0.0,0.0,0.0,0.0,0.0,0.0,0.0,0.0,0.0,0.0,0.0,0.0,0.0,0.0,0.0,0.0,0.0,0.0,0.0,0.0,0.0,0.0,0.0,0.0,0.0,0.0,0.0,0.0,0.0,0.0,0.0,0.0,0.0,0.0,0.0,0.0,0.0,0.0,0.0,0.0,0.0,0.0,0.0,0.0,0.0,0.0,0.0,0.0,0.0,0.0,0.0,0.0,0.0,0.0,0.0,0.0,0.0,0.0,0.0,0.0,0.0,0.0,0.0,0.0,0.0,0.0,0.0,0.0,0.0,0.0,0.0,0.0,0.0,0.0,0.0,0.0,0.0,0.0,0.0,0.0,0.0,0.0,0.0,0.0,0.0,0.0,0.0,0.0,0.0,0.0,0.0,0.0,0.0,0.0,0.0,0.0,0.0,0.0,0.0,0.0,0.0,0.0,0.0,0.0,0.0,0.0,0.0,0.0,0.0,0.0,0.0,0.0,0.0,0.0,0.0,0.0,0.0,0.0,0.0,0.0,0.0,0.0,0.0,0.0,0.0,0.0,0.0,0.0,0.0,0.0,0.0,0.0,0.0,0.0,0.0,0.0,0.0,0.0,0.0,0.0,0.0,0.0,0.0,0.0,0.0,0.0,0.0,0.0,0.0,0.0,0.0,0.0,0.0,0.0,0.0,0.0,0.0,0.0,0.0,0.0,0.0,0.0,0.0,0.0,0.0,0.0,0.0,0.0,0.0,0.0,0.0,0.0,0.0,0.0,0.0,0.0,0.0,0.0,0.0,0.0,0.0,0.0,0.0,0.0,0.0,0.0,0.0,0.0,0.0,0.0,0.0,0.0,0.0,0.0,0.0,0.0,0.0,0.0,0.0,0.0,0.0,0.0,0.0,0.0,0.0,0.0,0.0,0.0,0.0,0.0,0.0,0.0,0.0,0.0,0.0,0.0,0.0,0.0,0.0,0.0,0.0,0.0,0.0,0.0,0.0,0.0,0.0,0.0,0.0,0.0,0.0,0.0,0.0,0.0,0.0,0.0,0.0,0.0,0.0,0.0,0.0,0.0,0.0,0.0,0.0,0.0,0.0,0.0,0.0,0.0,0.0,0.0,0.0,0.0,0.0,0.0,0.0,0.0,0.0,0.0,0.0,0.0,0.0,0.0,0.0,0.0,0.0,0.0,0.0,0.0,0.0,0.0,0.0,0.0,0.0,0.0,0.0,0.0,0.0,0.0,0.0,0.0,0.0,0.0,0.0,0.0,0.0,0.0,0.0,0.0,0.0,0.0,0.0,0.0,0.0,0.0,0.0,0.0,0.0,0.0,0.0,0.0,0.0,0.0,0.0,0.0,0.0,0.0,0.0,0.0,0.0,0.0,0.0,0.0,0.0,0.0,0.0,0.0,0.0,0.0,0.0,0.0,0.0,0.0,0.0,0.0,0.0,0.0,0.0,0.0,0.0,0.0,0.0,0.0,0.0,0.0,0.0,0.0,0.0,0.0,0.0,0.0,0.0,0.0,0.0,0.0,0.0,0.0,0.0,0.0,0.0,0.0,0.0,0.0,0.0,0.0,0.0,0.0,0.0,0.0,0.0,0.0,0.0,0.0,0.0,0.0,0.0,0.0,0.0,0.0,0.0,0.0,0.0,0.0,0.0,0.0,0.0,0.0,0.0,0.0,0.0,0.0,0.0,0.0,0.0,0.0,0.0,0.0,0.0,0.0,0.0,0.0,0.0,0.0,0.0,0.0,0.0,0.0,0.0,0.0,0.0,0.0,0.0,0.0,0.0,0.0,0.0,0.0,0.0,0.0,0.0,0.0,0.0,0.0,0.0,0.0,0.0,0.0,0.0,0.0,0.0,0.0,0.0,0.0,0.0,0.0,0.0,0.0,0.0,0.0,0.0,0.0,0.0,0.0,0.0,0.0,0.0,0.0,0.0,0.0,0.0,0.0,0.0,0.0,0.0,0.0,0.0,0.0,0.0,0.0,0.0,0.0,0.0,0.0,0.0,0.0,0.0,0.0,0.0,0.0,0.0,0.0,0.0,0.0,0.0,0.0,0.0,0.0,0.0,0.0,0.0,0.0,0.0,0.0,0.0,0.0,0.0,0.0,0.0,0.0,0.0,0.0,0.0,0.0,0.0,0.0,0.0,0.0,0.0,0.0,0.0,0.0,0.0,0.0,0.0,0.0,0.0,0.0,0.0,0.0,0.0,0.0,0.0,0.0,0.0,0.0,0.0,0.0,0.0,0.0,0.0,0.0,0.0,0.0,0.0,0.0,0.0,0.0,0.0,0.0,0.0,0.0,0.0,0.0,0.0,0.0,0.0,0.0,0.0,0.0,0.0,0.0,0.0,0.0,0.0,0.0,0.0,0.0,0.0,0.0,0.0,0.0,0.0,0.0,0.0,0.0,0.0,0.0,0.0,0.0,0.0,0.0,0.0,0.0,0.0,0.0,0.0,0.0,0.0,0.0,0.0,0.0,0.0,0.0,0.0,0.0,0.0,0.0,0.0,0.0,0.0,0.0,0.0,0.0,0.0,0.0,0.0,0.0,0.0,0.0,0.0,0.0,0.0,0.0,0.0,0.0,0.0,0.0,0.0,0.0,0.0,0.0,0.0,0.0,0.0,0.0,0.0,0.0,0.0,0.0,0.0,0.0,0.0,0.0,0.0,0.0,0.0,0.0,0.0,0.0,0.0,0.0,0.0,0.0,0.0,0.0,0.0,0.0,0.0,0.0,0.0,0.0,0.0,0.0,0.0,0.0,0.0,0.0,0.0,0.0,0.0,0.0,0.0,0.0,0.0,0.0,0.0,0.0,0.0,0.0,0.0,0.0,0.0,0.0,0.0,0.0,0.0,0.0,0.0,0.0,0.0,0.0,0.0,0.0,0.0,0.0,0.0,0.0,0.0,0.0,0.0,0.0,0.0,0.0,0.0,0.0,0.0,0.0,0.0,0.0,0.0,0.0,0.0,0.0,0.0,0.0,0.0,0.0,0.0,0.0,0.0,0.0,0.0,0.0,0.0,0.0,0.0,0.0,0.0,0.0,0.0,0.0,0.0,0.0,0.0,0.0,0.0,0.0,0.0,0.0,0.0,0.0,0.0,0.0,0.0,0.0,0.0,0.0,0.0,0.0,0.0,0.0,0.0,0.0,0.0,0.0,0.0,0.0,0.0,0.0,0.0,0.0,0.0,0.0,0.0,0.0,0.0,0.0,0.0,0.0,0.0,0.0,0.0,0.0,0.0,0.0,0.0,0.0,0.0,0.0,0.0,0.0,0.0,0.0,0.0,0.0,0.0,0.0,0.0,0.0,0.0,0.0,0.0,0.0,0.0,0.0,0.0,0.0,0.0,0.0,0.0,0.0,0.0,0.0,0.0,0.0,0.0,0.0,0.0,0.0,0.0,0.0,0.0,0.0,0.0,0.0,0.0,0.0,0.0,0.0,0.0,0.0,0.0,0.0,0.0,0.0,0.0,0.0,0.0,0.0,0.0,0.0,0.0,0.0,0.0,0.0,0.0,0.0,0.0,0.0,0.0,0.0,0.0,0.0,0.0,0.0,0.0,0.0,0.0,0.0,0.0,0.0,0.0,0.0,0.0,0.0,0.0,0.0,0.0,0.0,0.0,0.0,0.0,0.0,0.0,0.0,0.0,0.0,0.0,0.0,0.0,0.0,0.0,0.0,0.0,0.0,0.0,0.0,0.0,0.0,0.0,0.0,0.0,0.0,0.0,0.0,0.0,0.0,0.0,0.0,0.0,0.0,0.0,0.0,0.0,0.0,0.0,0.0,0.0,0.0,0.0,0.0,0.0,0.0,0.0,0.0,0.0,0.0,0.0,0.0,0.0,0.0,0.0,0.0,0.0,0.0,0.0,0.0,0.0,0.0,0.0,0.0,0.0,0.0,0.0,0.0,0.0,0.0,0.0,0.0,0.0,0.0,0.0,0.0,0.0,0.0,0.0,0.0,0.0,0.0,0.0,0.0,0.0,0.0,0.0,0.0,0.0,0.0,0.0,0.0,0.0,0.0,0.0,0.0,0.0,0.0,0.0,0.0,0.0,0.0,0.0,0.0,0.0,0.0,0.0,0.0,0.0,0.0,0.0,0.0,0.0,0.0,0.0,0.0,0.0,0.0,0.0,0.0,0.0,0.0,0.0,0.0,0.0,0.0,0.0,0.0,0.0,0.0,0.0,0.0,0.0,0.0,0.0,0.0,0.0,0.0,0.0,0.0,0.0,0.0,0.0,0.0,0.0,0.0,0.0,0.0,0.0,0.0,0.0,0.0,0.0,0.0,0.0,0.0,0.0,0.6988,0.5976,0.0,0.0,0.0,0.0,0.0,0.0,0.0,0.0,0.0,0.0,0.0,0.0,0.0,0.0,0.0,0.0,0.0,0.0,0.0,0.0,0.0,0.0,0.0,0.0,0.0,0.0,0.0,0.0,0.0,0.0,0.0,0.0,0.0,0.0,0.0,0.0,0.0,0.0,0.0,0.0,0.0,0.0,0.0,0.0,0.0,0.0,0.0,0.0,0.0,0.0,0.0,0.0,0.0,0.0,0.0,0.0,0.0,0.0,0.0,0.0,0.0,0.0,0.0,0.0,0.0,0.0,0.0,0.0,0.0,0.0,0.0,0.0,0.0,0.0,0.0,0.0,0.0,0.0,0.0,0.0,0.0,0.0,0.0,0.0,0.0,0.0,0.0,0.0,0.0,0.0,0.0,0.0,0.0,0.0,0.0,0.0,0.0,0.0,0.0,0.0,0.0,0.0,0.0,0.0,0.0,0.0,0.0,0.0,0.0,0.0,0.0,0.0,0.0,0.0,0.9385,0.789,0.0,0.0,0.0,0.0,0.0,0.0,0.0,0.0,0.0,0.0,0.0,0.0,0.0,0.0,0.0,0.0,0.0,0.0,0.0,0.0,0.0,0.0,0.0,0.0,0.0,0.0,0.0,0.0,0.0,0.0,0.0,0.0,0.0,0.0,0.0,0.0,0.0,0.0,0.0,0.0,0.0,0.0,0.0,0.0,0.0,0.0,0.0,0.0,0.0,0.0,0.0,0.0,0.0,0.0,0.0,0.0,0.0,0.0,0.0,0.0,0.0,0.0,0.0,0.0,0.0,0.0,0.0,0.0,0.0,0.0,0.0,0.0,0.0,0.0,0.0,0.0,0.0,0.0,0.0,0.0,0.0,0.0,0.0,0.0,0.0,0.0,0.0,0.0,0.0,0.0,0.0,0.0,0.0,0.0,0.0,0.0,0.0,0.0,0.0,0.0,0.0,0.0,0.0,0.0,0.0,0.0,0.0,0.0,1.315,1.3676,1.3984,1.438,1.4468,1.4143,1.1336,0.9912,0.9486,0.8798,0.0,0.0,0.0,0.0,0.0,0.0,0.0,0.0,0.0,0.0,0.0,0.0,0.0,0.0,0.0,0.0,0.0,0.0,0.0,0.0,0.0,0.0,0.0,0.0,0.0,0.0,0.0,0.0,0.0,0.0,0.0,0.0,0.0,0.0,0.0,0.0,0.0,0.0,-1.4786,-1.216,-1.1037,-1.1339,-1.0909,0.0,0.0,0.0,0.0,0.0,0.0,0.0,0.0,0.0,0.0,0.0,0.0,0.0,0.0,0.0,0.0,0.0,0.0,0.0,0.0,0.0,0.0,0.0,0.0,0.0,0.0,0.0,0.0,0.0,0.0,0.0,0.0,0.0,0.0,0.0,0.0,0.0,0.0,0.0,0.0,0.0,0.0,0.0,0.3592,0.4596,0.0,0.0,0.0,0.0,0.0,0.0,0.0,0.0,0.0,0.0,0.0,0.0,0.0,1.2685,1.4689,1.3866,1.3846,1.444,1.4096,1.3881,1.364,1.4048,1.4061,1.3826,1.3572,0.0,1.2246,1.0921,0.0,0.0,0.0,0.0,0.0,0.0,0.0,0.0,0.0,0.0,0.0,0.0,0.0,0.0,0.0,0.0,0.0,0.0,0.0,0.0,0.0,0.0,0.0,0.0,0.0,0.0,0.0,0.0,0.0,0.0,0.0,0.0,0.0,0.0,0.0,0.0,-1.5123,-1.4964,-1.3768,-1.2408,-1.0987,-0.9745,-1.1067,-1.1112,-1.0312,-1.2669,0.0,0.0,0.0,0.0,0.0,0.0,0.0,0.0,0.0,0.0,0.0,0.0,0.0,0.0,0.0,0.0,0.0,0.0,0.0,0.0,0.0,0.0,0.0,0.0,0.0,0.0,0.0,0.0,0.0,0.0,0.0,0.0,0.0,0.0,0.0,0.0,0.0,0.0,0.0,0.1612,0.4111,0.4938,0.6812,0.8024,0.0,0.0,0.0,0.0,0.0,0.0,0.0,0.0,0.0,1.3789,1.3733,1.3918,1.4465,1.4087,1.3985,1.4159,1.3991,1.3871,1.3749,1.3878,1.3905,1.3851,1.4007,1.38,1.3365,1.3299,1.2346,1.1038,0.0,0.0,0.0,0.0,1.0664,1.0773,0.0,0.0,0.0,0.0,0.0,0.0,0.0,0.0,0.0,0.0,0.0,0.0,0.0,0.0,0.0,0.0,0.0,0.0,0.0,0.0,0.0,0.0,0.0,0.0,0.0,0.0,0.0,0.0,-1.5898,-1.5264,-1.3574,-1.2848,-1.1451,-0.9655,-1.1678,-1.193,-1.1047,-1.375,-1.4078,0.0,0.0,0.0,0.0,0.0,0.0,0.0,0.0,0.0,0.0,0.0,0.0,0.0,0.0,0.0,0.0,0.0,0.0,0.0,0.0,0.0,0.0,0.0,0.0,0.0,0.0,0.0,0.0,0.0,0.0,0.0,0.0,0.0,0.0,0.0,0.0,0.0,0.0,0.342,0.5291,0.6528,0.9324,1.1171,0.0,0.0,0.0,0.0,0.0,0.0,1.3138,1.3253,1.3592,1.4401,1.4493,1.4242,1.3688,1.379,1.379,1.3682,1.379,1.3824,1.379,1.3738,1.3824,1.3797,1.3946,1.3946,1.3871,1.4734,1.3898,1.2281,1.3625,1.3592,1.2638,1.3232,1.3472,1.3602,0.0,0.0,0.0,0.0,0.0,0.0,0.0,0.0,0.0,0.0,0.0,0.0,0.0,0.0,0.0,0.0,0.0,0.0,0.0,0.0,0.0,0.0,0.0,0.0,0.0,0.0,0.0,-1.5821,-1.617,-1.6374,-1.6423,-1.3702,-1.2505,-1.2495,-1.2596,-1.24,-1.2007,-1.4241,-1.488,-1.4158,0.0,0.0,0.0,0.0,0.0,0.0,0.0,0.0,0.0,0.0,0.0,0.0,0.0,0.0,0.0,0.0,0.0,0.0,0.0,0.0,0.0,0.0,0.0,0.0,0.0,0.0,0.0,0.0,0.0,0.0,0.0,0.0,0.0,0.0,0.0,0.0,0.0,0.0,0.0,1.1513,1.2932,0.0,0.0,0.0,0.0,1.2656,1.2418,1.2865,1.437,1.417,1.4095,1.4095,1.3933,1.3844,1.3831,1.3838,1.3838,1.3831,1.3838,1.377,1.3648,1.3777,1.377,1.3648,1.379,1.3844,1.3865,1.4183,1.4224,1.4035,1.4332,1.4622,1.4844,1.5014,1.5272,1.5384,0.0,0.0,0.0,0.0,0.0,0.0,0.0,0.0,0.0,0.0,0.0,0.0,0.0,0.0,0.0,0.0,0.0,0.0,0.0,0.0,0.0,0.0,0.0,0.0,0.0,0.0,-1.5497,-1.6053,-1.6383,-1.67,-1.6897,-1.5838,-1.5438,-1.5487,-1.5487,-1.5382,-1.5277,-1.6026,-1.5815,-1.4967,-1.4551,-1.3418,0.0,0.0,0.0,0.0,0.0,0.0,0.0,0.0,0.0,0.0,0.0,0.0,0.0,0.0,0.0,0.0,0.0,0.0,0.0,0.0,0.0,0.0,0.0,0.0,0.0,0.0,0.0,0.0,0.0,0.0,0.0,0.0,0.0,0.0,0.0,0.0,0.0,1.129,1.3849,0.0,1.5023,1.4646,1.4358,1.4408,1.3841,1.366,1.4231,1.3946,1.3878,1.4068,1.3919,1.3797,1.3702,1.3797,1.3797,1.3702,1.3797,1.377,1.3634,1.3682,1.3627,1.3492,1.3641,1.3648,1.358,1.3878,1.3919,1.3804,1.4,1.4143,1.4251,1.4524,1.4771,1.4853,0.0,0.0,0.0,0.0,0.0,0.0,0.0,0.0,0.0,0.0,0.0,0.0,0.0,0.0,0.0,0.0,0.0,0.0,0.0,0.0,0.0,0.0,0.0,0.0,0.0,-1.513,-1.5996,-1.6197,-1.6567,-1.6829,-1.6978,-1.6978,-1.6978,-1.6978,-1.6978,-1.6978,-1.6978,-1.6978,-1.6525,-1.5739,-1.548,-1.4365,-1.2736,0.0,0.0,0.0,0.0,0.0,0.0,0.0,0.0,0.0,0.0,0.0,0.0,0.0,0.0,0.0,0.0,0.0,0.0,0.0,0.0,0.0,0.0,0.0,0.0,0.0,0.0,0.0,0.0,0.0,0.0,0.0,0.0,0.0,0.0,0.8102,1.1383,1.2071,1.4591,1.6297,1.6386,1.609,1.5647,1.516,1.4448,1.4075,1.4075,1.3838,1.379,1.3987,1.3946,1.3871,1.3777,1.3919,1.3946,1.3858,1.3899,1.3871,1.3777,1.3675,1.36,1.3546,1.3553,1.3526,1.3492,1.3634,1.3634,1.3573,1.3763,1.3838,1.3878,1.419,1.436,1.4455,0.0,0.0,0.0,0.0,0.0,0.0,0.0,0.0,0.0,0.0,0.0,0.0,0.0,0.0,0.0,0.0,0.0,0.0,0.0,0.0,0.0,0.0,0.0,0.0,0.0,-1.5789,-1.6025,-1.653,-1.668,-1.6836,-1.6978,-1.6978,-1.6978,-1.6978,-1.6978,-1.6985,-1.6985,-1.6985,-1.6897,-1.6671,-1.6282,-1.5493,-1.4329,0.0,0.0,0.0,0.0,0.0,0.0,0.0,0.0,0.0,0.0,0.0,0.0,0.0,0.0,0.0,0.0,0.0,0.0,0.0,0.0,0.0,0.0,0.0,0.0,0.0,0.0,0.0,0.0,0.0,0.0,0.0,0.0,0.0,0.7052,0.9692,1.233,1.4355,1.5384,1.5664,1.5275,1.537,1.5287,1.4733,1.4326,1.4082,1.4082,1.3933,1.3851,1.3858,1.4,1.4075,1.4075,1.4224,1.4299,1.4292,1.415,1.4075,1.4061,1.377,1.3709,1.3817,1.3526,1.3485,1.3607,1.3464,1.3403,1.3431,1.3715,1.3831,1.3871,1.417,1.4285,1.4285,0.0,0.0,0.0,0.0,0.0,0.0,0.0,0.0,0.0,0.0,0.0,0.0,0.0,0.0,0.0,0.0,0.0,0.0,0.0,0.0,0.0,0.0,0.0,0.0,0.0,0.0,0.0,0.0,0.0,0.0,0.0,0.0,0.0,0.0,0.0,-1.7039,-1.7127,-1.7026,-1.7019,-1.7053,-1.6674,-1.593,-1.506,0.0,0.0,0.0,0.0,0.0,0.0,0.0,0.0,0.0,0.0,0.0,0.0,0.0,0.0,0.0,0.0,0.0,0.0,0.0,0.0,0.0,0.0,0.0,0.0,0.0,0.0,0.0,0.0,0.0,0.0,0.0,0.5825,0.7938,0.9091,1.2065,1.4128,1.423,1.5053,1.552,1.5201,1.5197,1.4998,1.459,1.4367,1.4238,1.4238,1.4095,1.4061,1.417,1.4217,1.4183,1.4075,1.4224,1.4245,1.4136,1.4204,1.4177,1.4061,1.3871,1.3749,1.3675,1.3485,1.3424,1.3458,1.3417,1.3403,1.341,1.3492,1.3587,1.3695,1.3783,1.3878,1.3966,0.0,0.0,0.0,0.0,0.0,0.0,0.0,0.0,0.0,0.0,0.0,0.0,0.0,0.0,0.0,0.0,0.0,0.0,0.0,0.0,0.0,0.0,0.0,0.0,0.0,0.0,0.0,0.0,0.0,0.0,0.0,0.0,0.0,0.0,0.0,0.0,0.0,0.0,0.0,-1.7175,-1.6937,-1.6407,-1.5673,-1.553,-1.5036,-1.4381,-1.3817,-1.3822,-1.3362,-0.9341,0.0,0.0,0.0,0.0,0.0,0.0,0.0,0.0,0.0,0.0,0.0,0.0,0.0,0.0,0.0,0.0,0.0,0.0,0.0,0.0,0.0,0.0,0.0,0.0,0.6876,0.8562,1.0572,1.2476,1.3551,1.3183,1.258,1.2207,1.2021,1.2945,1.3355,1.3144,1.4017,1.455,1.4489,1.4401,1.4394,1.4482,1.4421,1.4346,1.4258,1.4285,1.4258,1.417,1.4258,1.4251,1.4163,1.4007,1.3926,1.3899,1.3682,1.362,1.3675,1.3546,1.3498,0.0,0.0,0.0,0.0,0.0,1.3627,1.3743,0.0,0.0,0.0,0.0,0.0,0.0,0.0,0.0,0.0,0.0,0.0,0.0,0.0,0.0,0.0,0.0,0.0,0.0,0.0,0.0,0.0,0.0,0.0,0.0,0.0,0.0,0.0,0.0,0.0,0.0,0.0,0.0,0.0,0.0,0.0,0.0,0.0,0.0,0.0,0.0,0.0,0.0,-1.6437,-1.6307,-1.6022,-1.5567,-1.4889,-1.4603,-1.3856,-0.8625,0.0,0.0,0.0,0.0,0.0,0.0,0.0,0.0,0.0,0.0,0.0,0.0,0.0,0.0,0.0,0.0,0.0,0.0,0.0,0.0,0.0,0.0,0.0,0.0,0.7501,0.8467,1.0968,1.1016,1.0861,1.1347,0.9146,0.7629,0.7668,0.962,1.1055,1.1242,1.3291,1.4646,1.4774,1.4746,0.0,0.0,0.0,1.4529,1.4509,1.4387,1.4326,1.4326,1.4306,1.4319,1.4346,1.4156,1.4156,1.4285,1.3973,1.3919,1.4027,1.3763,1.3641,1.3614,1.3458,1.3403,1.3403,1.3403,1.3485,1.3587,0.0,0.0,0.0,0.0,0.0,0.0,0.0,0.0,0.0,0.0,0.0,0.0,0.0,0.0,0.0,0.0,0.0,0.0,0.0,0.0,0.0,0.0,0.0,0.0,0.0,0.0,0.0,0.0,0.0,0.0,0.0,0.0,0.0,0.0,0.0,0.0,0.0,0.0,0.0,0.0,0.0,0.0,-1.6976,-1.6949,-1.6956,-1.6849,-1.6578,-1.6584,-1.5785,-0.9969,-0.8186,-0.7279,-0.126,0.0,0.0,0.0,0.0,0.0,0.0,0.0,0.0,0.0,0.0,0.0,0.0,0.0,0.0,0.0,0.0,0.0,0.0,0.0,0.0,0.4041,0.4729,0.575,0.8409,0.682,0.6309,0.8515,0.8144,0.78,0.7787,0.8062,0.922,1.1173,1.1752,1.2812,1.4837,1.4808,1.474,1.474,1.4713,1.4638,1.4516,1.4482,1.4468,1.4468,0.0,0.0,1.4638,1.4251,1.4156,1.4285,1.3973,1.3858,1.3878,1.3824,1.3736,1.3614,1.3458,1.3403,1.3403,1.3403,1.3417,1.3444,0.0,0.0,0.0,0.0,0.0,0.0,0.0,0.0,0.0,0.0,0.0,0.0,0.0,0.0,0.0,0.0,0.0,0.0,0.0,0.0,0.0,0.0,0.0,0.0,0.0,0.0,0.0,0.0,0.0,0.0,0.0,0.0,0.0,0.0,0.0,0.0,0.0,0.0,0.0,0.0,0.0,0.0,-1.7405,-1.7249,-1.7243,-1.7297,-1.7229,-1.7249,-1.6414,-1.0491,-0.8569,-0.7628,-0.1502,0.0428,0.0212,0.0,0.0,0.0,0.0,0.0,0.0,0.0,0.0,0.0,0.0,0.0,0.0,0.0,0.0,-0.1167,-0.1162,0.0,0.0878,0.3523,0.4009,0.4511,0.5819,0.4932,0.4629,0.5939,0.4773,0.3927,0.3909,0.5072,0.6309,0.7537,0.9928,1.1884,1.3099,1.4287,1.4964,1.4964,1.4896,1.4821,1.474,1.4665,1.4624,1.4624,1.4557,1.4597,1.4726,1.4428,1.4333,1.4394,1.4245,1.4136,1.4068,1.3987,1.3871,1.3729,1.3648,1.358,1.3526,1.3593,1.362,1.3607,0.0,0.0,0.0,0.0,0.0,0.0,0.0,0.0,0.0,0.0,0.0,0.0,0.0,0.0,0.0,0.0,0.0,0.0,0.0,0.0,0.0,0.0,0.0,0.0,0.0,0.0,0.0,0.0,0.0,0.0,0.0,0.0,0.0,0.0,0.0,0.0,0.0,0.0,0.0,0.0,0.0,0.0,-1.767,-1.7385,-1.7358,-1.7467,-1.7467,-1.7426,-1.6511,-1.1311,-0.9129,-0.7701,-0.2509,-0.0544,-0.0323,-0.0528,-0.3006,0.0,0.0,0.0,0.0,0.0,0.0,0.0,0.0,0.0,-0.525,-0.2431,-0.0878,0.0,0.0,0.0,0.0695,0.2902,0.3276,0.3339,0.3258,0.3292,0.341,0.338,0.1372,0.0,0.0,0.1963,0.3373,0.374,0.7738,1.0444,1.1362,1.337,1.4737,1.5181,1.5072,1.4997,1.497,1.4848,1.4801,1.4828,1.4767,1.4787,1.4862,1.4652,1.457,1.4597,1.457,1.4475,1.4333,1.4211,1.4048,1.3885,1.3919,1.3844,1.3722,1.381,1.3838,1.3817,0.0,0.0,0.0,0.0,0.0,0.0,0.0,0.0,0.0,0.0,0.0,0.0,0.0,0.0,0.0,0.0,0.0,0.0,0.0,0.0,0.0,0.0,0.0,0.0,0.0,0.0,0.0,0.0,0.0,0.0,0.0,0.0,0.0,0.0,0.0,0.0,0.0,0.0,0.0,0.0,0.0,0.0,-1.7826,-1.767,-1.7609,-1.7623,-1.7623,-1.7446,-1.6696,-1.3567,-1.0772,-0.8003,-0.4773,-0.3815,-0.3356,-0.084,0.0,-0.8793,-0.6652,-0.9369,-1.2825,-1.279,-1.1564,-0.9709,0.0,0.0,-0.2803,-0.0696,-0.0101,0.0,0.0,0.0,0.0102,0.0413,0.042,0.0425,0.0425,0.0432,0.0435,0.0431,0.0214,0.0,0.0,0.0316,0.1353,0.3678,0.4343,0.664,1.1175,1.1629,1.2818,1.5093,1.5167,1.5099,1.497,1.495,1.5011,1.5126,1.4869,1.495,1.5323,1.4903,1.4787,1.4909,1.4774,1.4624,1.4489,1.4468,1.4299,1.4061,1.4197,1.4156,1.4007,1.3885,1.3838,1.3817,0.0,0.0,0.0,0.0,0.0,0.0,0.0,0.0,0.0,0.0,0.0,0.0,0.0,0.0,0.0,0.0,0.0,0.0,0.0,0.0,0.0,0.0,0.0,0.0,0.0,0.0,0.0,0.0,0.0,0.0,0.0,0.0,0.0,0.0,0.0,0.0,0.0,0.0,0.0,0.0,0.0,0.0,-1.7989,-1.7826,-1.7826,-1.7763,-1.693,-1.6474,0.0,0.0,-1.1085,-0.9587,-0.7517,-0.5671,-0.4314,-0.4444,-0.5821,0.0,-0.9428,-1.1478,-1.3222,0.0,-1.3511,-1.2407,-1.0325,-0.9107,-0.7242,-0.323,-0.244,-0.1946,-0.0309,0.0,0.0,0.0,0.0,0.0,0.0,0.0,0.0,0.0,0.0,0.0,0.0,0.0,0.042,0.1456,0.2957,0.4708,0.6821,0.9861,1.1979,1.2913,1.4629,1.5377,1.5228,1.5316,1.5391,1.5445,1.5323,1.5364,1.5533,1.5167,1.4991,1.4964,1.4808,1.4753,1.4767,1.4584,1.4441,1.4326,1.4306,1.4265,1.4197,1.4129,1.4109,1.4075,0.0,0.0,0.0,0.0,0.0,0.0,0.0,0.0,0.0,0.0,0.0,0.0,0.0,0.0,0.0,0.0,0.0,0.0,0.0,0.0,0.0,0.0,0.0,0.0,0.0,0.0,0.0,0.0,0.0,0.0,0.0,0.0,0.0,0.0,0.0,0.0,0.0,0.0,0.0,0.0,0.0,0.0,-1.8179,-1.7948,-1.7739,-1.7478,-1.6498,-1.6004,0.0,0.0,-1.0882,-0.9725,-0.7972,-0.6354,-0.5115,-0.5978,-0.6367,-0.7534,-1.151,0.0,0.0,-1.4834,-1.4636,-1.3911,-1.2467,-1.1708,-1.0215,-0.6283,-0.4868,-0.3648,-0.1577,-0.0532,0.0,0.0,0.0,0.0,0.0,0.0,0.0,0.0,0.0,0.0,0.0,0.0,0.0,0.0,0.1751,0.3041,0.3729,0.8116,1.0833,1.1402,1.4114,1.5588,1.5472,1.5581,1.5655,1.5696,1.4867,1.4874,1.5689,1.5384,1.5187,1.5086,1.493,1.4903,1.495,1.4685,1.455,1.4496,1.4353,1.4299,1.4299,1.4299,1.4272,1.4197,0.0,0.0,0.0,0.0,0.0,0.0,0.0,0.0,0.0,0.0,0.0,0.0,0.0,0.0,0.0,0.0,0.0,0.0,0.0,0.0,0.0,0.0,0.0,0.0,0.0,0.0,0.0,0.0,0.0,0.0,0.0,0.0,0.0,0.0,0.0,0.0,0.0,0.0,0.0,0.0,0.0,0.0,-1.8477,-1.8036,-1.7282,-1.6466,-1.6602,0.0,0.0,0.0,-1.0004,-0.7247,-0.5077,-0.5523,0.0,-0.3323,-0.5828,0.0,0.0,0.0,-1.5434,-1.5299,-1.3941,-1.2548,-1.2333,-1.0493,-0.8791,-0.8583,-0.6341,-0.4462,-0.4355,-0.1963,0.0,0.0,0.0,0.0,0.0,0.0,0.0,0.0,0.0,0.0,0.0,0.0,0.0,0.0,0.0104,0.1234,0.363,0.6376,0.9068,1.1518,1.4164,1.5635,1.5635,1.5635,1.571,1.5845,1.3045,1.3148,1.5839,1.554,1.5404,1.5391,1.5235,1.5092,1.4957,1.4801,1.4645,1.4496,1.4353,1.4299,1.4299,1.4299,1.4204,1.4055,0.0,0.0,0.0,0.0,0.0,0.0,0.0,0.0,0.0,0.0,0.0,0.0,0.0,0.0,0.0,0.0,0.0,0.0,0.0,0.0,0.0,0.0,0.0,0.0,0.0,0.0,0.0,0.0,0.0,0.0,0.0,0.0,0.0,0.0,0.0,0.0,0.0,0.0,0.0,0.0,0.0,0.0,-1.8363,-1.7151,-1.6533,-1.6187,0.0,0.0,0.0,0.0,0.0,0.0,-1.0385,0.0,0.0,-0.6876,0.0,0.0,0.0,0.0,-1.5845,-1.6101,-1.5912,-1.5574,-1.5524,-1.4945,-1.3916,-1.2082,-0.9045,-0.6208,-0.4317,-0.159,0.0428,0.0431,0.0221,0.0,0.0,0.0,0.0,0.0,0.0,0.0,0.0,0.0,0.0,0.0,0.0,0.0414,0.1234,0.3841,0.6476,0.8973,1.1797,1.409,1.5784,1.5879,1.5954,1.6001,1.5052,1.4108,1.3268,1.4957,1.5594,1.5404,1.5357,1.5248,1.5092,1.4841,1.4713,1.4638,1.4394,1.4299,1.4299,1.4299,1.4204,1.4048,0.0,0.0,0.0,0.0,0.0,0.0,0.0,0.0,0.0,0.0,0.0,0.0,0.0,0.0,0.0,0.0,0.0,0.0,0.0,0.0,0.0,0.0,0.0,0.0,0.0,0.0,0.0,0.0,0.0,0.0,0.0,0.0,0.0,0.0,0.0,0.0,0.0,0.0,0.0,0.0,0.0,0.0,-1.7843,-1.6225,-1.5417,0.0,0.0,0.0,0.0,0.0,0.0,0.0,0.0,0.0,0.0,0.0,0.0,0.0,0.0,-1.5577,-1.6379,-1.6846,-1.7175,-1.7358,-1.7358,-1.7514,-1.709,-1.5276,-1.1454,-0.7745,-0.5741,-0.2183,0.0522,0.0638,0.0327,0.0,0.0,0.0,0.0,0.0,0.0,0.0,0.0,0.0,0.0,0.0,0.0,0.0,0.0,0.2548,0.4732,0.6376,1.011,1.2913,1.4533,1.5625,1.5174,1.3256,1.4165,1.3217,1.055,1.4188,1.575,1.556,1.5459,1.5357,1.5242,1.4943,1.4787,1.4713,1.4468,1.4346,1.4299,1.4299,1.4204,1.4048,0.0,0.0,0.0,0.0,0.0,0.0,0.0,0.0,0.0,0.0,0.0,0.0,0.0,0.0,0.0,0.0,0.0,0.0,0.0,0.0,0.0,0.0,0.0,0.0,0.0,0.0,0.0,0.0,0.0,0.0,0.0,0.0,0.0,0.0,0.0,0.0,0.0,0.0,0.0,0.0,0.0,0.0,-1.6908,-1.5571,0.0,0.0,0.0,0.0,0.0,0.0,0.0,0.0,0.0,0.0,0.0,0.0,0.0,-1.5031,-1.5289,-1.6268,-1.727,-1.7419,-1.7568,-1.7684,-1.767,-1.7894,-1.8036,-1.788,-1.3202,-0.8971,0.0,0.0,0.0205,0.0637,0.0319,0.0,0.0,0.0,0.0,0.0,0.0,0.0,0.0,0.0,0.0,0.0,0.0,0.0,0.0,0.2453,0.3964,0.4227,0.924,1.2048,1.2348,1.4669,1.3156,0.7838,1.0745,1.0645,0.8138,1.3534,1.5957,1.5839,1.5547,1.5418,1.5391,1.5092,1.4882,1.4733,1.4577,1.4428,1.4312,1.4122,1.4028,1.3881,0.0,0.0,0.0,0.0,0.0,0.0,0.0,0.0,0.0,0.0,0.0,0.0,0.0,0.0,0.0,0.0,0.0,0.0,0.0,0.0,0.0,0.0,0.0,0.0,0.0,0.0,0.0,0.0,0.0,0.0,0.0,0.0,0.0,0.0,0.0,0.0,0.0,0.0,0.0,0.0,0.0,0.0,-1.5717,0.0,0.0,0.0,0.0,0.0,0.0,0.0,0.0,0.0,0.0,0.0,-1.2872,0.0,0.0,-1.5574,-1.6668,-1.7411,-1.788,-1.7914,-1.8036,-1.8124,-1.8002,-1.8036,-1.8023,-1.7758,-1.2731,-0.8409,0.0,0.0,0.0,0.0647,0.0334,0.0,0.0,0.0,0.0,0.0,0.0,0.0,0.0,0.0,0.0,0.0,0.0,0.0,0.0,0.0616,0.2849,0.6838,0.8339,1.0949,1.5068,1.376,1.0345,0.503,0.984,1.0645,0.8138,1.3626,1.5961,1.5845,1.5662,1.5513,1.5391,1.5092,1.495,1.4889,1.4618,1.4489,1.4263,1.2361,1.1588,1.1269,0.0,0.0,0.0,0.0,0.0,0.0,0.0,0.0,0.0,0.0,0.0,0.0,0.0,0.0,0.0,0.0,0.0,0.0,0.0,0.0,0.0,0.0,0.0,0.0,0.0,0.0,0.0,0.0,0.0,0.0,0.0,0.0,0.0,0.0,0.0,0.0,0.0,0.0,0.0,0.0,0.0,0.0,0.0,0.0,0.0,0.0,0.0,0.0,0.0,0.0,0.0,-1.4476,-1.433,-1.4761,-1.5381,-1.5462,0.0,-1.6785,-1.7642,-1.7968,-1.8111,-1.8179,-1.8247,-1.8113,-1.7327,-1.6722,-1.5949,-1.5028,-1.047,0.0,-0.7783,-0.3402,0.0,0.0,0.0,0.0,0.0,0.0,0.0,0.0,0.0,0.0,0.0,0.0,0.0,0.0,0.0,0.0,0.0,0.0,0.1958,0.621,0.7528,1.0147,1.4355,1.1767,0.8218,0.405,0.7077,0.8388,0.819,1.2374,1.4924,1.5947,0.0,1.5649,1.5493,1.5262,1.5086,1.4943,1.4706,1.457,1.422,1.1654,1.0717,1.0328,0.0,0.0,0.0,0.0,0.0,0.0,0.0,0.0,0.0,0.0,0.0,0.0,0.0,0.0,0.0,0.0,0.0,0.0,0.0,0.0,0.0,0.0,0.0,0.0,0.0,0.0,0.0,0.0,0.0,0.0,0.0,0.0,0.0,0.0,0.0,0.0,0.0,0.0,0.0,0.0,0.0,0.0,0.0,0.0,0.0,0.0,0.0,0.0,0.0,0.0,-1.4988,-1.6116,-1.6206,-1.7125,-1.7827,-1.6576,-1.7092,-1.8023,-1.8165,-1.8213,-1.8247,-1.8375,-1.8375,-1.796,-1.6359,-1.4891,-1.333,-1.1798,0.0,-0.5387,-0.7919,-0.4115,-0.1192,-0.3295,0.0,-0.0449,0.0,0.0,0.0,0.0,0.0,0.0,0.0,0.0,0.0,0.0,0.0,0.0,0.0,0.0,0.1466,0.4656,0.7438,0.9771,1.173,0.9049,0.6278,0.3478,0.3783,0.5413,0.8049,1.0804,1.3573,1.6076,1.592,1.5771,1.5628,1.5472,1.5235,1.4957,1.4801,1.4645,1.413,1.1293,1.018,0.9796,0.0,0.0,0.0,0.0,0.0,0.0,0.0,0.0,0.0,0.0,0.0,0.0,0.0,0.0,0.0,0.0,0.0,0.0,0.0,0.0,0.0,0.0,0.0,0.0,0.0,0.0,0.0,0.0,0.0,0.0,0.0,0.0,0.0,0.0,0.0,0.0,0.0,0.0,0.0,0.0,0.0,0.0,0.0,0.0,0.0,0.0,0.0,0.0,0.0,0.0,-1.6305,-1.7801,-1.7786,-1.8012,-1.828,-1.8101,-1.8343,-1.864,-1.8796,-1.883,-1.885,-1.8864,-1.8687,-1.8088,-1.6384,-1.4821,0.0,0.0,-0.8286,-0.5653,-0.9384,-0.6462,-0.3569,-0.402,-0.3745,-0.2662,-0.0365,0.0,0.0,0.0,0.0,0.0,0.0,0.0,0.0,0.0,0.0,0.0,0.0,0.0,0.2301,0.7438,1.0218,1.0728,0.906,0.6195,0.3413,0.0725,0.2893,0.5446,0.8052,1.0877,1.3552,1.6076,1.592,0.0,1.5628,1.5472,1.5235,1.4957,1.4801,1.4645,1.3951,0.9411,0.7684,0.7136,0.0,0.0,0.0,0.0,0.0,0.0,0.0,0.0,0.0,0.0,-1.0857,0.0,0.0,0.0,0.0,0.0,0.0,0.0,0.0,0.0,0.0,0.0,0.0,0.0,0.0,0.0,0.0,0.0,0.0,0.0,0.0,0.0,0.0,0.0,0.0,0.0,0.0,0.0,0.0,0.0,0.0,0.0,0.0,0.0,0.0,0.0,0.0,0.0,0.0,0.0,-1.5482,-1.7035,-1.7236,-1.7954,-1.8552,-1.7961,-1.8284,-1.8918,-1.9061,-1.9094,-1.9094,-1.9094,-1.8816,-1.7721,-1.4571,0.0,0.0,0.0,-0.4618,-0.3214,-0.6609,-0.4383,0.0,-0.3956,-0.2726,0.0,0.0,0.0233,0.0,0.0,0.0,0.0,0.0,0.0,0.0,0.0,0.0,0.0,0.0,0.2854,0.5687,0.8274,1.1095,1.1172,0.8424,0.5543,0.2725,0.0,0.1253,0.4159,0.8163,0.9412,1.2292,1.6191,1.6035,1.5845,1.5635,1.556,1.535,1.5065,1.4916,1.3976,1.2323,0.8603,0.6398,0.4769,0.0,0.0,0.0,0.0,0.0,0.0,0.0,0.0,-1.0677,-1.0837,-1.0877,-1.089,-1.089,-1.0922,0.0,0.0,0.0,0.0,0.0,0.0,0.0,0.0,0.0,0.0,0.0,0.0,0.0,0.0,0.0,0.0,0.0,0.0,0.0,0.0,0.0,0.0,0.0,0.0,0.0,0.0,0.0,0.0,0.0,0.0,0.0,0.0,0.0,0.0,0.0,0.0,-1.4633,-1.5516,-1.583,-1.7002,-1.8059,-1.7258,-1.78,-1.868,-1.9084,-1.9257,-1.9257,-1.9257,-1.8918,-1.7388,-1.2808,-1.0374,0.0,0.0,-0.165,-0.138,-0.4504,-0.3028,-0.2027,0.0,-0.1959,0.0,0.0,0.0,0.0,0.0,0.0,0.0,0.0,0.0,0.0,0.0,0.0,0.0213,0.0852,0.5733,0.8805,0.9334,1.0918,1.0778,0.8504,0.5082,0.2228,0.0,0.0,0.2945,0.8264,0.815,1.1042,1.63,1.557,1.5058,1.4796,1.4764,1.4584,1.4309,1.4268,1.298,1.0786,0.7695,0.5278,0.3267,0.0,0.0,0.0,0.0,0.0,0.0,0.0,0.0,-1.0649,-1.0751,-1.0837,-1.089,-1.089,-1.1037,0.0,0.0,0.0,0.0,0.0,0.0,0.0,0.0,0.0,0.0,0.0,0.0,0.0,0.0,0.0,0.0,0.0,0.0,0.0,0.0,0.0,0.0,0.0,0.0,0.0,0.0,0.0,0.0,0.0,0.0,0.0,0.0,0.0,0.0,0.0,0.0,0.0,-1.3896,-1.4332,-1.4848,-1.571,-1.6731,0.0,0.0,-1.8973,-1.9413,-1.9413,-1.9413,-1.9081,-1.7504,-1.2828,0.0,0.0,-0.6342,-0.383,-0.3225,-0.7309,-0.6761,-0.5435,0.0,0.0,-0.2385,0.0,0.0,0.0,0.0,0.0,0.0,0.0,0.0,0.0,0.0,0.0,0.1065,0.3722,0.6793,0.9651,1.2189,1.0074,0.8801,0.8477,0.3083,0.0213,0.0,0.0,0.2962,0.8267,0.8254,1.1171,1.6206,1.3739,1.2479,0.0,1.2055,1.1776,1.1564,1.1543,1.1243,1.0321,0.5713,0.3758,0.3273,0.0,0.0,0.0,0.0,0.0,0.0,0.0,0.0,-1.0616,-1.0804,-1.0816,-1.0824,-1.0877,-1.1004,0.0,0.0,0.0,0.0,0.0,0.0,0.0,0.0,0.0,0.0,0.0,0.0,-1.1906,-1.2045,-1.2078,0.0,0.0,0.0,0.0,0.0,0.0,0.0,0.0,0.0,0.0,0.0,0.0,0.0,0.0,0.0,0.0,0.0,0.0,0.0,0.0,0.0,0.0,0.0,-1.1952,-1.1994,0.0,0.0,-1.6561,-1.7412,-1.894,-1.9501,-1.9569,-1.9569,-1.9169,-1.7333,-1.1904,0.0,0.0,-0.4591,-0.2927,-0.2997,-0.5457,-0.553,-0.4661,0.0,0.0,0.0,0.0,0.0,0.0,0.0,0.0,0.0,0.0,0.0,0.0,0.0,0.0,0.2022,0.6581,0.7852,0.9757,1.2611,0.9968,0.8487,0.8487,0.2871,0.0,0.0,0.0,0.2972,0.844,0.8287,1.0423,1.3974,1.2791,1.122,0.0,0.9296,0.9188,0.9072,0.908,0.8072,0.6427,0.4394,0.2789,0.1297,0.0,0.0,0.0,0.0,0.0,0.0,-1.0575,-1.0563,-1.0616,-1.0857,-1.0837,-1.0816,-1.0877,0.0,0.0,0.0,0.0,0.0,0.0,0.0,0.0,0.0,0.0,0.0,0.0,0.0,-1.1919,-1.2098,-1.2098,-1.2437,0.0,0.0,-1.2608,-1.3081,0.0,0.0,0.0,0.0,0.0,0.0,0.0,0.0,0.0,0.0,0.0,0.0,0.0,0.0,0.0,0.0,0.0,0.0,0.0,0.0,0.0,0.0,-1.5682,-1.6694,-1.8833,-1.9501,-1.9664,-1.9664,-1.8576,-1.6163,0.0,0.0,0.0,-0.3515,-0.2855,-0.3259,-0.4713,-0.4926,-0.4448,0.0,0.0,-0.216,0.0,0.0,0.0,0.0,0.0,0.0,0.0,0.0,0.0,0.0,0.0,0.2128,0.7005,0.8045,0.9729,1.2611,0.9968,0.8064,0.7217,0.2447,0.0,0.0,0.0852,0.3826,0.8484,0.927,1.07,1.2444,1.1563,0.9482,0.0,0.6595,0.6536,0.6477,0.6509,0.5413,0.3756,0.2946,0.1509,0.0,0.0,0.0,0.0,0.0,0.0,0.0,0.0,0.0,-1.0677,0.0,0.0,0.0,0.0,0.0,0.0,0.0,0.0,0.0,0.0,0.0,0.0,0.0,0.0,0.0,0.0,0.0,-1.1919,-1.2098,-1.2098,-1.2192,-1.2372,-1.2372,-1.2319,-1.2233,0.0,0.0,0.0,0.0,0.0,0.0,0.0,0.0,0.0,0.0,0.0,0.0,0.0,0.0,0.0,0.0,0.0,0.0,0.0,0.0,0.0,0.0,-1.4647,-1.543,-1.8418,-1.9434,-1.9664,-1.9664,-1.7065,-1.3756,0.0,0.0,0.0,-0.4462,-0.4281,-0.4777,-0.6299,-0.6544,-0.5984,-0.4509,0.0,0.0,0.0,0.0,0.0,0.0,0.0,0.0,0.0,0.0,0.0,0.0,0.0,0.0,0.404,0.6841,0.9667,1.2606,0.9968,0.7111,0.4253,0.1384,0.0,0.0,0.2872,0.5629,0.8593,1.1341,1.2555,1.235,0.9732,0.6839,0.0,0.3942,0.3806,0.3869,0.3833,0.3796,0.3474,0.0966,0.0,0.0,0.0,0.0,0.0,0.0,0.0,0.0,0.0,0.0,0.0,0.0,0.0,0.0,0.0,0.0,0.0,0.0,0.0,0.0,0.0,0.0,0.0,0.0,0.0,0.0,0.0,0.0,-1.1919,-1.2098,-1.2033,-1.2098,-1.2278,-1.2724,-1.2669,-1.2139,-1.2549,0.0,0.0,0.0,0.0,0.0,0.0,0.0,0.0,0.0,0.0,0.0,0.0,0.0,0.0,0.0,0.0,0.0,0.0,0.0,0.0,0.0,0.0,0.0,-1.5418,-1.6122,-1.6266,-1.6266,-1.443,-1.1864,-0.8812,0.0,0.0,-0.4456,-0.4376,-0.5168,-0.7699,-0.8144,-0.7915,-0.7393,0.0,0.0,0.0,0.0,0.0,-0.0103,0.0105,0.0,0.0,0.0,0.0,0.0,0.0,0.1278,0.404,0.688,0.8882,0.9757,0.8857,0.7068,0.4253,0.1384,0.0,0.0,0.0852,0.3826,0.8487,0.7429,0.7945,0.9608,0.6827,0.3974,0.1249,0.123,0.122,0.1215,0.1196,0.1186,0.1084,0.0294,0.0,0.0,0.0,0.0,0.0,0.0,0.0,0.0,0.0,0.0,0.0,0.0,0.0,0.0,0.0,0.0,0.0,0.0,0.0,0.0,0.0,0.0,0.0,0.0,0.0,0.0,-1.1833,-1.1804,-1.1866,-1.2045,-1.1959,-1.1992,-1.2131,-1.2492,-1.2479,-1.2098,-1.237,-1.2349,0.0,0.0,0.0,0.0,0.0,0.0,-1.0931,0.0,0.0,0.0,0.0,0.0,0.0,0.0,0.0,0.0,0.0,0.0,0.0,0.0,0.0,0.0,0.0,-1.4592,-1.4664,-1.4703,-1.2377,0.0,0.0,0.0,-0.296,-0.3518,-0.4026,-0.5113,-0.7621,-0.8524,-0.8644,-0.8044,0.0,0.0,0.0,0.0,0.0,-0.0511,0.0,0.0,0.0,0.0,0.0,0.0,0.0,0.0746,0.2553,0.5294,0.6349,0.5309,0.7282,0.6544,0.266,0.0852,0.0,0.0,0.2128,0.5099,0.8487,0.7746,0.7852,0.8378,0.5492,0.2634,0.0,0.0,0.0,0.0,0.0,0.0,0.0,0.0,0.0,0.0,0.0,0.0,0.0,0.0,0.0,0.0,0.0,0.0,0.0,0.0,0.0,0.0,0.0,0.0,0.0,0.0,0.0,0.0,0.0,0.0,0.0,0.0,0.0,0.0,-1.1833,-1.1751,-1.1792,-1.1959,-1.1866,-1.1866,-1.1951,-1.2137,-1.2057,-1.2066,-1.2108,-1.2117,0.0,0.0,0.0,0.0,0.0,0.0,0.0,0.0,0.0,0.0,0.0,0.0,0.0,0.0,0.0,0.0,0.0,0.0,0.0,0.0,0.0,0.0,0.0,0.0,0.0,0.0,0.0,0.0,0.0,0.0,0.0,-0.2009,-0.3309,-0.4695,-0.6201,-0.7645,-0.8062,-0.6681,-0.9933,0.0,0.0,-0.4858,0.0,0.0,0.0,0.0,0.0,0.0,0.0,0.0,0.0,0.0,0.0,0.2533,0.2743,0.0107,0.5311,0.5521,0.0107,0.0,0.0,0.0107,0.5521,0.8276,0.8593,1.1024,1.0813,0.0,0.5205,0.2436,0.0,0.0,0.0,0.0,0.0,0.0,0.0,0.0,0.0,0.0,0.0,0.0,0.0,0.0,0.0,0.0,0.0,0.0,0.0,0.0,0.0,0.0,0.0,0.0,0.0,0.0,0.0,0.0,0.0,0.0,0.0,0.0,0.0,0.0,-1.1833,-1.1813,-1.1857,-1.1959,-1.1739,-1.171,-1.1857,-1.2158,-1.2145,-1.1792,-1.2256,-1.2548,0.0,0.0,0.0,0.0,0.0,0.0,0.0,0.0,0.0,0.0,-1.0575,-1.0481,0.0,0.0,0.0,0.0,0.0,0.0,0.0,0.0,-0.984,0.0,0.0,0.0,0.0,0.0,0.0,0.0,0.0,-0.1669,-0.039,-0.2009,-0.2566,-0.3138,-0.4311,-0.4757,-0.5045,-0.5347,-0.8314,-0.8868,-0.3543,-0.2313,-0.154,-0.0208,0.0,0.0,0.0,0.0,0.0,0.0,0.0,0.0,0.0,0.2654,0.2865,0.0107,0.3403,0.3509,0.0,0.0,0.0,0.0,0.3509,0.6372,0.8487,0.6899,0.7005,0.817,0.319,0.0636,0.0,0.0,0.0,0.0,0.0,0.0,0.0,0.0,0.0,0.0,0.0,0.0,0.0,0.0,0.0,0.0,0.0,0.0,0.0,0.0,0.0,0.0,0.0,0.0,0.0,0.0,0.0,0.0,0.0,0.0,0.0,0.0,0.0,-1.1739,-1.1833,-1.1792,-1.1833,-1.1959,-1.1645,-1.1592,-1.1772,-1.1894,-1.1902,-1.1759,-1.2578,-1.2841,-1.2797,-1.3368,-1.3371,-1.302,-1.271,0.0,0.0,0.0,0.0,0.0,-1.0583,-1.049,0.0,-1.0318,-1.0228,-1.0155,0.0,0.0,0.0,0.0,-0.9889,-0.98,0.0,0.0,0.0,0.0,0.0,0.0,-0.2427,0.0,0.0291,-0.1339,-0.162,-0.2003,-0.3165,-0.3452,-0.3365,-0.311,-0.5846,0.0,0.0,0.0,0.0309,0.0,0.0,0.0,0.0,0.0,0.0,0.0,0.0,0.0,0.0,0.1491,0.1597,0.0,0.1491,0.1491,0.0,0.0,0.0,0.0,0.4145,0.6266,0.6475,0.6266,0.6266,0.6266,0.1916,0.0,0.0,0.0,0.0,0.0,0.0,0.0,0.0,0.0,0.0,0.0,0.0,0.0,0.0,0.0,0.0,0.0,0.0,0.0,0.0,0.0,0.0,0.0,0.0,0.0,0.0,0.0,0.0,0.0,0.0,0.0,0.0,0.0,0.0,-1.1739,-1.1833,-1.1731,-1.1759,-1.1919,-1.1572,-1.1498,-1.1678,-1.1486,-1.1551,-1.1825,-1.2726,-1.2965,-1.3042,-1.3532,-1.3386,-1.2851,-1.251,0.0,0.0,0.0,0.0,0.0,0.0,0.0,0.0,-1.0392,-1.0273,-1.0085,-1.0219,0.0,0.0,0.0,0.0,0.0,-0.9595,0.0,0.0,-0.7202,-0.5337,-0.3408,-0.1643,0.0,0.1154,-0.0191,-0.0476,-0.0763,-0.2009,-0.2213,-0.1736,-0.048,-0.2759,-0.455,-0.4204,-0.1336,0.0516,0.0104,0.0,0.0,0.0,0.0,0.0,0.0,0.0,0.0,0.0,0.0,0.0,0.0,0.0,0.0,0.0,0.0,0.0,0.0107,0.5733,0.7005,0.4253,0.7217,0.6899,0.404,0.0,0.0,0.0,0.0,0.0,0.0,0.0,0.0,0.0,0.0,0.0,0.0,0.0,0.0,0.0,0.0,0.0,0.0,0.0,0.0,0.0,0.0,0.0,0.0,0.0,0.0,0.0,0.0,0.0,0.0,0.0,0.0,0.0,0.0,-1.1342,-1.1739,-1.1833,-1.1666,-1.1637,-1.1739,-1.1445,-1.1404,-1.1584,-1.1392,-1.1457,-1.1719,-1.2557,-1.3078,-1.3655,-1.4059,-1.4549,-1.486,-1.4062,0.0,0.0,0.0,0.0,0.0,0.0,0.0,0.0,-1.0849,-1.0644,-1.0211,-1.0793,0.0,0.0,0.0,0.0,0.0,-0.9612,-0.8548,-0.6931,-0.4976,-0.4243,-0.3155,0.0287,0.1234,0.1418,0.1238,0.1144,0.1246,0.1559,0.1555,0.1556,0.1876,0.07,-0.1122,-0.3788,-0.1683,0.0105,0.0,0.0,0.0,0.0,0.0,0.0,0.0,0.0,0.0,0.0,0.0,0.0,0.0,0.0,0.0,0.0,0.0,0.0,0.0107,0.5733,0.7005,0.4253,0.7217,0.6899,0.404,0.0,0.0,0.0,0.0,0.0,0.0,0.0,0.0,0.0,0.0,0.0,0.0,0.0,0.0,0.0,0.0,0.0,0.0,0.0,0.0,0.0,0.0,0.0,0.0,0.0,0.0,0.0,0.0,0.0,0.0,0.0,0.0,0.0,-1.084,-1.1045,-1.1443,-1.232,-1.1941,-1.1698,-1.1845,-1.1572,-1.151,-1.1637,-1.1551,-1.1816,-1.2314,-1.3065,-1.3565,-1.3813,-1.4265,-1.4363,-1.4112,0.0,0.0,0.0,0.0,0.0,0.0,0.0,0.0,0.0,0.0,-1.0395,-1.0167,-1.0572,0.0,0.0,0.0,0.0,0.0,-0.9616,-0.8913,-0.7587,-0.4614,-0.3008,-0.1538,0.1354,0.2212,0.2106,0.1353,0.1833,0.2217,0.1652,0.1966,0.2097,0.1635,0.1128,0.0206,-0.1676,-0.0838,0.0,0.0,0.0,0.0,0.0,0.0,0.0,0.0,0.0,0.0,0.0,0.0,0.0,0.0,0.0,0.0,0.0,0.0,0.0746,0.2341,0.4888,0.5523,0.4253,0.5523,0.4676,0.1809,0.0,0.0,0.0,0.0,0.0,0.0,0.0,0.0,0.0,0.0,0.0,0.0,0.0,0.0,0.0,0.0,0.0,0.0,0.0,0.0,0.0,0.0,0.0,0.0,0.0,0.0,0.0,0.0,0.0,0.0,0.0,0.0,-1.0912,-1.0931,-1.0753,-1.1271,-1.2771,-1.2054,-1.1719,-1.1898,-1.1698,-1.1625,-1.1698,-1.1678,-1.1924,-1.2556,-1.3292,-1.364,-1.3741,-1.421,-1.4178,-1.3665,0.0,0.0,0.0,0.0,0.0,0.0,0.0,0.0,0.0,0.0,0.0,0.0,0.0,0.0,0.0,0.0,-1.0089,-0.9791,-0.9616,-0.9194,-0.8074,-0.4664,-0.2647,-0.0874,0.1585,0.2465,0.2452,0.129,0.207,0.2543,0.1371,0.1697,0.1838,0.1149,0.0731,0.0521,0.0104,0.0,0.0,0.0,0.0,0.0,0.0,0.0,0.0,0.0,0.0,0.0,0.0,0.0,0.0,0.0,0.0,0.0,0.0,0.0,0.1065,0.3191,0.3934,0.3828,0.3191,0.3934,0.266,0.0,0.0,0.0,0.0,0.0,0.0,0.0,0.0,0.0,0.0,0.0,0.0,0.0,0.0,0.0,0.0,0.0,0.0,0.0,0.0,0.0,0.0,0.0,0.0,0.0,0.0,0.0,0.0,0.0,0.0,0.0,0.0,0.0,-1.1367,-1.1572,-1.0963,-1.1247,-1.2682,-1.1894,-1.1531,-1.1719,-1.1698,-1.1686,-1.1698,-1.1612,-1.1617,-1.182,-1.2344,-1.2955,-1.3615,-1.4135,-1.4631,-1.5071,-1.4958,0.0,0.0,0.0,0.0,0.0,0.0,0.0,0.0,0.0,0.0,0.0,0.0,0.0,0.0,0.0,-1.0089,-0.9791,-0.9616,-0.8441,-0.6751,-0.4374,-0.3725,-0.2738,0.0716,0.1631,0.162,0.1442,0.1937,0.2322,0.2341,0.194,0.1643,0.1555,0.0732,0.0,0.0,0.0,0.0,0.0,0.0,0.0,0.0,0.0,0.0,0.0,0.0,0.0,0.0,0.0,0.0,0.0,0.0,0.0,0.0,0.0,0.0107,0.032,0.2979,0.2872,0.0426,0.2979,0.266,0.0,0.0,0.0,0.0,0.0,0.0,0.0,0.0,0.0,0.0,0.0,0.0,0.0,0.0,0.0,0.0,0.0,0.0,0.0,0.0,0.0,0.0,0.0,0.0,0.0,0.0,0.0,0.0,0.0,0.0,0.0,0.0,0.0,-1.1916,-1.2069,-1.1839,-1.2112,-1.3178,-1.2146,-1.1625,-1.1866,-1.1751,-1.1731,-1.1784,-1.1572,-1.1795,-1.2301,-1.2447,-1.2563,-1.2768,-1.3896,-1.4037,-1.385,-1.457,-1.4896,0.0,0.0,0.0,0.0,0.0,0.0,0.0,0.0,-1.1143,0.0,0.0,0.0,0.0,0.0,-1.0049,-0.9791,-0.9616,-0.9004,-0.7813,-0.5034,-0.4308,-0.3311,0.0627,0.1568,0.1559,0.1579,0.1679,0.1876,0.1861,0.1644,0.1441,0.1148,0.053,0.0,0.0,0.0,0.0,0.0,0.0,0.0,0.0,0.0,0.0,0.0,0.0,0.0,0.0,0.0,0.0,0.0,0.0,0.0,0.0,0.0,0.0,0.0,0.1065,0.1916,0.2553,0.1916,0.0958,0.0,0.0,0.0,0.0,0.0,0.0,0.0,0.0,0.0,0.0,0.0,0.0,0.0,0.0,0.0,0.0,0.0,0.0,0.0,0.0,0.0,0.0,0.0,0.0,0.0,0.0,0.0,0.0,0.0,0.0,0.0,0.0,0.0,-1.2819,-1.2733,-1.2614,-1.2902,-1.3482,-1.2399,-1.2046,-1.2294,-1.2142,-1.1974,-1.1784,-1.151,-1.1687,-1.2288,-1.2188,-1.2023,-1.2161,-1.3077,-1.3097,-1.2654,-1.3782,-1.4291,0.0,0.0,0.0,0.0,0.0,0.0,0.0,0.0,-1.0997,0.0,0.0,0.0,0.0,0.0,0.0,-0.9898,-0.9653,-0.9024,-0.781,-0.504,-0.3952,-0.2764,0.0639,0.1177,0.1069,0.1081,0.1187,0.139,0.147,0.1351,0.1141,0.084,0.0319,0.0,0.0,0.0,0.0,0.0,0.0,0.0,0.0,0.0,0.0,0.0,0.0,0.0,0.0,0.0,0.0,0.0,0.0,0.0,0.0,0.0,0.0,0.0,0.0,0.0958,0.2766,0.0852,0.0,0.0,0.0,0.0,0.0,0.0,0.0,0.0,0.0,0.0,0.0,0.0,0.0,0.0,0.0,0.0,0.0,0.0,0.0,0.0,0.0,0.0,0.0,0.0,0.0,0.0,0.0,0.0,0.0,0.0,0.0,0.0,0.0,0.0,-1.3914,-1.332,-1.332,-1.3372,-1.3362,-1.2767,-1.2612,-1.2806,-1.2713,-1.2301,-1.1686,-1.1416,-1.129,-1.129,-1.1204,-1.146,-1.1931,-1.1838,-1.1736,-1.1871,-1.2546,-1.2799,-1.2809,0.0,0.0,0.0,0.0,0.0,0.0,0.0,-1.1138,-1.0726,0.0,0.0,0.0,0.0,-1.0232,-0.9914,-0.9726,-0.8007,-0.5861,-0.4275,-0.2624,-0.1139,0.0433,0.0328,0.0,0.0,0.0443,0.0979,0.1497,0.1164,0.0841,0.0841,0.0318,0.0,0.0,0.0,0.0,0.0,0.0,0.0,0.0,0.0,0.0,0.0,0.0,0.0,0.0,0.0,0.0,0.0,0.0,0.0,0.0,0.0,0.0,0.0,0.0,0.0,0.0,0.0,0.0,0.0,0.0,0.0,0.0,0.0,0.0,0.0,0.0,0.0,0.0,0.0,0.0,0.0,0.0,0.0,0.0,0.0,0.0,0.0,0.0,0.0,0.0,0.0,0.0,0.0,0.0,0.0,0.0,0.0,0.0,0.0,0.0,0.0,0.0,0.0,0.0,0.0,0.0,0.0,-1.2821,-1.1978,-1.2012,-1.1845,-1.1592,-1.1384,-1.129,-1.129,-1.1204,-1.1151,-1.1178,-1.1212,-1.0424,-0.9243,-0.9382,-0.9653,-0.9776,0.0,0.0,0.0,0.0,0.0,0.0,0.0,0.0,0.0,0.0,0.0,0.0,0.0,-1.0085,-0.9885,-0.9571,-0.8204,-0.6485,-0.4764,-0.3203,-0.1698,-0.011,0.011,0.0,0.0,0.0443,0.0871,0.0962,0.0957,0.0846,0.0835,0.0318,0.0,0.0,0.0,0.0,0.0,0.0,0.0,0.0,0.0,0.0,0.0,0.0,0.0,0.0,0.0,0.0,0.0,0.0,0.0,0.0,0.0,0.0,0.0,0.0,0.0,0.0,0.0,0.0,0.0,0.0,0.0,0.0,0.0,0.0,0.0,0.0,0.0,0.0,0.0,0.0,0.0,0.0,0.0,0.0,0.0,0.0,0.0,0.0,0.0,0.0,0.0,-1.3567,-1.3795,0.0,0.0,0.0,0.0,0.0,0.0,0.0,0.0,0.0,0.0,0.0,0.0,0.0,-1.4011,-1.3334,0.0,0.0,-1.1881,-1.1915,-1.1494,-1.1265,-1.1237,-1.1151,-1.0951,-1.0698,-1.0496,-0.9261,-0.7356,-0.7263,-0.7439,-0.7693,0.0,0.0,0.0,0.0,0.0,0.0,0.0,0.0,0.0,0.0,0.0,0.0,-1.0183,-1.0412,-1.041,-0.8929,-0.769,-0.6254,-0.395,-0.2215,-0.0862,-0.011,0.0,0.0,0.0,0.0224,0.0442,0.0436,0.0433,0.0429,0.0531,0.0215,-0.0434,-0.1626,-0.0757,-0.0432,-0.1618,-0.075,0.0,0.0,0.0,0.0,0.0,0.0,0.0,0.0,0.0,0.0,0.0,0.0,0.0,0.0,0.0,0.0,0.0,0.0,0.0,0.0,0.0,0.0,0.0,0.0,0.0,0.0,0.0,0.0,0.0,0.0,0.0,0.0,0.0,0.0,0.0,0.0,0.0,0.0,0.0,0.0,0.0,0.0,0.0,0.0,0.0,-1.439,-1.432,0.0,0.0,0.0,0.0,0.0,0.0,0.0,0.0,0.0,0.0,0.0,0.0,0.0,0.0,0.0,0.0,0.0,-1.2527,-1.2488,-1.173,-1.1366,-1.1163,-1.1078,-1.089,-1.0514,-0.9648,-0.7896,-0.5758,-0.5532,-0.5488,-0.5868,-0.6695,0.0,0.0,0.0,0.0,0.0,0.0,0.0,0.0,0.0,0.0,-1.0236,-1.0212,-1.1059,-1.1359,-0.8203,-0.6809,-0.5605,-0.2355,-0.0431,0.0546,0.0111,0.0,0.0,0.0,0.0,0.0,0.0,0.0,0.0,0.0,0.0,-0.1094,-0.4043,-0.217,-0.1404,-0.4203,-0.2034,-0.032,0.0,0.0,0.0,0.0,0.0,0.0,0.0,0.0,0.0,0.0,0.0,0.0,0.0,0.0,0.0,0.0,0.0,0.0,0.0,0.0,0.0,0.0,0.0,0.0,0.0,0.0,0.0,0.0,0.0,0.0,0.0,0.0,0.0,0.0,0.0,0.0,0.0,0.0,0.0,0.0,0.0,0.0,0.0,0.0,0.0,0.0,0.0,0.0,0.0,0.0,0.0,0.0,0.0,0.0,0.0,0.0,0.0,0.0,0.0,0.0,0.0,0.0,0.0,-1.2736,-1.2293,-1.2206,-1.1784,-1.1163,-1.1143,-1.0984,-1.0599,-0.802,-0.5859,-0.3871,-0.1522,-0.0657,-0.0989,-0.304,-0.5028,0.0,0.0,0.0,0.0,0.0,0.0,0.0,-1.0637,-1.053,-1.0387,-1.0171,-1.1055,-1.1432,-0.8049,-0.7086,-0.6203,-0.297,-0.101,0.0114,0.0,0.0,0.0,0.0,0.0,0.0,0.0,0.0,0.0,0.0,0.0,-0.1104,-0.4079,-0.3827,-0.3591,-0.435,-0.3756,-0.2448,-0.0213,0.0,0.0,0.0,0.0,0.0,0.0,0.0,0.0,0.0,0.0,0.0,0.0,0.0,0.0,0.0,0.0,0.0,0.0,0.0,0.0,0.0,0.0,0.0,0.0,0.0,0.0,0.0,0.0,0.0,0.0,0.0,0.0,0.0,0.0,0.0,0.0,0.0,0.0,0.0,0.0,0.0,0.0,0.0,0.0,0.0,0.0,0.0,0.0,0.0,0.0,0.0,0.0,0.0,0.0,0.0,0.0,0.0,0.0,0.0,0.0,0.0,0.0,-1.3232,-1.27,-1.2162,-1.1646,-1.1163,-1.1118,-1.0996,-1.0692,-0.7492,-0.5119,-0.3253,-0.0327,0.0874,0.0548,-0.1789,-0.3957,-0.5911,-0.8708,0.0,0.0,0.0,0.0,0.0,0.0,0.0,-1.0436,-1.0159,-1.1051,-1.1607,0.0,0.0,-0.6158,-0.2241,-0.0568,0.0,0.0,0.0,0.0,0.0,0.0,0.0,0.0,0.0,0.0,0.0,-0.1221,-0.3225,-0.6219,-0.6477,-0.6429,-0.6535,-0.5154,-0.3085,-0.032,0.0,0.0,0.0,0.0,0.0,0.0,0.0,0.0,0.0,0.0,0.0,0.0,0.0,0.0,0.0,0.0,0.0,0.0,0.0,0.0,0.0,0.0,0.0,0.0,0.0,0.0,0.0,0.0,0.0,0.0,0.0,0.0,0.0,0.0,0.0,0.0,0.0,0.0,0.0,0.0,0.0,0.0,0.0,0.0,0.0,0.0,0.0,0.0,0.0,0.0,0.0,0.0,0.0,0.0,0.0,0.0,0.0,0.0,0.0,0.0,0.0,-1.4233,-1.3613,-1.3115,-1.1975,-1.1366,-1.1184,-1.109,-1.0878,-1.0535,-0.7173,-0.4809,-0.3061,0.0109,0.1313,0.0987,-0.1225,-0.3135,-0.4821,-0.7124,-0.703,-0.6122,-0.8171,0.0,0.0,0.0,0.0,-1.0324,-1.0159,-1.1051,0.0,0.0,0.0,-0.5649,-0.1137,0.0,0.0,0.0,0.0,0.0,0.0,0.0,0.0,0.0,0.0,0.0,0.0,-0.2577,-0.5478,-0.8468,-0.9236,-0.9252,-0.8908,-0.654,-0.3615,-0.032,0.0,0.0,0.0,0.0,0.0,0.0,0.0,0.0,0.0,0.0,0.0,0.0,0.0,0.0,0.0,0.0,0.0,0.0,0.0,0.0,0.0,0.0,0.0,0.0,0.0,0.0,0.0,0.0,0.0,0.0,0.0,0.0,0.0,0.0,0.0,0.0,0.0,0.0,0.0,0.0,0.0,0.0,0.0,-1.439,-1.4363,0.0,0.0,0.0,0.0,0.0,0.0,0.0,0.0,0.0,0.0,0.0,0.0,0.0,0.0,0.0,0.0,-1.3799,-1.3083,-1.2906,-1.238,-1.175,-1.1265,-1.1184,-1.0824,-0.9854,-0.5736,-0.3509,-0.2429,0.1535,0.3186,0.2987,0.1117,0.0224,-0.0337,-0.2826,-0.3514,-0.3401,-0.4309,-0.5413,0.0,0.0,0.0,-0.9779,-1.0053,0.0,0.0,0.0,0.0,-0.4193,0.0,0.0,0.0,0.0,0.0,0.0,0.0,0.0,0.0,0.0,0.0,0.0,0.0,-0.2577,-0.5464,-0.829,-1.0841,-1.1505,-0.9054,-0.8219,-0.5839,-0.0533,0.0,0.0,0.0,0.0,0.0,0.0,0.0,0.0,0.0,0.0,0.0,0.0,0.0,0.0,0.0,0.0,0.0,0.0,0.0,0.0,0.0,0.0,0.0,0.0,0.0,0.0,0.0,0.0,0.0,0.0,0.0,0.0,0.0,0.0,0.0,0.0,0.0,0.0,0.0,0.0,0.0,0.0,0.0,0.0,-1.4461,0.0,0.0,0.0,0.0,0.0,0.0,0.0,0.0,0.0,0.0,0.0,0.0,0.0,0.0,0.0,0.0,-1.3603,-1.2891,-1.2858,-1.1917,-1.1345,-1.1057,-1.063,-1.0348,-0.9737,-0.5076,-0.2972,-0.2337,0.187,0.3509,0.33,0.1538,0.0878,0.0549,-0.144,-0.1565,-0.1014,-0.259,-0.2931,-0.3038,-0.4551,0.0,0.0,0.0,0.0,0.0,-0.7605,-0.7103,-0.6171,0.0,0.0,0.0,0.0,0.0,0.0,0.0,0.0,0.0,0.0,0.0,-0.0561,-0.2241,-0.5035,-0.7909,-1.0816,-1.3678,-1.3777,-0.9254,-0.8532,-0.6263,-0.0533,0.0,0.0,0.0,0.0,0.0,0.0,0.0,0.0,0.0,0.0,0.0,0.0,0.0,0.0,0.0,0.0,0.0,0.0,0.0,0.0,0.0,0.0,0.0,0.0,0.0,0.0,0.0,0.0,0.0,0.0,0.0,0.0,0.0,0.0,0.0,0.0,0.0,0.0,0.0,0.0,0.0,0.0,0.0,0.0,0.0,0.0,0.0,0.0,0.0,0.0,0.0,0.0,0.0,0.0,0.0,0.0,0.0,0.0,0.0,0.0,-1.5037,-1.3708,-1.2934,-1.2891,-1.1676,-1.1056,-1.0918,-1.0266,-0.9588,-0.8827,-0.4506,-0.2305,-0.145,0.2075,0.3472,0.3368,0.2049,0.1504,0.1289,0.0109,0.044,0.1338,-0.0558,-0.0562,-0.0113,-0.211,-0.4193,0.0,0.0,0.0,0.0,0.0,0.0,0.0,0.0,0.0,0.0,0.0,0.0,0.0,0.0,0.0,0.0,0.0,0.0,-0.1009,-0.4027,-0.693,-0.9894,-1.2773,-1.5627,-1.5177,-0.9332,-0.8521,-0.6263,-0.0533,0.0,0.0,0.0,0.0,0.0,0.0,0.0,0.0,0.0,0.0,0.0,0.0,0.0,0.0,0.0,0.0,0.0,0.0,0.0,0.0,0.0,0.0,0.0,0.0,0.0,0.0,0.0,0.0,0.0,0.0,0.0,0.0,0.0,0.0,0.0,0.0,0.0,0.0,0.0,0.0,0.0,0.0,0.0,0.0,0.0,-1.4825,-1.4744,-1.4825,-1.5162,0.0,0.0,0.0,0.0,0.0,0.0,0.0,0.0,0.0,0.0,-1.5162,-1.5037,-1.388,-1.327,-1.2991,-1.201,-1.1416,-1.1016,-1.0242,-0.873,-0.6444,-0.3796,-0.1406,0.0884,0.2671,0.339,0.3416,0.3308,0.329,0.3273,0.3223,0.3262,0.3399,0.3206,0.2116,0.0784,0.0,-0.143,-0.3044,0.0,0.0,0.0,0.0,0.0,0.0,0.0,0.0,0.0,0.0,0.0,0.0,0.0,0.0,0.0,0.0,0.0,-0.1009,-0.4027,-0.693,-0.9875,-1.2659,-1.5566,-1.5141,-0.9254,-0.8487,-0.6263,-0.0533,0.0,0.0,0.0,0.0,0.0,0.0,0.0,0.0,0.0,0.0,0.0,0.0,0.0,0.0,0.0,0.0,0.0,0.0,0.0,0.0,0.0,0.0,0.0,0.0,0.0,0.0,0.0,0.0,0.0,0.0,0.0,0.0,0.0,0.0,0.0,0.0,0.0,0.0,0.0,0.0,0.0,0.0,0.0,0.0,0.0,0.0,-1.2963,-1.2991,-1.4269,-1.4895,0.0,0.0,0.0,0.0,0.0,0.0,0.0,0.0,-1.5233,-1.5124,-1.4923,-1.3957,-1.3379,-1.327,-1.2071,-1.1248,-1.0651,-0.9728,-0.8284,-0.6288,-0.3264,-0.0975,0.0987,0.2678,0.3401,0.341,0.2966,0.2859,0.2763,0.2473,0.2617,0.2982,0.2991,0.2785,0.2574,0.2316,0.0767,-0.1194,-0.3153,-0.4802,0.0,0.0,0.0,0.0,0.0,0.0,0.0,0.0,0.0,0.0,0.0,0.0,0.0,0.0,0.0,0.0,0.0,0.0,-1.0567,-1.5281,-1.6824,-1.5171,-0.9321,-0.8518,-0.6263,-0.0533,0.0,-0.0746,-0.2553,-0.1065,-0.0746,-0.2553,-0.0958,0.0,0.0,0.0,0.0,0.0,0.0,0.0,0.0,0.0,0.0,0.0,0.0,0.0,0.0,0.0,0.0,0.0,0.0,0.0,0.0,0.0,0.0,0.0,0.0,0.0,0.0,0.0,0.0,0.0,0.0,0.0,0.0,0.0,0.0,0.0,-1.4472,0.0,0.0,0.0,0.0,-1.2018,-1.393,-1.4686,-1.4931,-1.5087,0.0,0.0,0.0,0.0,0.0,0.0,-1.5135,-1.5026,-1.4858,-1.4076,-1.3601,-1.3481,-1.23,-1.1374,-1.0657,-0.9393,-0.7527,-0.5122,-0.2714,-0.0431,0.1732,0.2863,0.3366,0.3363,0.2915,0.2614,0.2431,0.2127,0.2259,0.2616,0.2624,0.3071,0.3509,0.3482,0.2272,0.0644,-0.0839,-0.2189,-0.2615,-0.0529,0.0,0.0,0.0,0.0,0.0,0.0,0.0,0.0,0.0,0.0,0.0,0.0,0.0,0.0,0.0,0.0,0.0,0.0,0.0,0.0,0.0,0.0,0.0,0.0,0.0,0.0,0.0,0.0,0.0,-0.266,-0.1065,0.0,0.0,0.0,0.0,0.0,0.0,0.0,0.0,0.0,0.0,0.0,0.0,0.0,0.0,0.0,0.0,0.0,0.0,0.0,0.0,0.0,0.0,0.0,0.0,0.0,0.0,0.0,0.0,0.0,0.0,0.0,0.0,0.0,0.0,-1.498,-1.4271,0.0,0.0,0.0,0.0,0.0,-1.4148,-1.4378,-1.4508,-1.4405,-1.5096,0.0,0.0,0.0,0.0,-1.5222,-1.4983,-1.4858,-1.4858,-1.4254,-1.3816,-1.3573,-1.2588,-1.1672,-1.073,-0.9346,-0.6472,-0.2647,-0.2045,0.0213,0.3403,0.3311,0.3276,0.3273,0.3142,0.2861,0.2387,0.2388,0.2402,0.2528,0.2551,0.2968,0.3373,0.3403,0.3073,0.263,0.263,0.2195,0.1767,0.0,0.0,0.0,0.0,0.0,0.0,0.0,0.0,0.0,0.0,0.0,0.0,0.0,0.0,0.0,0.0,0.0,0.0,0.0,0.0,0.0,0.0,0.0,0.0,0.0,0.0,0.0,0.0,0.0,0.0,-0.0107,0.0,0.0,0.0,0.0,0.0,0.0,0.0,0.0,0.0,0.0,0.0,0.0,0.0,0.0,0.0,0.0,0.0,0.0,0.0,0.0,0.0,0.0,0.0,0.0,0.0,0.0,0.0,0.0,0.0,0.0,0.0,0.0,0.0,0.0,-1.4699,-1.3733,0.0,0.0,0.0,-0.6862,-0.8667,-1.1148,-1.412,-1.448,-1.4777,-1.5243,-1.5613,-1.5559,-1.5233,-1.5418,-1.5391,-1.5092,-1.5021,-1.4896,-1.4727,-1.4292,-1.3987,0.0,0.0,-1.1384,-1.0355,-0.9132,-0.6119,-0.1937,-0.1816,0.0212,0.3373,0.3303,0.3083,0.2685,0.2252,0.1952,0.1767,0.0948,0.1161,0.1792,0.1498,0.2033,0.2869,0.3302,0.3285,0.3156,0.3156,0.3031,0.2915,0.2962,0.0,0.0,0.0,0.0,0.0,0.0,0.0,0.0,0.0,0.0,0.0,0.0,0.0,0.0,0.0,0.0,0.0,0.0,0.0,0.0,0.0,0.0,0.0,0.0,0.0,0.0,0.0,-0.1183,-0.0858,-0.298,-0.1065,0.0,0.0,0.0,0.0,0.0,0.0,0.0,0.0,0.0,0.0,0.0,0.0,0.0,0.0,0.0,0.0,0.0,0.0,0.0,0.0,0.0,0.0,0.0,0.0,0.0,0.0,0.0,0.0,0.0,0.0,0.0,0.0,0.0,-1.2223,-1.0876,0.0,0.0,0.0,-0.6024,-0.7117,-0.9465,-1.3395,-1.3963,-1.4356,-1.4724,-1.5144,-1.5175,-1.4873,-1.4751,-1.4591,-1.4575,-1.4523,-1.4632,-1.4673,-1.4309,-1.408,-1.395,0.0,-1.1249,-1.0049,-0.8256,-0.5292,-0.1588,-0.095,0.0945,0.3343,0.3295,0.2978,0.237,0.2043,0.165,0.1155,0.0529,0.0739,0.1264,0.0958,0.1593,0.2634,0.3149,0.336,0.3369,0.3382,0.3373,0.3367,0.3401,0.3389,0.3273,0.2998,0.0,0.0,0.2248,0.1859,0.1446,0.0,0.0,0.0,0.0,0.0,0.0,0.0,0.0,0.0,0.0,0.0,0.0,0.0,0.0,0.0,0.0,0.0,-0.0654,-0.2278,-0.0977,-0.0757,-0.2356,-0.0854,0.0,0.0,0.0,0.0,0.0,0.0,0.0,0.0,0.0,0.0,0.0,0.0,0.0,0.0,0.0,0.0,0.0,0.0,0.0,0.0,0.0,0.0,0.0,0.0,0.0,0.0,0.0,0.0,0.0,0.0,0.0,0.0,0.0,-0.8887,-0.7111,0.0,-0.4664,-0.4091,-0.6183,-0.5837,-0.7317,-1.1686,-1.2804,-1.3271,-1.3261,-1.3997,-1.4386,-1.4163,-1.3561,-1.3513,-1.3981,-1.3875,-1.4098,-1.4543,-1.4192,-1.3955,-1.3934,-1.2524,-1.1204,-0.996,0.0,0.0,-0.1466,0.0104,0.1765,0.322,0.3189,0.2773,0.2263,0.2241,0.1656,0.0743,0.0739,0.0736,0.084,0.0841,0.1569,0.249,0.3084,0.332,0.3371,0.3399,0.341,0.3412,0.3416,0.3395,0.3378,0.341,0.3351,0.0,0.2753,0.2158,0.1537,0.0,0.0,0.0,0.0,0.0,0.0,0.0,0.0,0.0,0.0,0.0,0.0,0.0,0.0,0.0,0.0,-0.0331,-0.0548,-0.0548,-0.0547,-0.0327,0.0,0.0,0.0,0.0,0.0,0.0,0.0,0.0,0.0,0.0,0.0,0.0,0.0,0.0,0.0,0.0,0.0,0.0,0.0,0.0,0.0,0.0,0.0,0.0,0.0,0.0,0.0,0.0,0.0,0.0,0.0,0.0,0.0,0.0,0.0,0.0,-0.6117,-0.3817,-0.196,-0.1514,-0.3478,-0.3608,-0.4716,-0.7731,-0.9577,-1.0786,-1.1197,-1.2894,-1.3775,-1.3457,-1.3325,-1.3272,-1.3402,-1.3285,-1.3369,-1.3855,-1.349,-1.3481,-1.3814,-1.1988,-1.0787,-0.9863,-0.6597,-0.3904,-0.1542,0.0207,0.1563,0.262,0.2597,0.1992,0.1067,0.1155,0.0939,0.0732,0.0318,0.0421,0.0834,0.0839,0.126,0.199,0.2491,0.3024,0.3367,0.3373,0.3393,0.3416,0.3442,0.3426,0.3411,0.3441,0.3399,0.0,0.3266,0.278,0.2276,0.0,0.0,0.0,0.0,0.0,0.0,0.0,0.0,0.0,0.0,0.0,0.0,0.0,0.0,0.0,0.0,-0.2241,-0.3666,-0.3641,-0.3616,-0.251,-0.0109,0.0,0.0,0.0,0.0,0.0,0.0,0.0,0.0,0.0,0.0,0.0,0.0,0.0,0.0,0.0,0.0,0.0,0.0,0.0,0.0,0.0,0.0,0.0,0.0,0.0,0.0,0.0,0.0,0.0,0.0,0.0,0.0,0.0,0.0,0.0,-0.2938,-0.1522,-0.0587,-0.071,-0.2633,-0.3016,-0.3883,-0.621,-0.7574,-0.8561,-0.889,-0.9703,-1.021,-1.0051,-1.0598,0.0,-1.1333,-1.2099,-1.293,-1.368,-1.3116,-1.3007,-1.3432,-1.1451,-0.982,-0.828,-0.513,-0.2555,-0.0205,0.133,0.2178,0.2539,0.2412,0.18,0.0755,0.0847,0.0633,0.0318,0.0106,0.0212,0.0421,0.0736,0.0949,0.1374,0.22,0.2734,0.2966,0.3283,0.34,0.3415,0.343,0.3423,0.3415,0.343,0.3389,0.0,0.0,0.2976,0.2471,0.0,0.0,0.0,0.0,0.0,0.0,0.0,0.0,0.0,0.0,0.0,0.0,0.0,0.0,0.0,0.0,-0.2703,-0.4476,-0.4476,-0.4534,-0.3193,-0.0111,0.0,0.0,0.0,0.0,0.0,0.0,0.0,0.0,0.0,0.0,0.0,0.0,0.0,0.0,0.0,0.0,0.0,0.0,0.0,0.0,0.0,0.0,0.0,0.0,0.0,0.0,0.0,-1.4939,0.0,0.0,0.0,0.0,0.0,0.0,0.0,0.0,0.0,0.0,-0.0601,-0.2147,-0.2413,-0.303,-0.4571,-0.556,0.0,-0.6171,-0.6492,-0.6553,0.0,0.0,-0.8031,-0.885,-1.0217,-1.1648,-1.2924,0.0,0.0,0.0,0.0,-0.8965,-0.6825,-0.3783,-0.1222,0.1021,0.2444,0.279,0.2433,0.2331,0.1812,0.0966,0.0846,0.053,0.0107,0.0,0.0106,0.0212,0.0631,0.0844,0.1168,0.2003,0.2434,0.2558,0.3091,0.33,0.3403,0.3403,0.3407,0.3412,0.3412,0.338,0.3352,0.0,0.0,0.0,0.0,0.0,0.0,0.0,0.0,0.0,0.0,0.0,0.0,0.0,0.0,0.0,0.0,0.0,0.0,0.0,-0.3269,-0.5397,-0.5331,-0.5383,-0.3796,-0.0225,0.0,0.0,0.0,0.0,0.0,0.0,0.0,0.0,0.0,0.0,0.0,0.0,0.0,0.0,0.0,0.0,0.0,0.0,0.0,0.0,0.0,0.0,0.0,0.0,0.0,0.0,0.0,-1.457,-1.4689,0.0,0.0,0.0,0.0,0.0,0.0,0.0,0.0,0.0,-0.0119,-0.0238,-0.036,-0.0482,-0.0597,-0.2387,-0.3452,-0.3312,-0.4956,-0.5655,0.0,0.0,-0.5634,-0.6929,-0.6949,-0.8124,-1.0336,0.0,0.0,0.0,0.0,0.0,-0.7335,-0.3531,-0.0802,0.0911,0.197,0.2495,0.2373,0.1931,0.1721,0.1476,0.0947,0.0734,0.0627,0.0212,0.0318,0.0736,0.073,0.1151,0.1579,0.1683,0.2117,0.2558,0.2558,0.2968,0.3371,0.3371,0.3392,0.3412,0.3412,0.3427,0.3435,0.3412,0.0,0.3314,0.3343,0.0,0.0,0.0,0.0,0.0,0.0,0.0,0.0,0.0,0.0,0.0,0.0,0.0,0.0,0.0,-0.5208,-0.8617,-0.8454,-0.8562,-0.6168,-0.0344,0.0,0.0,0.0,0.0,0.0,0.0,0.0,0.0,0.0,0.0,0.0,0.0,0.0,0.0,0.0,0.0,0.0,0.0,0.0,0.0,0.0,0.0,0.0,0.0,0.0,0.0,0.0,-1.4051,-1.3999,-1.3629,0.0,0.0,0.0,0.0,0.0,0.0,0.0,0.0,0.0,0.0,0.0,0.0,0.0,-0.083,-0.1186,-0.117,-0.1637,-0.1749,-0.1509,0.0,-0.2667,-0.3364,-0.5645,-0.7559,0.0,-1.0242,0.0,0.0,0.0,0.0,-0.455,-0.162,0.0507,0.1759,0.2197,0.2213,0.1904,0.1715,0.1601,0.1579,0.0958,0.0641,0.0321,0.0108,0.0322,0.0743,0.043,0.0645,0.1178,0.1196,0.1626,0.2148,0.2363,0.2861,0.334,0.334,0.3375,0.3408,0.339,0.3408,0.3427,0.3415,0.3399,0.3395,0.3425,0.0,0.0,0.0,0.0,0.0,0.0,-0.1288,0.0,0.0,0.0,0.0,0.0,0.0,0.0,0.0,0.0,0.0,0.0,-0.9107,-0.7221,-0.2869,-0.0898,0.0,0.0,0.0,0.0,0.0,0.0,0.0,0.0,0.0,0.0,0.0,0.0,0.0,0.0,0.0,0.0,0.0,0.0,0.0,0.0,0.0,0.0,0.0,0.0,0.0,0.0,-1.248,-1.2405,-1.1929,-1.0322,0.0,0.0,0.0,0.0,0.0,0.0,0.0,0.0,0.0,0.0,0.0,0.0,0.0,0.0,0.0,0.0466,0.0815,0.1154,0.0346,-0.023,-0.046,-0.3428,-0.5819,0.0,0.0,0.0,0.0,0.0,0.0,0.0,-0.0101,0.1528,0.2601,0.2509,0.2217,0.1817,0.1711,0.1494,0.1384,0.0966,0.0433,0.0,0.0,0.0325,0.0751,0.0327,0.0436,0.0761,0.0887,0.1102,0.1522,0.1953,0.2455,0.2833,0.2833,0.2956,0.3185,0.318,0.329,0.3399,0.3399,0.3401,0.341,0.3431,0.346,0.0,0.0,0.0,0.0,0.0,0.0,0.0,0.0,0.0,0.0,0.0,0.0,0.0,0.0,0.0,0.0,-0.7675,-0.7897,-0.6614,-0.3444,-0.1241,0.0,0.0,0.0,0.0,0.0,0.0,0.0,0.0,0.0,0.0,0.0,0.0,0.0,0.0,0.0,0.0,0.0,0.0,0.0,0.0,0.0,0.0,0.0,0.0,0.0,0.0,-0.9174,-0.9523,-0.9359,-0.7738,-0.5383,0.0,0.0,0.0,0.0,0.0,0.0,0.0,0.0,0.0,0.0,0.0,0.0,0.0,0.0,0.0,0.0587,0.1746,0.1746,0.139,0.0804,0.0679,-0.1351,0.0,0.0,0.0,0.0,0.0,0.0,0.0,0.0302,0.1701,0.3138,0.2575,0.2388,0.2291,0.1817,0.1302,0.0873,0.0858,0.0431,0.0,0.0,0.0326,0.0,0.0749,0.0755,0.0,0.0,0.0,0.0,0.0,0.0,0.0,0.1725,0.2131,0.2536,0.2579,0.2985,0.3367,0.3367,0.3435,0.3499,0.3499,0.3524,0.354,0.354,0.297,0.2618,0.2595,0.0,0.0,0.0,0.0,0.0,0.0,0.0,0.0,0.0,0.0,0.0,-0.463,-0.4793,-0.3498,-0.0345,0.0,0.0,0.0,0.0,0.0,0.0,0.0,0.0,0.0,0.0,0.0,0.0,0.0,0.0,0.0,0.0,0.0,0.0,0.0,0.0,0.0,0.0,0.0,0.0,0.0,0.0,0.0,-0.559,-0.5153,-0.4933,-0.4835,-0.418,-0.2731,-0.0345,0.0,0.0,0.0,0.0,0.0,0.0,0.0,0.0,0.0,0.0,0.0,0.0,0.035,0.0819,0.1173,0.1533,0.188,0.2088,0.0579,-0.0805,-0.1815,-0.3447,0.0,0.0,0.0,0.0,0.0,0.0,0.1426,0.2674,0.2484,0.2006,0.1302,0.1095,0.0991,0.0772,0.0767,0.0441,0.0,0.0,0.0331,0.0,0.044,0.055,0.0768,0.0335,0.0554,0.0872,0.0765,0.1182,0.1685,0.0,0.0,0.2509,0.254,0.2945,0.3336,0.3336,0.3392,0.3347,0.2949,0.3193,0.3336,0.2922,0.3119,0.0,0.0,0.0,0.0,0.0,0.0,0.0,0.0,0.0,0.0,0.0,0.0,0.0,-0.4377,-0.3915,-0.3436,-0.3046,-0.0781,0.0334,0.0,0.0,0.0,0.0,0.0,0.0,0.0,0.0,0.0,0.0,0.0,0.0,0.0,0.0,0.0,0.0,0.0,0.0,0.0,0.0,0.0,0.0,0.0,0.0,0.0,-0.3468,-0.2461,-0.1789,-0.2243,-0.2371,-0.1817,-0.0228,0.0,0.0,0.0,0.0,0.0,0.0,0.0,0.0,0.0,0.0,0.0,0.0,0.0352,0.0706,0.0939,0.1301,0.1884,0.2655,0.1156,0.0229,0.0,-0.1221,-0.2744,0.0,0.0,0.0,0.0,0.0,0.2043,0.2672,0.2672,0.2113,0.1105,0.0673,0.0671,0.0,0.0,0.0446,0.0223,0.0,0.0223,0.0442,0.0112,0.0223,0.0443,0.0113,0.0223,0.0548,0.0549,0.0759,0.1069,0.1075,0.1491,0.0,0.1923,0.2331,0.0,0.2746,0.2801,0.2749,0.2334,0.2796,0.3044,0.2744,0.0,0.0,0.0,0.0,0.0,0.0,0.3307,0.0,0.0,0.0,0.0,0.0,0.0,-0.1036,-0.2192,-0.1793,-0.1821,0.0,0.0,0.0553,0.0,0.0,0.0,0.0,0.0,0.0,0.0,0.0,0.0,0.0,0.0,0.0,0.0,0.0,0.0,0.0,0.0,0.0,0.0,0.0,0.0,0.0,0.0,0.0,0.0,-0.2574,-0.1226,0.0,0.0,0.0,0.0,0.0,0.0,0.0,0.0,0.0,0.0,0.0,0.0,0.0,0.0,0.0,0.0,0.0,0.0,0.0239,0.0816,0.0822,0.1399,0.2617,0.2597,0.1684,0.0112,0.0661,0.0,0.0,0.0,0.0,0.0,0.2444,0.0,0.3228,0.323,0.2603,0.1535,0.0456,0.034,0.0767,0.0225,0.0335,0.0767,0.0223,0.0,0.0,0.0,0.0,0.0,0.0,0.0,0.0,0.0,0.0,0.0,0.0,0.0441,0.076,0.0773,0.1196,0.0,0.0,0.0,0.1837,0.0,0.0,0.0,0.0,0.0,0.0,0.0,0.0,0.0,0.0,0.0,0.0,0.0,0.0,0.0,0.0,0.2509,0.2193,0.1651,0.1528,0.0,0.0,0.0,0.0551,0.0,0.0,0.0,0.0,0.0,0.0,0.0,0.0,0.0,0.0,0.0,0.0,0.0,0.0,0.0,0.0,0.0,0.0,0.0,0.0,0.0,0.0,0.0,0.0,0.0,-0.0673,-0.0338,0.0,0.0,0.0,0.0,0.0,0.0,0.0,0.0,0.0,0.0,0.0,0.0,0.0,0.0,0.0,0.0,0.0,0.0,0.0119,0.0237,0.0239,0.0593,0.1389,0.1393,0.1491,0.189,0.2104,0.0,0.0,0.0,0.0,0.0,0.0,0.0,0.3201,0.3221,0.2781,0.213,0.1418,0.1313,0.1302,0.0,0.066,0.0767,0.0221,0.0,0.0,0.0,0.0,0.0,0.0,0.0,0.0,0.0,0.0,0.0,0.0,0.0445,0.0767,0.078,0.1201,0.1604,0.0,0.0,0.0,0.0,0.0,0.0,0.0,0.0,0.0,0.0,0.0,0.0,0.0,0.0,0.3111,0.2714,0.0,0.0,0.2444,0.2807,0.2484,0.1095,0.2083,0.0,0.0,0.0,0.0,0.0,0.0,0.0,0.0,0.0,0.0,0.0,0.0,0.0,0.0,0.0,0.0,0.0,0.0,0.0,0.0,0.0,0.0,0.0,0.0,0.0,0.0,0.0,0.0,0.0,0.0,0.0,0.0,0.0,0.0,0.0,0.0,0.0,0.0,0.0,0.0,0.0,0.0,0.0,0.0,0.0,0.0,0.0,0.0,0.0,0.0,0.0,0.0,0.0238,0.0931,0.0932,0.1493,0.2563,0.2555,0.0,0.0863,0.0,0.0,0.0,0.0,0.2326,0.321,0.296,0.2691,0.2306,0.1512,0.1199,0.0,0.0661,0.0442,0.0443,0.0111,0.0,0.0,0.0,0.0,0.0,0.0,0.0,0.0,0.0,0.0,0.0,0.0,0.0226,0.0449,0.0453,0.0672,0.0884,0.0892,0.09,0.0909,0.0,0.1143,0.1712,0.0,0.0,0.0,0.0,0.0,0.0,0.2599,0.2517,0.2525,0.2498,0.2728,0.0,0.2735,0.3005,0.2679,0.1572,0.0,0.0,0.0,0.0,0.0,0.0335,0.0114,0.0,0.0,0.0,0.0,0.0,0.0,0.0,0.0,0.0,0.0,0.0,0.0,0.0,0.0,0.0,0.0,0.0,0.0,0.0,0.0,0.0,0.0,0.0,0.0225,0.0228,0.0229,0.0,0.0,0.0,0.0,0.0,0.0,0.0,0.0,0.0,0.0,0.0,0.0,0.0,0.0,0.0,0.0,0.0,0.0,0.0,0.0,0.0236,0.0814,0.0808,0.1368,0.2462,0.2446,0.0,0.0,0.0,0.0,0.0,0.0,0.0,0.0,0.2598,0.2404,0.2292,0.1197,0.0771,0.0767,0.0223,0.0,0.0,0.0,0.0,0.0,0.0,0.0,0.0,0.0,0.0,0.0,0.0,0.0,0.0,0.0,0.0,0.0,0.0,0.0,0.0,0.0,0.0,0.0,0.0,0.0465,0.0925,0.0947,0.0,0.0,0.0,0.0,0.2379,0.2286,0.2014,0.1919,0.2294,0.0,0.0,0.2981,0.3021,0.2683,0.1777,0.0,0.0,0.0,0.0,0.0,0.0662,0.0234,0.0,0.0,0.0,0.0,0.0,0.0,0.0,0.0,0.0,0.0,0.0,0.0,0.0,0.0,0.0,0.0,0.0,0.0,0.0,0.0,0.0,0.0,0.0,0.1714,0.1501,0.1274,0.0229,0.0,0.0,0.0,0.0,0.0,0.0,0.0,0.0,0.0,0.0,0.0,0.0,0.0,0.0,0.0,0.0,0.0,0.0,0.0,0.0,0.0115,0.0115,0.0796,0.1888,0.1886,0.2308,0.0,0.0,0.0,0.0,0.0,0.0,0.327,0.2691,0.0,0.229,0.1189,0.0767,0.0767,0.0223,0.0,0.0,0.0,0.0,0.0,0.0,0.0,0.0,0.0,0.0,0.0,0.0,0.0,0.0,0.0,0.0,0.0,0.0,0.0,0.0,0.0,0.0,0.0,0.0,0.0461,0.0916,0.0932,0.0,0.0,0.0,0.0,0.1638,0.1236,0.1836,0.2025,0.1234,0.1979,0.2389,0.0,0.0,0.0,0.0,0.0,0.0,0.0,0.0,0.0,0.0,0.0,0.0,0.0,0.0,0.0,0.0,0.0,0.0,0.0,0.0,0.0,0.0,0.0,0.0,0.0,0.0,0.0,0.0,0.0,0.0,0.0,0.0,0.0,0.0,0.2052,0.184,0.1502,0.023,0.0,0.0,0.0,0.0,0.0,0.0,0.0,0.0,0.0,0.0,0.0,0.0,0.0,0.0,0.0,0.0,0.0,0.0,0.0,0.0,0.0,0.0,0.0571,0.1773,0.1789,0.2321,0.0,0.0,0.0,0.0,0.0,0.3182,0.0,0.0,0.0,0.1485,0.0971,0.0657,0.0333,0.0112,0.0,0.0,0.0,0.0,0.0,0.0,0.0,0.0,0.0,0.0,0.0,0.0,0.0,0.0,0.0,0.0,0.0,0.0,0.0,0.0,0.0,0.0,0.0,0.0,0.0231,0.0463,0.047,0.0817,0.0,0.1259,0.1228,0.1098,0.0884,0.1305,0.1521,0.0894,0.1553,0.2085,0.0,0.0,0.0,0.0,0.0,0.0,0.0,0.0,0.0,0.0,0.0,0.0,0.0,0.0,0.0,0.0,0.0,0.0,0.0,0.0,0.0,0.0,0.0,0.0,0.0,0.0,0.0,0.0,0.0,0.0,0.0,0.0,0.0,0.0,0.2064,0.1848,0.1393,0.0232,0.0,0.0,0.0,0.0,0.0,0.0,0.0,0.0,0.0,0.0,0.0,0.0,0.0,0.0,0.0,0.0,0.0,0.0,0.0,0.0,0.0,0.0,0.0459,0.1564,0.1692,0.233,0.0,0.0,0.0,0.0,0.0,0.0,0.0,0.0,0.1582,0.0756,0.0652,0.0331,0.0,0.0,0.0,0.0,0.0,0.0,0.0,0.0,0.0,0.0,0.0,0.0,0.0,0.0,0.0,0.0,0.0,0.0,0.0,0.0,0.0,0.0,0.0,0.0,0.0,0.0,0.0,0.0,0.0,0.0355,0.0,0.0,0.0679,0.0667,0.0662,0.0777,0.0891,0.0779,0.1237,0.0,0.2137,0.0,0.0,0.0,0.0,0.1265,-0.0327,0.0227,0.0581,0.0,0.0,0.0,0.0,0.0,0.0,0.0,0.0,0.0,0.0,0.0,0.0,0.0,0.0,0.0,0.0,0.0,0.0,0.0,0.0,0.0,0.0,0.0,0.0,0.0,0.2018,0.1792,0.1437,0.0238,0.0,0.0,0.0,0.0,0.0,0.0,0.0,0.0,0.0,0.0,0.0,0.0,0.0,0.0,0.0,0.0,0.0,0.0,0.0,0.0,0.0,0.0,0.0345,0.1031,0.1584,0.2098,0.0,0.0,0.0,0.0,0.0,0.0,0.0,0.1189,0.0868,0.0758,0.0222,0.0,0.0,0.0,0.0,0.0,0.0,0.0,0.0,0.0,0.0,0.0,0.0,0.0,0.0,0.0,0.0,0.0,0.0,0.0,0.0,0.0,0.0,0.0,0.0,0.0,0.0,0.0,0.0,0.0,0.0,0.0,0.0122,0.0,0.0,0.0,0.0122,0.0468,0.08,0.0817,0.0,0.0,0.0,0.1534,0.0,0.0,0.1085,-0.0557,-0.3992,-0.1431,0.012,0.012,0.0,0.0,0.0,0.0,0.0,0.0,0.0,0.0,0.0,0.0,0.0,0.0,0.0,0.0,0.0,0.0,0.0,0.0,0.0,0.0,0.0,0.0,0.0,0.0,0.2023,0.1785,0.143,0.024,0.0,0.0,0.0,0.0,0.0,0.0,0.0,0.0,0.0,0.0,0.0,0.0,0.0,0.0,0.0,0.0,0.0,0.0,0.0,0.0,0.0,0.0,0.0344,0.09,0.1468,0.2112,0.0,0.0,0.0,0.0,0.0,0.1713,0.1191,0.0868,0.0654,0.033,0.0111,0.0,0.0,0.0,0.0,0.0,0.0,0.0,0.0,0.0,0.0,0.0,0.0,0.0,0.0,0.0,0.0,0.0,0.0,0.0,0.0,0.0,0.0,0.0,0.0,0.0,0.0,0.0,0.0,0.0,0.0,0.0,0.0,0.0,0.0,0.0,0.0,0.0,0.0,0.0812,0.0,0.1453,0.0,0.0,0.0,0.0,0.0,0.0958,-0.0889,0.0225,0.0,0.0469,0.0,0.0362,0.0,0.0,0.0,0.0,0.0,0.0,0.0,0.0,0.0,0.0,0.0,0.0,0.0,0.0,0.0,0.0,0.0,0.0,0.0,0.0,0.0,0.0,0.1441,0.132,0.0959,0.0121,0.0,0.0,0.0,0.0,0.0,0.0,0.0,0.0,0.0,0.0,0.0,0.0,0.0,0.0,0.0,0.0,0.0,0.0,0.0,0.0,0.0,0.0,0.0229,0.0672,0.1241,0.0,0.0,0.0,0.0,0.0,0.1623,0.1091,0.0661,0.0548,0.033,0.0,0.0,0.0,0.0,0.0,0.0,0.0,0.0,0.0,0.0,0.0,0.0,0.0,0.0,0.0,0.0,0.0,0.0,0.0,0.0,0.0,0.0,0.0,0.0,0.0,0.0,0.0,0.0,0.0,0.0,0.0,0.0,0.0,0.0,0.0,0.0,0.0,0.0,0.0356,0.0,0.081,0.1034,0.1347,0.2021,0.1995,0.0,0.0,0.0,0.0,0.0,0.0,0.0,0.0,0.0,0.0,0.0,0.0,0.0,0.0,0.0,0.0,0.0,0.0,0.0,0.0,0.0,0.0,0.0,0.0,0.0,0.0,0.0,0.0,0.0,0.0,0.0,0.0,0.0,0.0,0.0,0.0,0.0,0.0,0.0,0.0,0.0,0.0,0.0,0.0,0.0,0.0,0.0,0.0,0.0,0.0,0.0,0.0,0.0,0.0,0.0,0.0,0.0,0.0,0.0,0.0,0.0,0.0,0.0746,0.0,0.1265,0.0886,0.0879,0.0552,0.0,0.0,0.0,0.0,0.0,0.0,0.0,0.0,0.0,0.0,0.0,0.0,0.0,0.0,0.0,0.0,0.0,0.0,0.0,0.0,0.0,0.0,0.0,0.0,0.0,0.0,0.0,0.0,0.0,0.0,0.0,0.0,0.0,0.0,0.0,0.0,0.0,0.0,0.0,0.0,0.0,0.0,0.0,0.0702,0.0362,0.048,0.1451,0.1098,0.0,0.0,0.0,0.0,0.0,0.0,0.0,0.0,0.0,0.0,0.0,0.0,0.0,0.0,0.0,0.0,0.0,0.0,0.0,0.0,0.0,0.0,0.0,0.0,0.0,0.0,0.0,0.0,0.0,0.0,0.0,0.0,0.0,0.0,0.0,0.0,0.0,0.0,0.0,0.0,0.0,0.0,0.0,0.0,0.0,0.0,0.0,0.0,0.0,0.0,0.0,0.0,0.0,0.0,0.0,0.0,0.0,0.0,0.0,0.0,0.0,0.0,0.0,0.1188,0.0979,0.077,0.0444,0.0112,0.0,0.0,0.0,0.0,0.0,0.0,0.0,0.0,0.0,0.0,0.0,0.0,0.0,0.0,0.0,0.0,0.0,0.0,0.0,0.0,0.0,0.0,0.0,0.0,0.0,0.0,0.0,0.0,0.0,0.0,0.0,0.0,0.0,0.0,0.0,0.0,0.0,0.0,0.0,0.0,0.0,0.0,0.0242,0.0701,0.0706,0.0816,0.1559,0.143,0.0,0.0,0.0,0.0,0.0,0.0,0.0,0.0,0.0582,0.0,0.0,0.0,0.0,0.0,0.0,0.0,0.0,0.0,0.0,0.0,0.0,0.0,0.0,0.0,0.0,0.0,0.0,0.0,0.0,0.0,0.0,0.0,0.0,0.0,0.0,0.0,0.0,0.0,0.0,0.0,0.0,0.0,0.0,0.0,0.0,0.0,0.0,0.0,0.0,0.0,0.0,0.0,0.0,0.0,0.0,0.0,0.0,0.0,0.0,0.0,0.0338,0.078,0.1096,0.0773,0.0554,0.0442,0.0112,0.0,0.0,0.0,0.0,0.0,0.0,0.0,0.0,0.0,0.0,0.0,0.0,0.0,0.0,0.0,0.0,0.0,0.0,0.0,0.0,0.0,0.0,0.0,0.0,0.0,0.0,0.0,0.0,0.0,0.0,0.0,0.0,0.0,0.0,0.0,0.0,0.0,0.0,0.0,0.0,0.0,0.0,0.0,0.0121,0.0,0.0,0.0,0.0,0.0908,0.0898,0.0,0.0,0.0,0.0,0.0,0.0,0.0564,0.0468,0.0,0.0,0.0,0.0,0.0,0.0,0.0,0.0,0.0,0.0,0.0,0.0,0.0,0.0,0.0,0.0,0.0,0.0,0.0,0.0,0.0,0.0,0.0,0.0,0.0,0.0,0.0,0.0,0.0,0.0,0.0,0.0,0.0,0.0,0.0,0.0,0.0,0.0,0.0,0.0,0.0,0.0,0.0,0.0,0.0,0.0,0.0,0.0,0.0,0.0,0.0,0.0,0.0,0.0,0.0,0.0,0.0,0.0,0.0,0.0,0.0,0.0,0.0,0.0,0.0,0.0,0.0,0.0,0.0,0.0,0.0,0.0,0.0,0.0,0.0,0.0,0.0,0.0,0.0,0.0,0.0,0.0,0.0,0.0,0.0,0.0,0.0,0.0,0.0,0.0,0.0,0.0,0.0,0.0,0.0,0.0,0.0,0.0,0.0,0.0,0.0,0.0,0.0,0.0,0.0,0.0,0.0,0.0,0.0,0.0,0.0,0.0,0.0,0.056,0.0,0.0,0.0,0.0,0.0,0.0,0.0,0.0,0.0,0.0,0.0,0.0,0.0,0.0,0.0,0.0,0.0,0.0,0.0,0.0,0.0,0.0,0.0,0.0,0.0,0.0,0.0,0.0,0.0,0.0,0.0,0.0,0.0,0.0,0.0,0.0,0.0,0.0,0.0,0.0,0.0,0.0,0.0,0.0,0.0,0.0,0.0,0.0,0.0,0.0,0.0,0.0,0.0,0.0,0.0,0.0,0.0,0.0,0.0,0.0,0.0,0.0,0.0,0.0,0.0,0.0,0.0,0.0,0.0,0.0,0.0,0.0,0.0,0.0,0.0,0.0,0.0,0.0,0.0,0.0,0.0,0.0,0.0,0.0,0.0,0.0,0.0,0.0,0.0,0.0,0.0,0.0,0.0,0.0,0.0,0.0,0.0,0.0,0.0,0.0,0.0,0.0,0.0,0.0,0.0,0.0,0.0,0.0,0.0,0.0,0.0,0.0,0.0,0.0,0.0117,0.0116,0.0,0.0,0.0,0.0,0.0,0.0,0.0,0.0,0.0,0.0,0.0,0.0,0.0,0.0,0.0,0.0,0.0,0.0,0.0,0.0,0.0,0.0,0.0,0.0,0.0,0.0,0.0,0.0,0.0,0.0,0.0,0.0,0.0,0.0,0.0,0.0,0.0,0.0,0.0,0.0,0.0,0.0,0.0,0.0,0.0,0.0,0.0,0.0,0.0,0.0,0.0,0.0,0.0,0.0,0.0,0.0,0.0,0.0,0.0,0.0,0.0,0.0,0.0,0.0,0.0,0.0,0.0,0.0,0.0,0.0,0.0,0.0,0.0,0.0,0.0,0.0,0.0,0.0,0.0,0.0,0.0,0.0,0.0,0.0,0.0,0.0,0.0,0.0,0.0,0.0,0.0,0.0,0.0,0.0,0.0,0.0,0.0,0.0,0.0,0.0,0.0,0.0,0.0,0.0,0.0,0.0,0.0,0.0,0.0,0.0,0.0,0.0,0.0,0.0,0.0,0.0,0.0,0.0,0.0,0.0,0.0,0.0,0.0,0.0,0.0,0.0,0.0,0.0,0.0,0.0,0.0,0.0,0.0,0.0,0.0,0.0,0.0,0.0,0.0,0.0,0.0,0.0,0.0,0.0,0.0,0.0,0.0,0.0,0.0,0.0,0.0,0.0,0.0,0.0,0.0,0.0,0.0,0.0,0.0,0.0,0.0,0.0,0.0,0.0,0.0,0.0,0.0,0.0,0.0,0.0,0.0,0.0,0.0,0.0,0.0,0.0,0.0,0.0,0.0,0.0,0.0,0.0,0.0,0.0,0.0,0.0,0.0,0.0,0.0,0.0,0.0,0.0,0.0,0.0,0.0,0.0,0.0,0.0,0.0,0.0,0.0,0.0,0.0,0.0,0.0,0.0,0.0,0.0,0.0,0.0,0.0,0.0,0.0,0.0,0.0,0.0,0.0,0.0,0.0,0.0,0.0,0.0,0.0,0.0,0.0,0.0,0.0,0.0,0.0,0.0,0.0,0.0,0.0,0.0,0.0,0.0,0.0,0.0,0.0,0.0,0.0,0.0,0.0,0.0,0.0,0.0,0.0,0.0,0.0,0.0,0.0,0.0,0.0,0.0,0.0,0.0,0.0,0.0,0.0,0.0,0.0,0.0,0.0,0.0,0.0,0.0,0.0,0.0,0.0,0.0,0.0,0.0,0.0,0.0,0.0,0.0,0.0,0.0,0.0,0.0,0.0,0.0,0.0,0.0,0.0,0.0,0.0,0.0,0.0,0.0,0.0,0.0,0.0,0.0,0.0,0.0,0.0,0.0,0.0,0.0,0.0,0.0,0.0,0.0,0.0,0.0,0.0,0.0,0.0,0.0,0.0,0.0,0.0,0.0,0.0,0.0,0.0,0.0,0.0,0.0,0.0,0.0,0.0,0.0,0.0,0.0,0.0,0.0,0.0,0.0,0.0,0.0,0.0,0.0,0.0,0.0,0.0,0.0,0.0,0.0,0.0,0.0,0.0,0.0,0.0,0.0,0.0,0.0,0.0,0.0,0.0,0.0,0.0,0.0,0.0,0.0,0.0,0.0,0.0,0.0,0.0,0.0,0.0,0.0,0.0,0.0,0.0,0.0,0.0,0.0,0.0,0.0,0.0,0.0,0.0,0.0,0.0,0.0,0.0,0.0,0.0,0.0,0.0,0.0,0.0,0.0,0.0,0.0,0.0,0.0,0.0,0.0,0.0,0.0,0.0,0.0,0.0,0.0,0.0,0.0,0.0,0.0,0.0,0.0,0.0,0.0,0.0,0.0,0.0,0.0,0.0,0.0,0.0,0.0,0.0,0.0,0.0,0.0,0.0,0.0,0.0,0.0,0.0,0.0,0.0,0.0,0.0,0.0,0.0,0.0,0.0,0.0,0.0,0.0,0.0,0.0,0.0,0.0,0.0,0.0,0.0,0.0,0.0,0.0,0.0,0.0,0.0,0.0,0.0,0.0,0.0,0.0,0.0,0.0,0.0,0.0,0.0,0.0,0.0,0.0,0.0,0.0,0.0,0.0,0.0,0.0,0.0,0.0,0.0,0.0,0.0,0.0,0.0,0.0,0.0,0.0,0.0,0.0,0.0,0.0,0.0,0.0,0.0,0.0,0.0,0.0,0.0,0.0,0.0,0.0,0.0,0.0,0.0,0.0,0.0,0.0,0.0,0.0,0.0,0.0,0.0,0.0,0.0,0.0,0.0,0.0,0.0,0.0,0.0,0.0,0.0,0.0,0.0,0.0,0.0,0.0,0.0,0.0,0.0,0.0,0.0,0.0,0.0,0.0,0.0,0.0,0.0,0.0,0.0,0.0,0.0,0.0,0.0,0.0,0.0,0.0,0.0,0.0,0.0,0.0,0.0,0.0,0.0,0.0,0.0,0.0,0.0,0.0,0.0,0.0,0.0,0.0,0.0,0.0,0.0,0.0,0.0,0.0,0.0,0.0,0.0,0.0,0.0,0.0,0.0,0.0,0.0,0.0,0.0,0.0,0.0,0.0,0.0,0.0,0.0,0.0,0.0,0.0,0.0,0.0,0.0,0.0,0.0,0.0,0.0,0.0,0.0,0.0,0.0,0.0,0.0,0.0,0.0,0.0,0.0,0.0,0.0,0.0,0.0,0.0,0.0,0.0,0.0,0.0,0.0,0.0,0.0,0.0,0.0,0.0,0.0,0.0,0.0,0.0,0.0,0.0,0.0,0.0,0.0,0.0,0.0,0.0,0.0,0.0,0.0,0.0,0.0,0.0,0.0,0.0,0.0,0.0,0.0,0.0,0.0,0.0,0.0,0.0,0.0,0.0,0.0,0.0,0.0,0.0,0.0,0.0,0.0,0.0,0.0,0.0,0.0,0.0,0.0,0.0,0.0,0.0,0.0,0.0,0.0,0.0,0.0,0.0,0.0,0.0,0.0,0.0,0.0,0.0,0.0,0.0,0.0,0.0,0.0,0.0,0.0,0.0,0.0,0.0,0.0,0.0,0.0,0.0,0.0,0.0,0.0,0.0,0.0,0.0,0.0,0.0,0.0,0.0,0.0,0.0,0.0,0.0,0.0,0.0,0.0,0.0,0.0,0.0,0.0,0.0,0.0,0.0,0.0,0.0,0.0,0.0,0.0,0.0,0.0,0.0,0.0,0.0,0.0,0.0,0.0,0.0,0.0,0.0,0.0,0.0,0.0,0.0,0.0,0.0,0.0,0.0,0.0,0.0,0.0,0.0,0.0,0.0,0.0,0.0,0.0,0.0,0.0,0.0,0.0,0.0,0.0,0.0,0.0,0.0,0.0,0.0,0.0,0.0,0.0,0.0,0.0,0.0,0.0,0.0,0.0,0.0,0.0,0.0,0.0,0.0,0.0,0.0,0.0,0.0,0.0,0.0,0.0,0.0,0.0,0.0,0.0,0.0,0.0,0.0,0.0,0.0,0.0,0.0,0.0,0.0,0.0,0.0,0.0,0.0,0.0,0.0,0.0,0.0,0.0,0.0,0.0,0.0,0.0,0.0,0.0,0.0,0.0,0.0,0.0,0.0,0.0,0.0,0.0,0.0,0.0,0.0,0.0,0.0,0.0,0.0,0.0,0.0,0.0,0.0,0.0,0.0,0.0,0.0,0.0,0.0,0.0,0.0,0.0,0.0,0.0,0.0,0.0,0.0,0.0,0.0,0.0,0.0,0.0,0.0,0.0,0.0,0.0,0.0,0.0,0.0,0.0,0.0,0.0,0.0,0.0,0.0,0.0,0.0,0.0,0.0,0.0,0.0,0.0,0.0,0.0,0.0,0.0,0.0,0.0,0.0,0.0,0.0,0.0,0.0,0.0,0.0,0.0,0.0,0.0,0.0,0.0,0.0,0.0,0.0,0.0,0.0,0.0,0.0,0.0,0.0,0.0,0.0,0.0,0.0,0.0,0.0,0.0,0.0,0.0,0.0,0.0,0.0,0.0,0.0,0.0,0.0,0.0,0.0,0.0,0.0,0.0,0.0,0.0,0.0,0.0,0.0,0.0,0.0,0.0,0.0,0.0,0.0,0.0,0.0,0.0,0.0,0.0,0.0,0.0,0.0,0.0,0.0,0.0,0.0,0.0,0.0,0.0,0.0,0.0,0.0,0.0,0.0,0.0,0.0,0.0,0.0,0.0,0.0,0.0,0.0,0.0,0.0,0.0,0.0,0.0,0.0,0.0,0.0,0.0,0.0,0.0,0.0,0.0,0.0,0.0,0.0,0.0,0.0,0.0,0.0,0.0,0.0,0.0,0.0,0.0,0.0,0.0,0.0,0.0,0.0,0.0,0.0,0.0,0.0,0.0,0.0,0.0,0.0,0.0,0.0,0.0,0.0,0.0,0.0,0.0,0.0,0.0,0.0,0.0,0.0,0.0,0.0,0.0,0.0,0.0,0.0,0.0,0.0,0.0,0.0,0.0,0.0,0.0,0.0,0.0,0.0,0.0,0.0,0.0,0.0,0.0,0.0,0.0,0.0,0.0,0.0,0.0,0.0,0.0,0.0,0.0,0.0,0.0,0.0,0.0,0.0,0.0,0.0,0.0,0.0,0.0,0.0,0.0,0.0,0.0,0.0,0.0,0.0,0.0,0.0,0.0,0.0,0.0,0.0,0.0,0.0,0.0,0.0,0.0,0.0,0.0,0.0,0.0,0.0,0.0,0.0,0.0,0.0,0.0,0.0,0.0,0.0,0.0,0.0,0.0,0.0,0.0,0.0,0.0,0.0,0.0,0.0,0.0,0.0,0.0,0.0,0.0,0.0,0.0,0.0,0.0,0.0,0.0,0.0,0.0,0.0,0.0,0.0,0.0,0.0,0.0,0.0,0.0,0.0,0.0,0.0,0.0,0.0,0.0,0.0,0.0,0.0,0.0,0.0,0.0,0.0,0.0,0.0,0.0,0.0,0.0,0.0,0.0,0.0,0.0,0.0,0.0,0.0,0.0,0.0,0.0,0.0,0.0,0.0,0.0,0.0,0.0,0.0,0.0,0.0,0.0,0.0,0.0,0.0,0.0,0.0,0.0,0.0,0.0,0.0,0.0,0.0,0.0,0.0,0.0,0.0,0.0,0.0,0.0,0.0,0.0,0.0,0.0,0.0,0.0,0.0,0.0,0.0,0.0,0.0,0.0,0.0,0.0,0.0,0.0,0.0,0.0,0.0,0.0,0.0,0.0,0.0,0.0,0.0,0.0,0.0,0.0,0.0,0.0,0.0,0.0,0.0,0.0,0.0,0.0,0.0,0.0,0.0,0.0,0.0,0.0,0.0,0.0,0.0,0.0,0.0,0.0,0.0,0.0,0.0,0.0,0.0,0.0,0.0,0.0,0.0,0.0,0.0,0.0,0.0,0.0,0.0,0.0,0.0,0.0,0.0,0.0,0.0,0.0,0.0,0.0,0.0,0.0,0.0,0.0,0.0,0.0,0.0,0.0,0.0,0.0,0.0,0.0,0.0,0.0,0.0,0.0,0.0,0.0,0.0,0.0,0.0,0.0,0.0,0.0,0.0,0.0,0.0,0.0,0.0,0.0,0.0,0.0,0.0,0.0,0.0,0.0,0.0,0.0,0.0,0.0,0.0,0.0,0.0,0.0,0.0,0.0,0.0,0.0,0.0,0.0,0.0,0.0,0.0,0.0,0.0,0.0,0.0,0.0,0.0,0.0,0.0,0.0,0.0,0.0,0.0,0.0,0.0,0.0,0.0,0.0,0.0,0.0,0.0,0.0,0.0,0.0,0.0,0.0,0.0,0.0,0.0,0.0,0.0,0.0,0.0,0.0,0.0,0.0,0.0,0.0,0.0,0.0,0.0,0.0,0.0,0.0,0.0,0.0,0.0,0.0,0.0,0.0,0.0,0.0,0.0,0.0,0.0,0.0,0.0,0.0,0.0,0.0,0.0,0.0,0.0,0.0,0.0,0.0,0.0,0.0,0.0,0.0,0.0,0.0,0.0,0.0,0.0,0.0,0.0,0.0,0.0,0.0,0.0,0.0,0.0,0.0,0.0,0.0,0.0,0.0,0.0,0.0,0.0,0.0,0.0,0.0,0.0,0.0,0.0,0.0,0.0,0.0,0.0,0.0,0.0,0.0,0.0,0.0,0.0,0.0,0.0,0.0,0.0,0.0,0.0,0.0,0.0,0.0,0.0,0.0,0.0,0.0,0.0,0.0,0.0,0.0,0.0,0.0,0.0,0.0,0.0,0.0,0.0,0.0,0.0,0.0,0.0,0.0,0.0,0.0,0.0,0.0,0.0,0.0,0.0,0.0,0.0,0.0,0.0,0.0,0.0,0.0,0.0,0.0,0.0,0.0,0.0,0.0,0.0,0.0,0.0,0.0,0.0,0.0,0.0,0.0,0.0,0.0,0.0,0.0,0.0,0.0,0.0,0.0,0.0,0.0,0.0,0.0,0.0,0.0,0.0,0.0,0.0,0.0,0.0,0.0,0.0,0.0,0.0,0.0,0.0,0.0,0.0,0.0,0.0,0.0,0.0,0.0,0.0,0.0,0.0,0.0,0.0,0.0,0.0,0.0,0.0,0.0,0.0,0.0,0.0,0.0,0.0,0.0,0.0,0.0,0.0,0.0,0.0,0.0,0.0,0.0,0.0,0.0,0.0,0.0,0.0,0.0,0.0,0.0,0.0,0.0,0.0,0.0,0.0,0.0,0.0,0.0,0.0,0.0,0.0,0.0,0.0,0.0,0.0,0.0,0.0,0.0,0.0,0.0,0.0,0.0,0.0,0.0,0.0,0.0,0.0,0.0,0.0,0.0,0.0,0.0,0.0,0.0,0.0,0.0,0.0,0.0,0.0,0.0,0.0,0.0,0.0,0.0,0.0,0.0,0.0,0.0,0.0,0.0,0.0,0.0,0.0,0.0,0.0,0.0,0.0,0.0,0.0,0.0,0.0,0.0,0.0,0.0,0.0,0.0,0.0,0.0,0.0,0.0,0.0,0.0,0.0,0.0,0.0,0.0,0.0,0.0,0.0,0.0,0.0,0.0,0.0,0.0,0.0,0.0,0.0,0.0,0.0,0.0,0.0,0.0,0.0,0.0,0.0,0.0,0.0,0.0,0.0,0.0,0.0,0.0,0.0,0.0,0.0,0.0,0.0,0.0,0.0,0.0,0.0,0.0,0.0,0.0,0.0,0.0,0.0,0.0,0.0,0.0,0.0,0.0,0.0,0.0,0.0,0.0,0.0,0.0,0.0,0.0,0.0,0.0,0.0,0.0,0.0,0.0,0.0,0.0,0.0,0.0,0.0,0.0,0.0,0.0,0.0,0.0,0.0,0.0,0.0,0.0,0.0,0.0,0.0,0.0,0.0,0.0,0.0,0.0,0.0,0.0,0.0,0.0,0.0,0.0,0.0,0.0,0.0,0.0,0.0,0.0,0.0,0.0,0.0,0.0,0.0,0.0,0.0,0.0,0.0,0.0,0.0,0.0,0.0,0.0,0.0,0.0,0.0,0.0,0.0,0.0,0.0,0.0,0.0,0.0,0.0,0.0,0.0,0.0,0.0,0.0,0.0,0.0,0.0,0.0,0.0,0.0,0.0,0.0,0.0,0.0,0.0,0.0,0.0,0.0,0.0,0.0,0.0,0.0,0.0,0.0,0.0,0.0,0.0,0.0,0.0,0.0,0.0,0.0,0.0,0.0,0.0,0.0,0.0,0.0,0.0,0.0,0.0,0.0,0.0,0.0,0.0,0.0,0.0,0.0,0.0,0.0,0.0,0.0,0.0,0.0,0.0,0.0,0.0,0.0,0.0,0.0,0.0,0.0,0.0,0.0,0.0,0.0,0.0,0.0,0.0,0.0,0.0,0.0,0.0,0.0,0.0,0.0,0.0,0.0,0.0,0.0,0.0,0.0,0.0,0.0,0.0,0.0,0.0,0.0,0.0,0.0,0.0,0.0,0.0,0.0,0.0,0.0,0.0,0.0,0.0,0.0,0.0,0.0,0.0,0.0,0.0,0.0,0.0,0.0,0.0,0.0,0.0,0.0,0.0,0.0,0.0,0.0,0.0,0.0,0.0,0.0,0.0,0.0,0.0,0.0,0.0,0.0,0.0,0.0,0.0,0.0,0.0,0.0,0.0,0.0,0.0,0.0,0.0,0.0,0.0,0.0,0.0,0.0,0.0,0.0,0.0,0.0,0.0,0.0,0.0,0.0,0.0,0.0,0.0,0.0,0.0,0.0,0.0,0.0,0.0,0.0,0.0,0.0,0.0,0.0,0.0,0.0,0.0,0.0,0.0,0.0,0.0,0.0,0.0,0.0,0.0,0.0,0.0,0.0,0.0,0.0,0.0,0.0,0.0,0.0,0.0,0.0,0.0,0.0,0.0,0.0,0.0,0.0,0.0,0.0,0.0,0.0,0.0,0.0,0.0,0.0,0.0,0.0,0.0,0.0,0.0,0.0,0.0,0.0,0.0,0.0,0.0,0.0,0.0,0.0,0.0,0.0,0.0,0.0,0.0,0.0,0.0,0.0,0.0,0.0,0.0,0.0,0.0,0.0,0.0,0.0,0.0,0.0,0.0,0.0,0.0,0.0,0.0,0.0,0.0,0.0,0.0,0.0,0.0,0.0,0.0,0.0,0.0,0.0,0.0,0.0,0.0,0.0,0.0,0.0,0.0,0.0,0.0,0.0,0.0,0.0,0.0,0.0,0.0,0.0,0.0,0.0,0.0,0.0,0.0,0.0,0.0,0.0,0.0,0.0,0.0,0.0,0.0,0.0,0.0,0.0,0.0,0.0,0.0,0.0,0.0,0.0,0.0,0.0,0.0,0.0,0.0,0.0,0.0,0.0,0.0,0.0]}]]